<?xml version="1.0" encoding="UTF-8" standalone="no" ?>
<gpx xmlns="http://www.topografix.com/GPX/1/1" xmlns:xsi="http://www.w3.org/2001/XMLSchema-instance" xsi:schemaLocation="http://www.topografix.com/GPX/1/1 http://www.topografix.com/GPX/1/1/gpx.xsd" version="1.1" creator="VisuGPX - https://www.visugpx.com">
  <metadata>
    <name>Au pied des éoliennes</name>
    <desc><![CDATA[Boucle entre loire et allier sous les éoliennes]]></desc>
  </metadata>
  <trk>
    <name><![CDATA[2015-04-12 11:43]]></name>
    <desc><![CDATA[<h1>OruxMaps</h1><br /><hr align="center" width="480" style="height: 2px; width: 517px"/><h2>Nom: 2015-04-12 11:43</h2><br /><p>Temps de départ: 04/12/2015 11:43</p><p>Temps d'arrivée: 04/12/2015 13:54</p><p>Distance: 14,7km (02:10)</p><p>Temps déplacement: 01:26</p><p>Vitesse moyenne: 6,7km/h</p><p>Vitesse moyenne: 10,2km/h</p><p>Vitess Max.: 34,2km/h</p><p>Altitude minimale: 766m</p><p>Altitude maximale: 1074m</p><p>Vitesse d'élévation: 385,1m/h</p><p>Vitesse de descente: -611,5m/h</p><p>Gain Altitude: 458m</p><p>Perte Altitude: -466m</p><p>Temps d'élévation: 01:11</p><p>Temps de descente: 00:45</p><hr align="center" width="480" style="height: 2px; width: 517px"/>]]></desc>
    <trkseg>
      <trkpt lat="46.1072" lon="3.81547">
        <ele>785</ele>
        <time>2015-04-12T09:43:43Z</time>
      </trkpt>
      <trkpt lat="46.10726" lon="3.81548">
        <ele>786</ele>
        <time>2015-04-12T09:43:44Z</time>
      </trkpt>
      <trkpt lat="46.10731" lon="3.81547">
        <ele>786</ele>
        <time>2015-04-12T09:44:47Z</time>
      </trkpt>
      <trkpt lat="46.10731" lon="3.81539">
        <ele>785</ele>
        <time>2015-04-12T09:46:09Z</time>
      </trkpt>
      <trkpt lat="46.10733" lon="3.81533">
        <ele>785</ele>
        <time>2015-04-12T09:46:11Z</time>
      </trkpt>
      <trkpt lat="46.10735" lon="3.81525">
        <ele>785</ele>
        <time>2015-04-12T09:46:13Z</time>
      </trkpt>
      <trkpt lat="46.10738" lon="3.81517">
        <ele>785</ele>
        <time>2015-04-12T09:46:15Z</time>
      </trkpt>
      <trkpt lat="46.1074" lon="3.81507">
        <ele>785</ele>
        <time>2015-04-12T09:46:17Z</time>
      </trkpt>
      <trkpt lat="46.10743" lon="3.81497">
        <ele>784</ele>
        <time>2015-04-12T09:46:19Z</time>
      </trkpt>
      <trkpt lat="46.10747" lon="3.81486">
        <ele>783</ele>
        <time>2015-04-12T09:46:21Z</time>
      </trkpt>
      <trkpt lat="46.10749" lon="3.8148">
        <ele>783</ele>
        <time>2015-04-12T09:46:22Z</time>
      </trkpt>
      <trkpt lat="46.10751" lon="3.81473">
        <ele>783</ele>
        <time>2015-04-12T09:46:23Z</time>
      </trkpt>
      <trkpt lat="46.10754" lon="3.81466">
        <ele>783</ele>
        <time>2015-04-12T09:46:24Z</time>
      </trkpt>
      <trkpt lat="46.10756" lon="3.81459">
        <ele>783</ele>
        <time>2015-04-12T09:46:25Z</time>
      </trkpt>
      <trkpt lat="46.10759" lon="3.81451">
        <ele>782</ele>
        <time>2015-04-12T09:46:26Z</time>
      </trkpt>
      <trkpt lat="46.10761" lon="3.81443">
        <ele>782</ele>
        <time>2015-04-12T09:46:27Z</time>
      </trkpt>
      <trkpt lat="46.10764" lon="3.81434">
        <ele>782</ele>
        <time>2015-04-12T09:46:28Z</time>
      </trkpt>
      <trkpt lat="46.10766" lon="3.81426">
        <ele>782</ele>
        <time>2015-04-12T09:46:29Z</time>
      </trkpt>
      <trkpt lat="46.10769" lon="3.81418">
        <ele>782</ele>
        <time>2015-04-12T09:46:30Z</time>
      </trkpt>
      <trkpt lat="46.10771" lon="3.81409">
        <ele>781</ele>
        <time>2015-04-12T09:46:31Z</time>
      </trkpt>
      <trkpt lat="46.10774" lon="3.814">
        <ele>781</ele>
        <time>2015-04-12T09:46:32Z</time>
      </trkpt>
      <trkpt lat="46.10776" lon="3.81392">
        <ele>781</ele>
        <time>2015-04-12T09:46:33Z</time>
      </trkpt>
      <trkpt lat="46.10779" lon="3.81383">
        <ele>782</ele>
        <time>2015-04-12T09:46:34Z</time>
      </trkpt>
      <trkpt lat="46.10781" lon="3.81374">
        <ele>782</ele>
        <time>2015-04-12T09:46:35Z</time>
      </trkpt>
      <trkpt lat="46.10784" lon="3.81365">
        <ele>782</ele>
        <time>2015-04-12T09:46:36Z</time>
      </trkpt>
      <trkpt lat="46.10787" lon="3.81356">
        <ele>782</ele>
        <time>2015-04-12T09:46:37Z</time>
      </trkpt>
      <trkpt lat="46.1079" lon="3.81347">
        <ele>782</ele>
        <time>2015-04-12T09:46:37Z</time>
      </trkpt>
      <trkpt lat="46.10792" lon="3.81338">
        <ele>782</ele>
        <time>2015-04-12T09:46:39Z</time>
      </trkpt>
      <trkpt lat="46.10795" lon="3.81329">
        <ele>782</ele>
        <time>2015-04-12T09:46:40Z</time>
      </trkpt>
      <trkpt lat="46.10797" lon="3.8132">
        <ele>782</ele>
        <time>2015-04-12T09:46:41Z</time>
      </trkpt>
      <trkpt lat="46.108" lon="3.8131">
        <ele>782</ele>
        <time>2015-04-12T09:46:41Z</time>
      </trkpt>
      <trkpt lat="46.10802" lon="3.81301">
        <ele>782</ele>
        <time>2015-04-12T09:46:42Z</time>
      </trkpt>
      <trkpt lat="46.10804" lon="3.81292">
        <ele>782</ele>
        <time>2015-04-12T09:46:43Z</time>
      </trkpt>
      <trkpt lat="46.10806" lon="3.81282">
        <ele>782</ele>
        <time>2015-04-12T09:46:45Z</time>
      </trkpt>
      <trkpt lat="46.10809" lon="3.81273">
        <ele>782</ele>
        <time>2015-04-12T09:46:46Z</time>
      </trkpt>
      <trkpt lat="46.10811" lon="3.81263">
        <ele>783</ele>
        <time>2015-04-12T09:46:47Z</time>
      </trkpt>
      <trkpt lat="46.10813" lon="3.81253">
        <ele>783</ele>
        <time>2015-04-12T09:46:48Z</time>
      </trkpt>
      <trkpt lat="46.10815" lon="3.81244">
        <ele>782</ele>
        <time>2015-04-12T09:46:49Z</time>
      </trkpt>
      <trkpt lat="46.10816" lon="3.81234">
        <ele>782</ele>
        <time>2015-04-12T09:46:50Z</time>
      </trkpt>
      <trkpt lat="46.10817" lon="3.81224">
        <ele>781</ele>
        <time>2015-04-12T09:46:51Z</time>
      </trkpt>
      <trkpt lat="46.10818" lon="3.81214">
        <ele>781</ele>
        <time>2015-04-12T09:46:52Z</time>
      </trkpt>
      <trkpt lat="46.10818" lon="3.81205">
        <ele>781</ele>
        <time>2015-04-12T09:46:53Z</time>
      </trkpt>
      <trkpt lat="46.10818" lon="3.81195">
        <ele>781</ele>
        <time>2015-04-12T09:46:54Z</time>
      </trkpt>
      <trkpt lat="46.10817" lon="3.81185">
        <ele>781</ele>
        <time>2015-04-12T09:46:55Z</time>
      </trkpt>
      <trkpt lat="46.10816" lon="3.81175">
        <ele>782</ele>
        <time>2015-04-12T09:46:56Z</time>
      </trkpt>
      <trkpt lat="46.10815" lon="3.81165">
        <ele>782</ele>
        <time>2015-04-12T09:46:57Z</time>
      </trkpt>
      <trkpt lat="46.10814" lon="3.81154">
        <ele>781</ele>
        <time>2015-04-12T09:46:58Z</time>
      </trkpt>
      <trkpt lat="46.10813" lon="3.81144">
        <ele>780</ele>
        <time>2015-04-12T09:46:59Z</time>
      </trkpt>
      <trkpt lat="46.10811" lon="3.81135">
        <ele>780</ele>
        <time>2015-04-12T09:47:00Z</time>
      </trkpt>
      <trkpt lat="46.1081" lon="3.81125">
        <ele>780</ele>
        <time>2015-04-12T09:47:01Z</time>
      </trkpt>
      <trkpt lat="46.10809" lon="3.81115">
        <ele>780</ele>
        <time>2015-04-12T09:47:02Z</time>
      </trkpt>
      <trkpt lat="46.10808" lon="3.81105">
        <ele>780</ele>
        <time>2015-04-12T09:47:03Z</time>
      </trkpt>
      <trkpt lat="46.10807" lon="3.81094">
        <ele>781</ele>
        <time>2015-04-12T09:47:04Z</time>
      </trkpt>
      <trkpt lat="46.10806" lon="3.81084">
        <ele>781</ele>
        <time>2015-04-12T09:47:05Z</time>
      </trkpt>
      <trkpt lat="46.10805" lon="3.81075">
        <ele>780</ele>
        <time>2015-04-12T09:47:06Z</time>
      </trkpt>
      <trkpt lat="46.10804" lon="3.81066">
        <ele>779</ele>
        <time>2015-04-12T09:47:07Z</time>
      </trkpt>
      <trkpt lat="46.10802" lon="3.81057">
        <ele>779</ele>
        <time>2015-04-12T09:47:08Z</time>
      </trkpt>
      <trkpt lat="46.10801" lon="3.81048">
        <ele>778</ele>
        <time>2015-04-12T09:47:09Z</time>
      </trkpt>
      <trkpt lat="46.108" lon="3.81037">
        <ele>778</ele>
        <time>2015-04-12T09:47:10Z</time>
      </trkpt>
      <trkpt lat="46.10799" lon="3.81027">
        <ele>778</ele>
        <time>2015-04-12T09:47:11Z</time>
      </trkpt>
      <trkpt lat="46.10798" lon="3.81017">
        <ele>778</ele>
        <time>2015-04-12T09:47:12Z</time>
      </trkpt>
      <trkpt lat="46.10796" lon="3.81007">
        <ele>778</ele>
        <time>2015-04-12T09:47:13Z</time>
      </trkpt>
      <trkpt lat="46.10795" lon="3.80999">
        <ele>775</ele>
        <time>2015-04-12T09:47:14Z</time>
      </trkpt>
      <trkpt lat="46.10792" lon="3.8099">
        <ele>774</ele>
        <time>2015-04-12T09:47:15Z</time>
      </trkpt>
      <trkpt lat="46.10791" lon="3.80981">
        <ele>774</ele>
        <time>2015-04-12T09:47:16Z</time>
      </trkpt>
      <trkpt lat="46.10793" lon="3.8097">
        <ele>773</ele>
        <time>2015-04-12T09:47:16Z</time>
      </trkpt>
      <trkpt lat="46.10798" lon="3.80957">
        <ele>773</ele>
        <time>2015-04-12T09:47:17Z</time>
      </trkpt>
      <trkpt lat="46.108" lon="3.80944">
        <ele>773</ele>
        <time>2015-04-12T09:47:18Z</time>
      </trkpt>
      <trkpt lat="46.10801" lon="3.80932">
        <ele>772</ele>
        <time>2015-04-12T09:47:20Z</time>
      </trkpt>
      <trkpt lat="46.10802" lon="3.80919">
        <ele>772</ele>
        <time>2015-04-12T09:47:21Z</time>
      </trkpt>
      <trkpt lat="46.10803" lon="3.80907">
        <ele>768</ele>
        <time>2015-04-12T09:47:22Z</time>
      </trkpt>
      <trkpt lat="46.10804" lon="3.80897">
        <ele>768</ele>
        <time>2015-04-12T09:47:23Z</time>
      </trkpt>
      <trkpt lat="46.10806" lon="3.80887">
        <ele>768</ele>
        <time>2015-04-12T09:47:24Z</time>
      </trkpt>
      <trkpt lat="46.10807" lon="3.80876">
        <ele>768</ele>
        <time>2015-04-12T09:47:25Z</time>
      </trkpt>
      <trkpt lat="46.10809" lon="3.80864">
        <ele>767</ele>
        <time>2015-04-12T09:47:26Z</time>
      </trkpt>
      <trkpt lat="46.1081" lon="3.80853">
        <ele>767</ele>
        <time>2015-04-12T09:47:27Z</time>
      </trkpt>
      <trkpt lat="46.10811" lon="3.80842">
        <ele>767</ele>
        <time>2015-04-12T09:47:28Z</time>
      </trkpt>
      <trkpt lat="46.10813" lon="3.80832">
        <ele>765</ele>
        <time>2015-04-12T09:47:29Z</time>
      </trkpt>
      <trkpt lat="46.10814" lon="3.80821">
        <ele>765</ele>
        <time>2015-04-12T09:47:30Z</time>
      </trkpt>
      <trkpt lat="46.10815" lon="3.80811">
        <ele>765</ele>
        <time>2015-04-12T09:47:31Z</time>
      </trkpt>
      <trkpt lat="46.10816" lon="3.80801">
        <ele>765</ele>
        <time>2015-04-12T09:47:32Z</time>
      </trkpt>
      <trkpt lat="46.10817" lon="3.80792">
        <ele>765</ele>
        <time>2015-04-12T09:47:32Z</time>
      </trkpt>
      <trkpt lat="46.10817" lon="3.80786">
        <ele>765</ele>
        <time>2015-04-12T09:47:34Z</time>
      </trkpt>
      <trkpt lat="46.10811" lon="3.80779">
        <ele>764</ele>
        <time>2015-04-12T09:47:36Z</time>
      </trkpt>
      <trkpt lat="46.10807" lon="3.80781">
        <ele>764</ele>
        <time>2015-04-12T09:47:37Z</time>
      </trkpt>
      <trkpt lat="46.10802" lon="3.80784">
        <ele>764</ele>
        <time>2015-04-12T09:47:38Z</time>
      </trkpt>
      <trkpt lat="46.10797" lon="3.80787">
        <ele>764</ele>
        <time>2015-04-12T09:47:39Z</time>
      </trkpt>
      <trkpt lat="46.10792" lon="3.80788">
        <ele>764</ele>
        <time>2015-04-12T09:47:40Z</time>
      </trkpt>
      <trkpt lat="46.10787" lon="3.80787">
        <ele>764</ele>
        <time>2015-04-12T09:47:41Z</time>
      </trkpt>
      <trkpt lat="46.10782" lon="3.80784">
        <ele>764</ele>
        <time>2015-04-12T09:47:42Z</time>
      </trkpt>
      <trkpt lat="46.10778" lon="3.80777">
        <ele>764</ele>
        <time>2015-04-12T09:47:42Z</time>
      </trkpt>
      <trkpt lat="46.10776" lon="3.80768">
        <ele>763</ele>
        <time>2015-04-12T09:47:43Z</time>
      </trkpt>
      <trkpt lat="46.10775" lon="3.80758">
        <ele>763</ele>
        <time>2015-04-12T09:47:44Z</time>
      </trkpt>
      <trkpt lat="46.10775" lon="3.80749">
        <ele>761</ele>
        <time>2015-04-12T09:47:46Z</time>
      </trkpt>
      <trkpt lat="46.10775" lon="3.80739">
        <ele>761</ele>
        <time>2015-04-12T09:47:47Z</time>
      </trkpt>
      <trkpt lat="46.10774" lon="3.80729">
        <ele>761</ele>
        <time>2015-04-12T09:47:48Z</time>
      </trkpt>
      <trkpt lat="46.10772" lon="3.80718">
        <ele>761</ele>
        <time>2015-04-12T09:47:49Z</time>
      </trkpt>
      <trkpt lat="46.10769" lon="3.80707">
        <ele>761</ele>
        <time>2015-04-12T09:47:50Z</time>
      </trkpt>
      <trkpt lat="46.10766" lon="3.80697">
        <ele>761</ele>
        <time>2015-04-12T09:47:51Z</time>
      </trkpt>
      <trkpt lat="46.10763" lon="3.80687">
        <ele>760</ele>
        <time>2015-04-12T09:47:52Z</time>
      </trkpt>
      <trkpt lat="46.1076" lon="3.80678">
        <ele>760</ele>
        <time>2015-04-12T09:47:53Z</time>
      </trkpt>
      <trkpt lat="46.10757" lon="3.80668">
        <ele>760</ele>
        <time>2015-04-12T09:47:54Z</time>
      </trkpt>
      <trkpt lat="46.10754" lon="3.80659">
        <ele>759</ele>
        <time>2015-04-12T09:47:55Z</time>
      </trkpt>
      <trkpt lat="46.10751" lon="3.8065">
        <ele>759</ele>
        <time>2015-04-12T09:47:56Z</time>
      </trkpt>
      <trkpt lat="46.10748" lon="3.80641">
        <ele>760</ele>
        <time>2015-04-12T09:47:57Z</time>
      </trkpt>
      <trkpt lat="46.10744" lon="3.80633">
        <ele>760</ele>
        <time>2015-04-12T09:47:58Z</time>
      </trkpt>
      <trkpt lat="46.1074" lon="3.80625">
        <ele>760</ele>
        <time>2015-04-12T09:47:59Z</time>
      </trkpt>
      <trkpt lat="46.10736" lon="3.80617">
        <ele>760</ele>
        <time>2015-04-12T09:48:00Z</time>
      </trkpt>
      <trkpt lat="46.10732" lon="3.8061">
        <ele>760</ele>
        <time>2015-04-12T09:48:01Z</time>
      </trkpt>
      <trkpt lat="46.10729" lon="3.80604">
        <ele>760</ele>
        <time>2015-04-12T09:48:02Z</time>
      </trkpt>
      <trkpt lat="46.10725" lon="3.80599">
        <ele>760</ele>
        <time>2015-04-12T09:48:03Z</time>
      </trkpt>
      <trkpt lat="46.10721" lon="3.80595">
        <ele>760</ele>
        <time>2015-04-12T09:48:04Z</time>
      </trkpt>
      <trkpt lat="46.10716" lon="3.8059">
        <ele>760</ele>
        <time>2015-04-12T09:48:06Z</time>
      </trkpt>
      <trkpt lat="46.10712" lon="3.80594">
        <ele>760</ele>
        <time>2015-04-12T09:48:09Z</time>
      </trkpt>
      <trkpt lat="46.10716" lon="3.80587">
        <ele>760</ele>
        <time>2015-04-12T09:50:00Z</time>
      </trkpt>
      <trkpt lat="46.10712" lon="3.80582">
        <ele>761</ele>
        <time>2015-04-12T09:50:03Z</time>
      </trkpt>
      <trkpt lat="46.10708" lon="3.80578">
        <ele>761</ele>
        <time>2015-04-12T09:50:05Z</time>
      </trkpt>
      <trkpt lat="46.10706" lon="3.80572">
        <ele>761</ele>
        <time>2015-04-12T09:50:07Z</time>
      </trkpt>
      <trkpt lat="46.10702" lon="3.80566">
        <ele>761</ele>
        <time>2015-04-12T09:50:09Z</time>
      </trkpt>
      <trkpt lat="46.10697" lon="3.80559">
        <ele>761</ele>
        <time>2015-04-12T09:50:11Z</time>
      </trkpt>
      <trkpt lat="46.10691" lon="3.80554">
        <ele>761</ele>
        <time>2015-04-12T09:50:13Z</time>
      </trkpt>
      <trkpt lat="46.10686" lon="3.80548">
        <ele>761</ele>
        <time>2015-04-12T09:50:15Z</time>
      </trkpt>
      <trkpt lat="46.1068" lon="3.80544">
        <ele>761</ele>
        <time>2015-04-12T09:50:17Z</time>
      </trkpt>
      <trkpt lat="46.10676" lon="3.80539">
        <ele>761</ele>
        <time>2015-04-12T09:50:19Z</time>
      </trkpt>
      <trkpt lat="46.1067" lon="3.80535">
        <ele>761</ele>
        <time>2015-04-12T09:50:21Z</time>
      </trkpt>
      <trkpt lat="46.10665" lon="3.8053">
        <ele>761</ele>
        <time>2015-04-12T09:50:23Z</time>
      </trkpt>
      <trkpt lat="46.10659" lon="3.80526">
        <ele>761</ele>
        <time>2015-04-12T09:50:25Z</time>
      </trkpt>
      <trkpt lat="46.10654" lon="3.80522">
        <ele>761</ele>
        <time>2015-04-12T09:50:27Z</time>
      </trkpt>
      <trkpt lat="46.10648" lon="3.80519">
        <ele>761</ele>
        <time>2015-04-12T09:50:29Z</time>
      </trkpt>
      <trkpt lat="46.10643" lon="3.80516">
        <ele>761</ele>
        <time>2015-04-12T09:50:31Z</time>
      </trkpt>
      <trkpt lat="46.10637" lon="3.80514">
        <ele>761</ele>
        <time>2015-04-12T09:50:33Z</time>
      </trkpt>
      <trkpt lat="46.10631" lon="3.8051">
        <ele>761</ele>
        <time>2015-04-12T09:50:35Z</time>
      </trkpt>
      <trkpt lat="46.10625" lon="3.80507">
        <ele>762</ele>
        <time>2015-04-12T09:50:37Z</time>
      </trkpt>
      <trkpt lat="46.10618" lon="3.80504">
        <ele>762</ele>
        <time>2015-04-12T09:50:39Z</time>
      </trkpt>
      <trkpt lat="46.10613" lon="3.80503">
        <ele>762</ele>
        <time>2015-04-12T09:50:41Z</time>
      </trkpt>
      <trkpt lat="46.10608" lon="3.805">
        <ele>762</ele>
        <time>2015-04-12T09:50:43Z</time>
      </trkpt>
      <trkpt lat="46.10604" lon="3.80496">
        <ele>763</ele>
        <time>2015-04-12T09:50:46Z</time>
      </trkpt>
      <trkpt lat="46.10599" lon="3.80493">
        <ele>763</ele>
        <time>2015-04-12T09:50:49Z</time>
      </trkpt>
      <trkpt lat="46.10593" lon="3.80491">
        <ele>763</ele>
        <time>2015-04-12T09:50:51Z</time>
      </trkpt>
      <trkpt lat="46.10589" lon="3.80489">
        <ele>763</ele>
        <time>2015-04-12T09:50:53Z</time>
      </trkpt>
      <trkpt lat="46.10583" lon="3.80483">
        <ele>765</ele>
        <time>2015-04-12T09:50:56Z</time>
      </trkpt>
      <trkpt lat="46.10579" lon="3.8048">
        <ele>766</ele>
        <time>2015-04-12T09:50:58Z</time>
      </trkpt>
      <trkpt lat="46.10575" lon="3.80476">
        <ele>766</ele>
        <time>2015-04-12T09:51:00Z</time>
      </trkpt>
      <trkpt lat="46.10572" lon="3.8047">
        <ele>766</ele>
        <time>2015-04-12T09:51:02Z</time>
      </trkpt>
      <trkpt lat="46.10566" lon="3.80466">
        <ele>766</ele>
        <time>2015-04-12T09:51:05Z</time>
      </trkpt>
      <trkpt lat="46.10561" lon="3.80463">
        <ele>766</ele>
        <time>2015-04-12T09:51:07Z</time>
      </trkpt>
      <trkpt lat="46.10556" lon="3.80459">
        <ele>767</ele>
        <time>2015-04-12T09:51:09Z</time>
      </trkpt>
      <trkpt lat="46.10552" lon="3.80455">
        <ele>767</ele>
        <time>2015-04-12T09:51:11Z</time>
      </trkpt>
      <trkpt lat="46.10548" lon="3.80451">
        <ele>767</ele>
        <time>2015-04-12T09:51:13Z</time>
      </trkpt>
      <trkpt lat="46.10543" lon="3.80445">
        <ele>767</ele>
        <time>2015-04-12T09:51:16Z</time>
      </trkpt>
      <trkpt lat="46.10539" lon="3.8044">
        <ele>767</ele>
        <time>2015-04-12T09:51:18Z</time>
      </trkpt>
      <trkpt lat="46.10535" lon="3.80435">
        <ele>768</ele>
        <time>2015-04-12T09:51:20Z</time>
      </trkpt>
      <trkpt lat="46.10531" lon="3.80428">
        <ele>768</ele>
        <time>2015-04-12T09:51:23Z</time>
      </trkpt>
      <trkpt lat="46.10528" lon="3.80424">
        <ele>768</ele>
        <time>2015-04-12T09:51:25Z</time>
      </trkpt>
      <trkpt lat="46.10523" lon="3.80418">
        <ele>769</ele>
        <time>2015-04-12T09:51:28Z</time>
      </trkpt>
      <trkpt lat="46.1052" lon="3.80411">
        <ele>770</ele>
        <time>2015-04-12T09:51:30Z</time>
      </trkpt>
      <trkpt lat="46.10518" lon="3.80405">
        <ele>770</ele>
        <time>2015-04-12T09:51:32Z</time>
      </trkpt>
      <trkpt lat="46.10516" lon="3.80399">
        <ele>770</ele>
        <time>2015-04-12T09:51:34Z</time>
      </trkpt>
      <trkpt lat="46.10515" lon="3.8039">
        <ele>770</ele>
        <time>2015-04-12T09:51:36Z</time>
      </trkpt>
      <trkpt lat="46.10515" lon="3.80382">
        <ele>770</ele>
        <time>2015-04-12T09:51:38Z</time>
      </trkpt>
      <trkpt lat="46.10517" lon="3.80374">
        <ele>770</ele>
        <time>2015-04-12T09:51:40Z</time>
      </trkpt>
      <trkpt lat="46.10519" lon="3.80368">
        <ele>770</ele>
        <time>2015-04-12T09:51:42Z</time>
      </trkpt>
      <trkpt lat="46.10526" lon="3.80362">
        <ele>770</ele>
        <time>2015-04-12T09:51:45Z</time>
      </trkpt>
      <trkpt lat="46.10531" lon="3.80356">
        <ele>770</ele>
        <time>2015-04-12T09:51:47Z</time>
      </trkpt>
      <trkpt lat="46.1054" lon="3.80349">
        <ele>769</ele>
        <time>2015-04-12T09:51:49Z</time>
      </trkpt>
      <trkpt lat="46.10543" lon="3.80345">
        <ele>769</ele>
        <time>2015-04-12T09:51:50Z</time>
      </trkpt>
      <trkpt lat="46.10547" lon="3.80341">
        <ele>769</ele>
        <time>2015-04-12T09:51:51Z</time>
      </trkpt>
      <trkpt lat="46.10551" lon="3.80338">
        <ele>769</ele>
        <time>2015-04-12T09:51:52Z</time>
      </trkpt>
      <trkpt lat="46.10558" lon="3.8033">
        <ele>770</ele>
        <time>2015-04-12T09:51:54Z</time>
      </trkpt>
      <trkpt lat="46.10565" lon="3.80323">
        <ele>770</ele>
        <time>2015-04-12T09:51:56Z</time>
      </trkpt>
      <trkpt lat="46.10573" lon="3.80318">
        <ele>769</ele>
        <time>2015-04-12T09:51:58Z</time>
      </trkpt>
      <trkpt lat="46.1058" lon="3.80312">
        <ele>769</ele>
        <time>2015-04-12T09:52:00Z</time>
      </trkpt>
      <trkpt lat="46.10584" lon="3.80303">
        <ele>765</ele>
        <time>2015-04-12T09:52:02Z</time>
      </trkpt>
      <trkpt lat="46.10586" lon="3.80297">
        <ele>765</ele>
        <time>2015-04-12T09:52:03Z</time>
      </trkpt>
      <trkpt lat="46.10587" lon="3.80288">
        <ele>766</ele>
        <time>2015-04-12T09:52:04Z</time>
      </trkpt>
      <trkpt lat="46.10589" lon="3.80279">
        <ele>766</ele>
        <time>2015-04-12T09:52:06Z</time>
      </trkpt>
      <trkpt lat="46.10585" lon="3.80274">
        <ele>766</ele>
        <time>2015-04-12T09:52:08Z</time>
      </trkpt>
      <trkpt lat="46.10582" lon="3.80267">
        <ele>770</ele>
        <time>2015-04-12T09:52:11Z</time>
      </trkpt>
      <trkpt lat="46.1058" lon="3.8026">
        <ele>770</ele>
        <time>2015-04-12T09:52:14Z</time>
      </trkpt>
      <trkpt lat="46.10577" lon="3.80254">
        <ele>770</ele>
        <time>2015-04-12T09:52:17Z</time>
      </trkpt>
      <trkpt lat="46.10575" lon="3.80247">
        <ele>772</ele>
        <time>2015-04-12T09:52:20Z</time>
      </trkpt>
      <trkpt lat="46.10572" lon="3.80241">
        <ele>773</ele>
        <time>2015-04-12T09:52:23Z</time>
      </trkpt>
      <trkpt lat="46.10569" lon="3.80235">
        <ele>774</ele>
        <time>2015-04-12T09:52:26Z</time>
      </trkpt>
      <trkpt lat="46.10565" lon="3.80228">
        <ele>775</ele>
        <time>2015-04-12T09:52:29Z</time>
      </trkpt>
      <trkpt lat="46.10563" lon="3.80221">
        <ele>776</ele>
        <time>2015-04-12T09:52:32Z</time>
      </trkpt>
      <trkpt lat="46.10561" lon="3.80215">
        <ele>776</ele>
        <time>2015-04-12T09:52:35Z</time>
      </trkpt>
      <trkpt lat="46.10558" lon="3.80208">
        <ele>777</ele>
        <time>2015-04-12T09:52:39Z</time>
      </trkpt>
      <trkpt lat="46.10555" lon="3.80202">
        <ele>777</ele>
        <time>2015-04-12T09:52:42Z</time>
      </trkpt>
      <trkpt lat="46.10553" lon="3.80196">
        <ele>777</ele>
        <time>2015-04-12T09:52:45Z</time>
      </trkpt>
      <trkpt lat="46.10551" lon="3.8019">
        <ele>778</ele>
        <time>2015-04-12T09:52:48Z</time>
      </trkpt>
      <trkpt lat="46.10548" lon="3.80183">
        <ele>778</ele>
        <time>2015-04-12T09:52:52Z</time>
      </trkpt>
      <trkpt lat="46.10545" lon="3.80175">
        <ele>779</ele>
        <time>2015-04-12T09:52:56Z</time>
      </trkpt>
      <trkpt lat="46.10542" lon="3.8017">
        <ele>779</ele>
        <time>2015-04-12T09:52:59Z</time>
      </trkpt>
      <trkpt lat="46.1054" lon="3.80164">
        <ele>784</ele>
        <time>2015-04-12T09:53:02Z</time>
      </trkpt>
      <trkpt lat="46.10536" lon="3.80157">
        <ele>785</ele>
        <time>2015-04-12T09:53:06Z</time>
      </trkpt>
      <trkpt lat="46.10533" lon="3.80151">
        <ele>786</ele>
        <time>2015-04-12T09:53:10Z</time>
      </trkpt>
      <trkpt lat="46.1053" lon="3.80145">
        <ele>786</ele>
        <time>2015-04-12T09:53:14Z</time>
      </trkpt>
      <trkpt lat="46.10526" lon="3.80139">
        <ele>787</ele>
        <time>2015-04-12T09:53:17Z</time>
      </trkpt>
      <trkpt lat="46.10524" lon="3.80133">
        <ele>787</ele>
        <time>2015-04-12T09:53:21Z</time>
      </trkpt>
      <trkpt lat="46.10504" lon="3.80089">
        <ele>796</ele>
        <time>2015-04-12T09:53:49Z</time>
      </trkpt>
      <trkpt lat="46.10503" lon="3.80082">
        <ele>799</ele>
        <time>2015-04-12T09:53:53Z</time>
      </trkpt>
      <trkpt lat="46.10498" lon="3.8003">
        <ele>809</ele>
        <time>2015-04-12T09:54:23Z</time>
      </trkpt>
      <trkpt lat="46.10498" lon="3.80016">
        <ele>808</ele>
        <time>2015-04-12T09:54:31Z</time>
      </trkpt>
      <trkpt lat="46.10497" lon="3.80007">
        <ele>808</ele>
        <time>2015-04-12T09:54:34Z</time>
      </trkpt>
      <trkpt lat="46.10491" lon="3.79983">
        <ele>811</ele>
        <time>2015-04-12T09:54:46Z</time>
      </trkpt>
      <trkpt lat="46.10484" lon="3.79964">
        <ele>813</ele>
        <time>2015-04-12T09:54:57Z</time>
      </trkpt>
      <trkpt lat="46.10481" lon="3.79959">
        <ele>813</ele>
        <time>2015-04-12T09:55:00Z</time>
      </trkpt>
      <trkpt lat="46.10473" lon="3.79946">
        <ele>813</ele>
        <time>2015-04-12T09:55:10Z</time>
      </trkpt>
      <trkpt lat="46.10468" lon="3.79941">
        <ele>814</ele>
        <time>2015-04-12T09:55:13Z</time>
      </trkpt>
      <trkpt lat="46.10464" lon="3.79937">
        <ele>815</ele>
        <time>2015-04-12T09:55:16Z</time>
      </trkpt>
      <trkpt lat="46.1046" lon="3.79932">
        <ele>815</ele>
        <time>2015-04-12T09:55:19Z</time>
      </trkpt>
      <trkpt lat="46.10448" lon="3.79906">
        <ele>818</ele>
        <time>2015-04-12T09:55:35Z</time>
      </trkpt>
      <trkpt lat="46.10445" lon="3.799">
        <ele>818</ele>
        <time>2015-04-12T09:55:38Z</time>
      </trkpt>
      <trkpt lat="46.1044" lon="3.79895">
        <ele>819</ele>
        <time>2015-04-12T09:55:40Z</time>
      </trkpt>
      <trkpt lat="46.10437" lon="3.79891">
        <ele>819</ele>
        <time>2015-04-12T09:55:42Z</time>
      </trkpt>
      <trkpt lat="46.10433" lon="3.79887">
        <ele>819</ele>
        <time>2015-04-12T09:55:44Z</time>
      </trkpt>
      <trkpt lat="46.1043" lon="3.79881">
        <ele>819</ele>
        <time>2015-04-12T09:55:47Z</time>
      </trkpt>
      <trkpt lat="46.10427" lon="3.79875">
        <ele>819</ele>
        <time>2015-04-12T09:55:50Z</time>
      </trkpt>
      <trkpt lat="46.10424" lon="3.79863">
        <ele>820</ele>
        <time>2015-04-12T09:55:57Z</time>
      </trkpt>
      <trkpt lat="46.10426" lon="3.79854">
        <ele>820</ele>
        <time>2015-04-12T09:56:00Z</time>
      </trkpt>
      <trkpt lat="46.10426" lon="3.79846">
        <ele>821</ele>
        <time>2015-04-12T09:56:03Z</time>
      </trkpt>
      <trkpt lat="46.10428" lon="3.79835">
        <ele>822</ele>
        <time>2015-04-12T09:56:05Z</time>
      </trkpt>
      <trkpt lat="46.1043" lon="3.79823">
        <ele>822</ele>
        <time>2015-04-12T09:56:07Z</time>
      </trkpt>
      <trkpt lat="46.10431" lon="3.79816">
        <ele>821</ele>
        <time>2015-04-12T09:56:08Z</time>
      </trkpt>
      <trkpt lat="46.10432" lon="3.7981">
        <ele>821</ele>
        <time>2015-04-12T09:56:09Z</time>
      </trkpt>
      <trkpt lat="46.10433" lon="3.79803">
        <ele>821</ele>
        <time>2015-04-12T09:56:10Z</time>
      </trkpt>
      <trkpt lat="46.10434" lon="3.79796">
        <ele>821</ele>
        <time>2015-04-12T09:56:11Z</time>
      </trkpt>
      <trkpt lat="46.10436" lon="3.79789">
        <ele>821</ele>
        <time>2015-04-12T09:56:12Z</time>
      </trkpt>
      <trkpt lat="46.10438" lon="3.79783">
        <ele>821</ele>
        <time>2015-04-12T09:56:13Z</time>
      </trkpt>
      <trkpt lat="46.10441" lon="3.79777">
        <ele>821</ele>
        <time>2015-04-12T09:56:14Z</time>
      </trkpt>
      <trkpt lat="46.10444" lon="3.79772">
        <ele>821</ele>
        <time>2015-04-12T09:56:15Z</time>
      </trkpt>
      <trkpt lat="46.10451" lon="3.79763">
        <ele>820</ele>
        <time>2015-04-12T09:56:17Z</time>
      </trkpt>
      <trkpt lat="46.10456" lon="3.79759">
        <ele>820</ele>
        <time>2015-04-12T09:56:19Z</time>
      </trkpt>
      <trkpt lat="46.1046" lon="3.79758">
        <ele>820</ele>
        <time>2015-04-12T09:56:22Z</time>
      </trkpt>
      <trkpt lat="46.10466" lon="3.79754">
        <ele>820</ele>
        <time>2015-04-12T09:56:26Z</time>
      </trkpt>
      <trkpt lat="46.10471" lon="3.79749">
        <ele>822</ele>
        <time>2015-04-12T09:56:29Z</time>
      </trkpt>
      <trkpt lat="46.10477" lon="3.79747">
        <ele>822</ele>
        <time>2015-04-12T09:56:31Z</time>
      </trkpt>
      <trkpt lat="46.10483" lon="3.79748">
        <ele>821</ele>
        <time>2015-04-12T09:56:33Z</time>
      </trkpt>
      <trkpt lat="46.10488" lon="3.79748">
        <ele>820</ele>
        <time>2015-04-12T09:56:35Z</time>
      </trkpt>
      <trkpt lat="46.10493" lon="3.79746">
        <ele>820</ele>
        <time>2015-04-12T09:56:37Z</time>
      </trkpt>
      <trkpt lat="46.10497" lon="3.79745">
        <ele>819</ele>
        <time>2015-04-12T09:56:40Z</time>
      </trkpt>
      <trkpt lat="46.10502" lon="3.79746">
        <ele>819</ele>
        <time>2015-04-12T09:56:42Z</time>
      </trkpt>
      <trkpt lat="46.10508" lon="3.79748">
        <ele>819</ele>
        <time>2015-04-12T09:56:44Z</time>
      </trkpt>
      <trkpt lat="46.10514" lon="3.79745">
        <ele>820</ele>
        <time>2015-04-12T09:56:46Z</time>
      </trkpt>
      <trkpt lat="46.1052" lon="3.7974">
        <ele>821</ele>
        <time>2015-04-12T09:56:49Z</time>
      </trkpt>
      <trkpt lat="46.10524" lon="3.79738">
        <ele>821</ele>
        <time>2015-04-12T09:56:51Z</time>
      </trkpt>
      <trkpt lat="46.1053" lon="3.79735">
        <ele>822</ele>
        <time>2015-04-12T09:56:55Z</time>
      </trkpt>
      <trkpt lat="46.10534" lon="3.79729">
        <ele>822</ele>
        <time>2015-04-12T09:56:58Z</time>
      </trkpt>
      <trkpt lat="46.10538" lon="3.79723">
        <ele>822</ele>
        <time>2015-04-12T09:57:00Z</time>
      </trkpt>
      <trkpt lat="46.10542" lon="3.79718">
        <ele>823</ele>
        <time>2015-04-12T09:57:02Z</time>
      </trkpt>
      <trkpt lat="46.10545" lon="3.79713">
        <ele>823</ele>
        <time>2015-04-12T09:57:04Z</time>
      </trkpt>
      <trkpt lat="46.10549" lon="3.79708">
        <ele>823</ele>
        <time>2015-04-12T09:57:07Z</time>
      </trkpt>
      <trkpt lat="46.10553" lon="3.79703">
        <ele>823</ele>
        <time>2015-04-12T09:57:11Z</time>
      </trkpt>
      <trkpt lat="46.10557" lon="3.79697">
        <ele>824</ele>
        <time>2015-04-12T09:57:14Z</time>
      </trkpt>
      <trkpt lat="46.10561" lon="3.79692">
        <ele>824</ele>
        <time>2015-04-12T09:57:17Z</time>
      </trkpt>
      <trkpt lat="46.10564" lon="3.79685">
        <ele>824</ele>
        <time>2015-04-12T09:57:20Z</time>
      </trkpt>
      <trkpt lat="46.10567" lon="3.79679">
        <ele>824</ele>
        <time>2015-04-12T09:57:23Z</time>
      </trkpt>
      <trkpt lat="46.1057" lon="3.79674">
        <ele>825</ele>
        <time>2015-04-12T09:57:26Z</time>
      </trkpt>
      <trkpt lat="46.10574" lon="3.79668">
        <ele>825</ele>
        <time>2015-04-12T09:57:30Z</time>
      </trkpt>
      <trkpt lat="46.10578" lon="3.79662">
        <ele>827</ele>
        <time>2015-04-12T09:57:34Z</time>
      </trkpt>
      <trkpt lat="46.10581" lon="3.79657">
        <ele>828</ele>
        <time>2015-04-12T09:57:37Z</time>
      </trkpt>
      <trkpt lat="46.10584" lon="3.7965">
        <ele>828</ele>
        <time>2015-04-12T09:57:41Z</time>
      </trkpt>
      <trkpt lat="46.10586" lon="3.79644">
        <ele>829</ele>
        <time>2015-04-12T09:57:44Z</time>
      </trkpt>
      <trkpt lat="46.10589" lon="3.79637">
        <ele>830</ele>
        <time>2015-04-12T09:57:48Z</time>
      </trkpt>
      <trkpt lat="46.10591" lon="3.79632">
        <ele>830</ele>
        <time>2015-04-12T09:57:51Z</time>
      </trkpt>
      <trkpt lat="46.10593" lon="3.79626">
        <ele>831</ele>
        <time>2015-04-12T09:57:54Z</time>
      </trkpt>
      <trkpt lat="46.10595" lon="3.7962">
        <ele>831</ele>
        <time>2015-04-12T09:57:57Z</time>
      </trkpt>
      <trkpt lat="46.10597" lon="3.79611">
        <ele>832</ele>
        <time>2015-04-12T09:58:01Z</time>
      </trkpt>
      <trkpt lat="46.10599" lon="3.79604">
        <ele>833</ele>
        <time>2015-04-12T09:58:04Z</time>
      </trkpt>
      <trkpt lat="46.106" lon="3.79598">
        <ele>833</ele>
        <time>2015-04-12T09:58:07Z</time>
      </trkpt>
      <trkpt lat="46.10601" lon="3.79589">
        <ele>834</ele>
        <time>2015-04-12T09:58:11Z</time>
      </trkpt>
      <trkpt lat="46.10601" lon="3.79581">
        <ele>838</ele>
        <time>2015-04-12T09:58:14Z</time>
      </trkpt>
      <trkpt lat="46.106" lon="3.79574">
        <ele>838</ele>
        <time>2015-04-12T09:58:17Z</time>
      </trkpt>
      <trkpt lat="46.10598" lon="3.79565">
        <ele>839</ele>
        <time>2015-04-12T09:58:21Z</time>
      </trkpt>
      <trkpt lat="46.10596" lon="3.7956">
        <ele>839</ele>
        <time>2015-04-12T09:58:24Z</time>
      </trkpt>
      <trkpt lat="46.10593" lon="3.79554">
        <ele>839</ele>
        <time>2015-04-12T09:58:28Z</time>
      </trkpt>
      <trkpt lat="46.1059" lon="3.79548">
        <ele>840</ele>
        <time>2015-04-12T09:58:31Z</time>
      </trkpt>
      <trkpt lat="46.10586" lon="3.79542">
        <ele>840</ele>
        <time>2015-04-12T09:58:35Z</time>
      </trkpt>
      <trkpt lat="46.10582" lon="3.79536">
        <ele>841</ele>
        <time>2015-04-12T09:58:39Z</time>
      </trkpt>
      <trkpt lat="46.10561" lon="3.79494">
        <ele>847</ele>
        <time>2015-04-12T09:59:08Z</time>
      </trkpt>
      <trkpt lat="46.10556" lon="3.79486">
        <ele>847</ele>
        <time>2015-04-12T09:59:14Z</time>
      </trkpt>
      <trkpt lat="46.10552" lon="3.79482">
        <ele>848</ele>
        <time>2015-04-12T09:59:17Z</time>
      </trkpt>
      <trkpt lat="46.1054" lon="3.79471">
        <ele>848</ele>
        <time>2015-04-12T09:59:26Z</time>
      </trkpt>
      <trkpt lat="46.10536" lon="3.79465">
        <ele>848</ele>
        <time>2015-04-12T09:59:30Z</time>
      </trkpt>
      <trkpt lat="46.10532" lon="3.7946">
        <ele>849</ele>
        <time>2015-04-12T09:59:34Z</time>
      </trkpt>
      <trkpt lat="46.10524" lon="3.79454">
        <ele>849</ele>
        <time>2015-04-12T09:59:40Z</time>
      </trkpt>
      <trkpt lat="46.1052" lon="3.79449">
        <ele>849</ele>
        <time>2015-04-12T09:59:43Z</time>
      </trkpt>
      <trkpt lat="46.10514" lon="3.79441">
        <ele>850</ele>
        <time>2015-04-12T09:59:48Z</time>
      </trkpt>
      <trkpt lat="46.10512" lon="3.79432">
        <ele>851</ele>
        <time>2015-04-12T09:59:51Z</time>
      </trkpt>
      <trkpt lat="46.10511" lon="3.79423">
        <ele>852</ele>
        <time>2015-04-12T09:59:54Z</time>
      </trkpt>
      <trkpt lat="46.1051" lon="3.79414">
        <ele>855</ele>
        <time>2015-04-12T09:59:57Z</time>
      </trkpt>
      <trkpt lat="46.10509" lon="3.79408">
        <ele>855</ele>
        <time>2015-04-12T09:59:59Z</time>
      </trkpt>
      <trkpt lat="46.10509" lon="3.794">
        <ele>855</ele>
        <time>2015-04-12T10:00:01Z</time>
      </trkpt>
      <trkpt lat="46.10509" lon="3.79393">
        <ele>856</ele>
        <time>2015-04-12T10:00:03Z</time>
      </trkpt>
      <trkpt lat="46.10508" lon="3.79386">
        <ele>856</ele>
        <time>2015-04-12T10:00:05Z</time>
      </trkpt>
      <trkpt lat="46.10508" lon="3.79379">
        <ele>857</ele>
        <time>2015-04-12T10:00:07Z</time>
      </trkpt>
      <trkpt lat="46.10507" lon="3.79369">
        <ele>858</ele>
        <time>2015-04-12T10:00:10Z</time>
      </trkpt>
      <trkpt lat="46.10507" lon="3.79361">
        <ele>858</ele>
        <time>2015-04-12T10:00:12Z</time>
      </trkpt>
      <trkpt lat="46.10506" lon="3.79354">
        <ele>859</ele>
        <time>2015-04-12T10:00:14Z</time>
      </trkpt>
      <trkpt lat="46.10506" lon="3.79347">
        <ele>860</ele>
        <time>2015-04-12T10:00:16Z</time>
      </trkpt>
      <trkpt lat="46.10505" lon="3.7934">
        <ele>861</ele>
        <time>2015-04-12T10:00:18Z</time>
      </trkpt>
      <trkpt lat="46.10503" lon="3.79332">
        <ele>863</ele>
        <time>2015-04-12T10:00:20Z</time>
      </trkpt>
      <trkpt lat="46.10502" lon="3.79325">
        <ele>862</ele>
        <time>2015-04-12T10:00:22Z</time>
      </trkpt>
      <trkpt lat="46.10501" lon="3.79318">
        <ele>862</ele>
        <time>2015-04-12T10:00:24Z</time>
      </trkpt>
      <trkpt lat="46.10501" lon="3.79309">
        <ele>861</ele>
        <time>2015-04-12T10:00:27Z</time>
      </trkpt>
      <trkpt lat="46.105" lon="3.79301">
        <ele>865</ele>
        <time>2015-04-12T10:00:30Z</time>
      </trkpt>
      <trkpt lat="46.10497" lon="3.79294">
        <ele>865</ele>
        <time>2015-04-12T10:00:33Z</time>
      </trkpt>
      <trkpt lat="46.10495" lon="3.79286">
        <ele>865</ele>
        <time>2015-04-12T10:00:36Z</time>
      </trkpt>
      <trkpt lat="46.10493" lon="3.79277">
        <ele>865</ele>
        <time>2015-04-12T10:00:39Z</time>
      </trkpt>
      <trkpt lat="46.10491" lon="3.79268">
        <ele>865</ele>
        <time>2015-04-12T10:00:41Z</time>
      </trkpt>
      <trkpt lat="46.10489" lon="3.79261">
        <ele>865</ele>
        <time>2015-04-12T10:00:43Z</time>
      </trkpt>
      <trkpt lat="46.10488" lon="3.79254">
        <ele>865</ele>
        <time>2015-04-12T10:00:45Z</time>
      </trkpt>
      <trkpt lat="46.10488" lon="3.79247">
        <ele>864</ele>
        <time>2015-04-12T10:00:47Z</time>
      </trkpt>
      <trkpt lat="46.10485" lon="3.79241">
        <ele>864</ele>
        <time>2015-04-12T10:00:49Z</time>
      </trkpt>
      <trkpt lat="46.10483" lon="3.79233">
        <ele>864</ele>
        <time>2015-04-12T10:00:51Z</time>
      </trkpt>
      <trkpt lat="46.10481" lon="3.79226">
        <ele>863</ele>
        <time>2015-04-12T10:00:53Z</time>
      </trkpt>
      <trkpt lat="46.1048" lon="3.7922">
        <ele>863</ele>
        <time>2015-04-12T10:00:55Z</time>
      </trkpt>
      <trkpt lat="46.10478" lon="3.79212">
        <ele>863</ele>
        <time>2015-04-12T10:00:57Z</time>
      </trkpt>
      <trkpt lat="46.10476" lon="3.79203">
        <ele>862</ele>
        <time>2015-04-12T10:00:59Z</time>
      </trkpt>
      <trkpt lat="46.10473" lon="3.79196">
        <ele>862</ele>
        <time>2015-04-12T10:01:00Z</time>
      </trkpt>
      <trkpt lat="46.10469" lon="3.7919">
        <ele>862</ele>
        <time>2015-04-12T10:01:01Z</time>
      </trkpt>
      <trkpt lat="46.10466" lon="3.79183">
        <ele>862</ele>
        <time>2015-04-12T10:01:02Z</time>
      </trkpt>
      <trkpt lat="46.10463" lon="3.79176">
        <ele>862</ele>
        <time>2015-04-12T10:01:03Z</time>
      </trkpt>
      <trkpt lat="46.10459" lon="3.79168">
        <ele>862</ele>
        <time>2015-04-12T10:01:05Z</time>
      </trkpt>
      <trkpt lat="46.10455" lon="3.7916">
        <ele>857</ele>
        <time>2015-04-12T10:01:07Z</time>
      </trkpt>
      <trkpt lat="46.10452" lon="3.79151">
        <ele>857</ele>
        <time>2015-04-12T10:01:09Z</time>
      </trkpt>
      <trkpt lat="46.1045" lon="3.79145">
        <ele>857</ele>
        <time>2015-04-12T10:01:11Z</time>
      </trkpt>
      <trkpt lat="46.10447" lon="3.79138">
        <ele>856</ele>
        <time>2015-04-12T10:01:13Z</time>
      </trkpt>
      <trkpt lat="46.10443" lon="3.79129">
        <ele>856</ele>
        <time>2015-04-12T10:01:15Z</time>
      </trkpt>
      <trkpt lat="46.10439" lon="3.79122">
        <ele>856</ele>
        <time>2015-04-12T10:01:16Z</time>
      </trkpt>
      <trkpt lat="46.10436" lon="3.79113">
        <ele>856</ele>
        <time>2015-04-12T10:01:18Z</time>
      </trkpt>
      <trkpt lat="46.10436" lon="3.79102">
        <ele>855</ele>
        <time>2015-04-12T10:01:20Z</time>
      </trkpt>
      <trkpt lat="46.10431" lon="3.7909">
        <ele>855</ele>
        <time>2015-04-12T10:01:22Z</time>
      </trkpt>
      <trkpt lat="46.10425" lon="3.79081">
        <ele>853</ele>
        <time>2015-04-12T10:01:24Z</time>
      </trkpt>
      <trkpt lat="46.10422" lon="3.79077">
        <ele>853</ele>
        <time>2015-04-12T10:01:25Z</time>
      </trkpt>
      <trkpt lat="46.10419" lon="3.79069">
        <ele>852</ele>
        <time>2015-04-12T10:01:27Z</time>
      </trkpt>
      <trkpt lat="46.10416" lon="3.79062">
        <ele>856</ele>
        <time>2015-04-12T10:01:29Z</time>
      </trkpt>
      <trkpt lat="46.10412" lon="3.79054">
        <ele>855</ele>
        <time>2015-04-12T10:01:31Z</time>
      </trkpt>
      <trkpt lat="46.10406" lon="3.79046">
        <ele>855</ele>
        <time>2015-04-12T10:01:33Z</time>
      </trkpt>
      <trkpt lat="46.10401" lon="3.79039">
        <ele>855</ele>
        <time>2015-04-12T10:01:35Z</time>
      </trkpt>
      <trkpt lat="46.10397" lon="3.79033">
        <ele>854</ele>
        <time>2015-04-12T10:01:37Z</time>
      </trkpt>
      <trkpt lat="46.10394" lon="3.79026">
        <ele>854</ele>
        <time>2015-04-12T10:01:39Z</time>
      </trkpt>
      <trkpt lat="46.10391" lon="3.79018">
        <ele>854</ele>
        <time>2015-04-12T10:01:41Z</time>
      </trkpt>
      <trkpt lat="46.10387" lon="3.79012">
        <ele>854</ele>
        <time>2015-04-12T10:01:43Z</time>
      </trkpt>
      <trkpt lat="46.10382" lon="3.79007">
        <ele>854</ele>
        <time>2015-04-12T10:01:45Z</time>
      </trkpt>
      <trkpt lat="46.10379" lon="3.79002">
        <ele>854</ele>
        <time>2015-04-12T10:01:47Z</time>
      </trkpt>
      <trkpt lat="46.10374" lon="3.78996">
        <ele>850</ele>
        <time>2015-04-12T10:01:50Z</time>
      </trkpt>
      <trkpt lat="46.10369" lon="3.78992">
        <ele>850</ele>
        <time>2015-04-12T10:01:53Z</time>
      </trkpt>
      <trkpt lat="46.10365" lon="3.78988">
        <ele>850</ele>
        <time>2015-04-12T10:01:55Z</time>
      </trkpt>
      <trkpt lat="46.10359" lon="3.78985">
        <ele>850</ele>
        <time>2015-04-12T10:01:57Z</time>
      </trkpt>
      <trkpt lat="46.10352" lon="3.7898">
        <ele>851</ele>
        <time>2015-04-12T10:01:59Z</time>
      </trkpt>
      <trkpt lat="46.10346" lon="3.78974">
        <ele>851</ele>
        <time>2015-04-12T10:02:01Z</time>
      </trkpt>
      <trkpt lat="46.1034" lon="3.78968">
        <ele>850</ele>
        <time>2015-04-12T10:02:03Z</time>
      </trkpt>
      <trkpt lat="46.10333" lon="3.78962">
        <ele>852</ele>
        <time>2015-04-12T10:02:05Z</time>
      </trkpt>
      <trkpt lat="46.10326" lon="3.78956">
        <ele>852</ele>
        <time>2015-04-12T10:02:07Z</time>
      </trkpt>
      <trkpt lat="46.1032" lon="3.78951">
        <ele>851</ele>
        <time>2015-04-12T10:02:09Z</time>
      </trkpt>
      <trkpt lat="46.10313" lon="3.78947">
        <ele>851</ele>
        <time>2015-04-12T10:02:11Z</time>
      </trkpt>
      <trkpt lat="46.10305" lon="3.78944">
        <ele>851</ele>
        <time>2015-04-12T10:02:13Z</time>
      </trkpt>
      <trkpt lat="46.10298" lon="3.7894">
        <ele>851</ele>
        <time>2015-04-12T10:02:15Z</time>
      </trkpt>
      <trkpt lat="46.1029" lon="3.78937">
        <ele>851</ele>
        <time>2015-04-12T10:02:17Z</time>
      </trkpt>
      <trkpt lat="46.10281" lon="3.78934">
        <ele>851</ele>
        <time>2015-04-12T10:02:19Z</time>
      </trkpt>
      <trkpt lat="46.10277" lon="3.78933">
        <ele>851</ele>
        <time>2015-04-12T10:02:20Z</time>
      </trkpt>
      <trkpt lat="46.10269" lon="3.78931">
        <ele>851</ele>
        <time>2015-04-12T10:02:22Z</time>
      </trkpt>
      <trkpt lat="46.10267" lon="3.78948">
        <ele>852</ele>
        <time>2015-04-12T10:02:35Z</time>
      </trkpt>
      <trkpt lat="46.10266" lon="3.78956">
        <ele>852</ele>
        <time>2015-04-12T10:02:38Z</time>
      </trkpt>
      <trkpt lat="46.10265" lon="3.78966">
        <ele>853</ele>
        <time>2015-04-12T10:02:41Z</time>
      </trkpt>
      <trkpt lat="46.10264" lon="3.78975">
        <ele>853</ele>
        <time>2015-04-12T10:02:44Z</time>
      </trkpt>
      <trkpt lat="46.10263" lon="3.78983">
        <ele>854</ele>
        <time>2015-04-12T10:02:47Z</time>
      </trkpt>
      <trkpt lat="46.10262" lon="3.78991">
        <ele>854</ele>
        <time>2015-04-12T10:02:50Z</time>
      </trkpt>
      <trkpt lat="46.10261" lon="3.78998">
        <ele>855</ele>
        <time>2015-04-12T10:02:54Z</time>
      </trkpt>
      <trkpt lat="46.10244" lon="3.79044">
        <ele>867</ele>
        <time>2015-04-12T10:04:10Z</time>
      </trkpt>
      <trkpt lat="46.1024" lon="3.79059">
        <ele>868</ele>
        <time>2015-04-12T10:04:19Z</time>
      </trkpt>
      <trkpt lat="46.10237" lon="3.79067">
        <ele>868</ele>
        <time>2015-04-12T10:04:22Z</time>
      </trkpt>
      <trkpt lat="46.10235" lon="3.79074">
        <ele>868</ele>
        <time>2015-04-12T10:04:25Z</time>
      </trkpt>
      <trkpt lat="46.10233" lon="3.79083">
        <ele>868</ele>
        <time>2015-04-12T10:04:29Z</time>
      </trkpt>
      <trkpt lat="46.10233" lon="3.7909">
        <ele>873</ele>
        <time>2015-04-12T10:04:32Z</time>
      </trkpt>
      <trkpt lat="46.10233" lon="3.79103">
        <ele>874</ele>
        <time>2015-04-12T10:04:39Z</time>
      </trkpt>
      <trkpt lat="46.10234" lon="3.79111">
        <ele>875</ele>
        <time>2015-04-12T10:04:43Z</time>
      </trkpt>
      <trkpt lat="46.10235" lon="3.7912">
        <ele>876</ele>
        <time>2015-04-12T10:04:47Z</time>
      </trkpt>
      <trkpt lat="46.10236" lon="3.79128">
        <ele>876</ele>
        <time>2015-04-12T10:04:51Z</time>
      </trkpt>
      <trkpt lat="46.10236" lon="3.79134">
        <ele>876</ele>
        <time>2015-04-12T10:04:54Z</time>
      </trkpt>
      <trkpt lat="46.10237" lon="3.79141">
        <ele>876</ele>
        <time>2015-04-12T10:04:57Z</time>
      </trkpt>
      <trkpt lat="46.10238" lon="3.79147">
        <ele>876</ele>
        <time>2015-04-12T10:05:00Z</time>
      </trkpt>
      <trkpt lat="46.10237" lon="3.79154">
        <ele>876</ele>
        <time>2015-04-12T10:05:03Z</time>
      </trkpt>
      <trkpt lat="46.10237" lon="3.79162">
        <ele>876</ele>
        <time>2015-04-12T10:05:07Z</time>
      </trkpt>
      <trkpt lat="46.10237" lon="3.79169">
        <ele>879</ele>
        <time>2015-04-12T10:05:11Z</time>
      </trkpt>
      <trkpt lat="46.10236" lon="3.7918">
        <ele>880</ele>
        <time>2015-04-12T10:05:18Z</time>
      </trkpt>
      <trkpt lat="46.10233" lon="3.79187">
        <ele>882</ele>
        <time>2015-04-12T10:05:22Z</time>
      </trkpt>
      <trkpt lat="46.1022" lon="3.79235">
        <ele>885</ele>
        <time>2015-04-12T10:05:58Z</time>
      </trkpt>
      <trkpt lat="46.10197" lon="3.79277">
        <ele>891</ele>
        <time>2015-04-12T10:07:00Z</time>
      </trkpt>
      <trkpt lat="46.10182" lon="3.79294">
        <ele>892</ele>
        <time>2015-04-12T10:07:15Z</time>
      </trkpt>
      <trkpt lat="46.10177" lon="3.79296">
        <ele>893</ele>
        <time>2015-04-12T10:07:19Z</time>
      </trkpt>
      <trkpt lat="46.10159" lon="3.79324">
        <ele>902</ele>
        <time>2015-04-12T10:07:51Z</time>
      </trkpt>
      <trkpt lat="46.10154" lon="3.79327">
        <ele>902</ele>
        <time>2015-04-12T10:07:54Z</time>
      </trkpt>
      <trkpt lat="46.10146" lon="3.79331">
        <ele>903</ele>
        <time>2015-04-12T10:08:00Z</time>
      </trkpt>
      <trkpt lat="46.10141" lon="3.7933">
        <ele>904</ele>
        <time>2015-04-12T10:08:03Z</time>
      </trkpt>
      <trkpt lat="46.10135" lon="3.79332">
        <ele>905</ele>
        <time>2015-04-12T10:08:08Z</time>
      </trkpt>
      <trkpt lat="46.10131" lon="3.79335">
        <ele>903</ele>
        <time>2015-04-12T10:08:11Z</time>
      </trkpt>
      <trkpt lat="46.10102" lon="3.79355">
        <ele>906</ele>
        <time>2015-04-12T10:08:51Z</time>
      </trkpt>
      <trkpt lat="46.10093" lon="3.79355">
        <ele>907</ele>
        <time>2015-04-12T10:08:58Z</time>
      </trkpt>
      <trkpt lat="46.10084" lon="3.79355">
        <ele>907</ele>
        <time>2015-04-12T10:09:04Z</time>
      </trkpt>
      <trkpt lat="46.10078" lon="3.79355">
        <ele>915</ele>
        <time>2015-04-12T10:09:07Z</time>
      </trkpt>
      <trkpt lat="46.10073" lon="3.79353">
        <ele>916</ele>
        <time>2015-04-12T10:09:10Z</time>
      </trkpt>
      <trkpt lat="46.10068" lon="3.79353">
        <ele>916</ele>
        <time>2015-04-12T10:09:14Z</time>
      </trkpt>
      <trkpt lat="46.10062" lon="3.79351">
        <ele>917</ele>
        <time>2015-04-12T10:09:18Z</time>
      </trkpt>
      <trkpt lat="46.10056" lon="3.79349">
        <ele>917</ele>
        <time>2015-04-12T10:09:22Z</time>
      </trkpt>
      <trkpt lat="46.10051" lon="3.79349">
        <ele>918</ele>
        <time>2015-04-12T10:09:25Z</time>
      </trkpt>
      <trkpt lat="46.10011" lon="3.79361">
        <ele>922</ele>
        <time>2015-04-12T10:10:33Z</time>
      </trkpt>
      <trkpt lat="46.09975" lon="3.79378">
        <ele>935</ele>
        <time>2015-04-12T10:11:16Z</time>
      </trkpt>
      <trkpt lat="46.09971" lon="3.79381">
        <ele>935</ele>
        <time>2015-04-12T10:11:19Z</time>
      </trkpt>
      <trkpt lat="46.0996" lon="3.79389">
        <ele>936</ele>
        <time>2015-04-12T10:11:27Z</time>
      </trkpt>
      <trkpt lat="46.09953" lon="3.79392">
        <ele>937</ele>
        <time>2015-04-12T10:11:30Z</time>
      </trkpt>
      <trkpt lat="46.09946" lon="3.79393">
        <ele>938</ele>
        <time>2015-04-12T10:11:34Z</time>
      </trkpt>
      <trkpt lat="46.09941" lon="3.79394">
        <ele>939</ele>
        <time>2015-04-12T10:11:37Z</time>
      </trkpt>
      <trkpt lat="46.09931" lon="3.79399">
        <ele>940</ele>
        <time>2015-04-12T10:11:43Z</time>
      </trkpt>
      <trkpt lat="46.09926" lon="3.79401">
        <ele>940</ele>
        <time>2015-04-12T10:11:46Z</time>
      </trkpt>
      <trkpt lat="46.09921" lon="3.79403">
        <ele>941</ele>
        <time>2015-04-12T10:11:49Z</time>
      </trkpt>
      <trkpt lat="46.09916" lon="3.79406">
        <ele>948</ele>
        <time>2015-04-12T10:11:52Z</time>
      </trkpt>
      <trkpt lat="46.09912" lon="3.79409">
        <ele>947</ele>
        <time>2015-04-12T10:11:55Z</time>
      </trkpt>
      <trkpt lat="46.09907" lon="3.7941">
        <ele>948</ele>
        <time>2015-04-12T10:11:58Z</time>
      </trkpt>
      <trkpt lat="46.09902" lon="3.79413">
        <ele>949</ele>
        <time>2015-04-12T10:12:01Z</time>
      </trkpt>
      <trkpt lat="46.09882" lon="3.79421">
        <ele>950</ele>
        <time>2015-04-12T10:12:16Z</time>
      </trkpt>
      <trkpt lat="46.09863" lon="3.79458">
        <ele>952</ele>
        <time>2015-04-12T10:12:54Z</time>
      </trkpt>
      <trkpt lat="46.09865" lon="3.79515">
        <ele>956</ele>
        <time>2015-04-12T10:14:05Z</time>
      </trkpt>
      <trkpt lat="46.09867" lon="3.79547">
        <ele>957</ele>
        <time>2015-04-12T10:14:41Z</time>
      </trkpt>
      <trkpt lat="46.09869" lon="3.7956">
        <ele>958</ele>
        <time>2015-04-12T10:15:08Z</time>
      </trkpt>
      <trkpt lat="46.09873" lon="3.79568">
        <ele>958</ele>
        <time>2015-04-12T10:15:11Z</time>
      </trkpt>
      <trkpt lat="46.09875" lon="3.79575">
        <ele>957</ele>
        <time>2015-04-12T10:15:14Z</time>
      </trkpt>
      <trkpt lat="46.09879" lon="3.79582">
        <ele>957</ele>
        <time>2015-04-12T10:15:17Z</time>
      </trkpt>
      <trkpt lat="46.0988" lon="3.79589">
        <ele>963</ele>
        <time>2015-04-12T10:15:20Z</time>
      </trkpt>
      <trkpt lat="46.09886" lon="3.79603">
        <ele>962</ele>
        <time>2015-04-12T10:15:28Z</time>
      </trkpt>
      <trkpt lat="46.09886" lon="3.79612">
        <ele>963</ele>
        <time>2015-04-12T10:15:33Z</time>
      </trkpt>
      <trkpt lat="46.09886" lon="3.7962">
        <ele>963</ele>
        <time>2015-04-12T10:15:36Z</time>
      </trkpt>
      <trkpt lat="46.09861" lon="3.79623">
        <ele>967</ele>
        <time>2015-04-12T10:16:31Z</time>
      </trkpt>
      <trkpt lat="46.09856" lon="3.79621">
        <ele>968</ele>
        <time>2015-04-12T10:16:35Z</time>
      </trkpt>
      <trkpt lat="46.09852" lon="3.79614">
        <ele>968</ele>
        <time>2015-04-12T10:16:40Z</time>
      </trkpt>
      <trkpt lat="46.09847" lon="3.79609">
        <ele>968</ele>
        <time>2015-04-12T10:16:43Z</time>
      </trkpt>
      <trkpt lat="46.09842" lon="3.79604">
        <ele>969</ele>
        <time>2015-04-12T10:16:46Z</time>
      </trkpt>
      <trkpt lat="46.09838" lon="3.79596">
        <ele>969</ele>
        <time>2015-04-12T10:16:49Z</time>
      </trkpt>
      <trkpt lat="46.09834" lon="3.7959">
        <ele>971</ele>
        <time>2015-04-12T10:16:51Z</time>
      </trkpt>
      <trkpt lat="46.09829" lon="3.79583">
        <ele>972</ele>
        <time>2015-04-12T10:16:53Z</time>
      </trkpt>
      <trkpt lat="46.09826" lon="3.79577">
        <ele>973</ele>
        <time>2015-04-12T10:16:55Z</time>
      </trkpt>
      <trkpt lat="46.09822" lon="3.79572">
        <ele>973</ele>
        <time>2015-04-12T10:16:57Z</time>
      </trkpt>
      <trkpt lat="46.09816" lon="3.79567">
        <ele>974</ele>
        <time>2015-04-12T10:17:00Z</time>
      </trkpt>
      <trkpt lat="46.09811" lon="3.7956">
        <ele>974</ele>
        <time>2015-04-12T10:17:03Z</time>
      </trkpt>
      <trkpt lat="46.09808" lon="3.79555">
        <ele>974</ele>
        <time>2015-04-12T10:17:06Z</time>
      </trkpt>
      <trkpt lat="46.09804" lon="3.79548">
        <ele>974</ele>
        <time>2015-04-12T10:17:09Z</time>
      </trkpt>
      <trkpt lat="46.09801" lon="3.79543">
        <ele>974</ele>
        <time>2015-04-12T10:17:11Z</time>
      </trkpt>
      <trkpt lat="46.09795" lon="3.79539">
        <ele>974</ele>
        <time>2015-04-12T10:17:14Z</time>
      </trkpt>
      <trkpt lat="46.09791" lon="3.79536">
        <ele>975</ele>
        <time>2015-04-12T10:17:17Z</time>
      </trkpt>
      <trkpt lat="46.09753" lon="3.79528">
        <ele>978</ele>
        <time>2015-04-12T10:18:05Z</time>
      </trkpt>
      <trkpt lat="46.09716" lon="3.7952">
        <ele>991</ele>
        <time>2015-04-12T10:18:51Z</time>
      </trkpt>
      <trkpt lat="46.09712" lon="3.7952">
        <ele>992</ele>
        <time>2015-04-12T10:18:54Z</time>
      </trkpt>
      <trkpt lat="46.09706" lon="3.79519">
        <ele>992</ele>
        <time>2015-04-12T10:18:58Z</time>
      </trkpt>
      <trkpt lat="46.09677" lon="3.79522">
        <ele>996</ele>
        <time>2015-04-12T10:19:25Z</time>
      </trkpt>
      <trkpt lat="46.09638" lon="3.7953">
        <ele>1004</ele>
        <time>2015-04-12T10:20:37Z</time>
      </trkpt>
      <trkpt lat="46.09633" lon="3.79532">
        <ele>1004</ele>
        <time>2015-04-12T10:20:40Z</time>
      </trkpt>
      <trkpt lat="46.09629" lon="3.79535">
        <ele>1005</ele>
        <time>2015-04-12T10:20:43Z</time>
      </trkpt>
      <trkpt lat="46.09623" lon="3.79538">
        <ele>1005</ele>
        <time>2015-04-12T10:20:47Z</time>
      </trkpt>
      <trkpt lat="46.09619" lon="3.79541">
        <ele>1005</ele>
        <time>2015-04-12T10:20:50Z</time>
      </trkpt>
      <trkpt lat="46.09614" lon="3.79544">
        <ele>1005</ele>
        <time>2015-04-12T10:20:53Z</time>
      </trkpt>
      <trkpt lat="46.09609" lon="3.79548">
        <ele>1005</ele>
        <time>2015-04-12T10:20:57Z</time>
      </trkpt>
      <trkpt lat="46.09604" lon="3.7955">
        <ele>1006</ele>
        <time>2015-04-12T10:21:00Z</time>
      </trkpt>
      <trkpt lat="46.096" lon="3.79553">
        <ele>1006</ele>
        <time>2015-04-12T10:21:04Z</time>
      </trkpt>
      <trkpt lat="46.09595" lon="3.79557">
        <ele>1006</ele>
        <time>2015-04-12T10:21:08Z</time>
      </trkpt>
      <trkpt lat="46.09596" lon="3.79565">
        <ele>1006</ele>
        <time>2015-04-12T10:21:14Z</time>
      </trkpt>
      <trkpt lat="46.09598" lon="3.79572">
        <ele>1006</ele>
        <time>2015-04-12T10:21:18Z</time>
      </trkpt>
      <trkpt lat="46.09602" lon="3.79588">
        <ele>1008</ele>
        <time>2015-04-12T10:21:26Z</time>
      </trkpt>
      <trkpt lat="46.09605" lon="3.79593">
        <ele>1008</ele>
        <time>2015-04-12T10:21:29Z</time>
      </trkpt>
      <trkpt lat="46.09626" lon="3.79626">
        <ele>1009</ele>
        <time>2015-04-12T10:22:05Z</time>
      </trkpt>
      <trkpt lat="46.09634" lon="3.79682">
        <ele>1013</ele>
        <time>2015-04-12T10:23:12Z</time>
      </trkpt>
      <trkpt lat="46.09663" lon="3.79721">
        <ele>1015</ele>
        <time>2015-04-12T10:24:54Z</time>
      </trkpt>
      <trkpt lat="46.09668" lon="3.79733">
        <ele>1015</ele>
        <time>2015-04-12T10:26:52Z</time>
      </trkpt>
      <trkpt lat="46.09665" lon="3.79742">
        <ele>1017</ele>
        <time>2015-04-12T10:37:42Z</time>
      </trkpt>
      <trkpt lat="46.0967" lon="3.79733">
        <ele>1015</ele>
        <time>2015-04-12T10:38:03Z</time>
      </trkpt>
      <trkpt lat="46.09667" lon="3.79728">
        <ele>1014</ele>
        <time>2015-04-12T10:38:09Z</time>
      </trkpt>
      <trkpt lat="46.09662" lon="3.79726">
        <ele>1016</ele>
        <time>2015-04-12T10:38:44Z</time>
      </trkpt>
      <trkpt lat="46.09659" lon="3.79721">
        <ele>1015</ele>
        <time>2015-04-12T10:38:49Z</time>
      </trkpt>
      <trkpt lat="46.09656" lon="3.79716">
        <ele>1015</ele>
        <time>2015-04-12T10:38:58Z</time>
      </trkpt>
      <trkpt lat="46.09651" lon="3.79714">
        <ele>1015</ele>
        <time>2015-04-12T10:39:02Z</time>
      </trkpt>
      <trkpt lat="46.09645" lon="3.79712">
        <ele>1014</ele>
        <time>2015-04-12T10:39:05Z</time>
      </trkpt>
      <trkpt lat="46.09641" lon="3.7971">
        <ele>1014</ele>
        <time>2015-04-12T10:39:09Z</time>
      </trkpt>
      <trkpt lat="46.09637" lon="3.79704">
        <ele>1014</ele>
        <time>2015-04-12T10:39:20Z</time>
      </trkpt>
      <trkpt lat="46.09637" lon="3.79698">
        <ele>1014</ele>
        <time>2015-04-12T10:39:22Z</time>
      </trkpt>
      <trkpt lat="46.09636" lon="3.79691">
        <ele>1014</ele>
        <time>2015-04-12T10:39:25Z</time>
      </trkpt>
      <trkpt lat="46.09633" lon="3.79686">
        <ele>1013</ele>
        <time>2015-04-12T10:39:28Z</time>
      </trkpt>
      <trkpt lat="46.09631" lon="3.7968">
        <ele>1013</ele>
        <time>2015-04-12T10:39:31Z</time>
      </trkpt>
      <trkpt lat="46.09627" lon="3.79675">
        <ele>1013</ele>
        <time>2015-04-12T10:39:35Z</time>
      </trkpt>
      <trkpt lat="46.09623" lon="3.7967">
        <ele>1013</ele>
        <time>2015-04-12T10:39:38Z</time>
      </trkpt>
      <trkpt lat="46.09621" lon="3.79663">
        <ele>1010</ele>
        <time>2015-04-12T10:39:41Z</time>
      </trkpt>
      <trkpt lat="46.09618" lon="3.79656">
        <ele>1010</ele>
        <time>2015-04-12T10:39:44Z</time>
      </trkpt>
      <trkpt lat="46.09618" lon="3.79648">
        <ele>1009</ele>
        <time>2015-04-12T10:39:47Z</time>
      </trkpt>
      <trkpt lat="46.09615" lon="3.79642">
        <ele>1009</ele>
        <time>2015-04-12T10:39:50Z</time>
      </trkpt>
      <trkpt lat="46.09612" lon="3.79636">
        <ele>1009</ele>
        <time>2015-04-12T10:39:52Z</time>
      </trkpt>
      <trkpt lat="46.0961" lon="3.79629">
        <ele>1009</ele>
        <time>2015-04-12T10:39:55Z</time>
      </trkpt>
      <trkpt lat="46.09608" lon="3.7962">
        <ele>1009</ele>
        <time>2015-04-12T10:39:58Z</time>
      </trkpt>
      <trkpt lat="46.09606" lon="3.79614">
        <ele>1009</ele>
        <time>2015-04-12T10:40:03Z</time>
      </trkpt>
      <trkpt lat="46.09606" lon="3.79607">
        <ele>1008</ele>
        <time>2015-04-12T10:40:05Z</time>
      </trkpt>
      <trkpt lat="46.09605" lon="3.79599">
        <ele>1008</ele>
        <time>2015-04-12T10:40:07Z</time>
      </trkpt>
      <trkpt lat="46.09604" lon="3.7959">
        <ele>1008</ele>
        <time>2015-04-12T10:40:09Z</time>
      </trkpt>
      <trkpt lat="46.09601" lon="3.79578">
        <ele>1006</ele>
        <time>2015-04-12T10:40:11Z</time>
      </trkpt>
      <trkpt lat="46.09596" lon="3.79572">
        <ele>1006</ele>
        <time>2015-04-12T10:40:13Z</time>
      </trkpt>
      <trkpt lat="46.09591" lon="3.79567">
        <ele>1006</ele>
        <time>2015-04-12T10:40:16Z</time>
      </trkpt>
      <trkpt lat="46.09586" lon="3.7957">
        <ele>1007</ele>
        <time>2015-04-12T10:40:19Z</time>
      </trkpt>
      <trkpt lat="46.09582" lon="3.79574">
        <ele>1008</ele>
        <time>2015-04-12T10:40:22Z</time>
      </trkpt>
      <trkpt lat="46.09578" lon="3.7958">
        <ele>1008</ele>
        <time>2015-04-12T10:40:25Z</time>
      </trkpt>
      <trkpt lat="46.09573" lon="3.79583">
        <ele>1009</ele>
        <time>2015-04-12T10:40:27Z</time>
      </trkpt>
      <trkpt lat="46.09569" lon="3.79588">
        <ele>1009</ele>
        <time>2015-04-12T10:40:29Z</time>
      </trkpt>
      <trkpt lat="46.09565" lon="3.79592">
        <ele>1009</ele>
        <time>2015-04-12T10:40:31Z</time>
      </trkpt>
      <trkpt lat="46.0956" lon="3.79598">
        <ele>1009</ele>
        <time>2015-04-12T10:40:34Z</time>
      </trkpt>
      <trkpt lat="46.09556" lon="3.79602">
        <ele>1009</ele>
        <time>2015-04-12T10:40:36Z</time>
      </trkpt>
      <trkpt lat="46.09552" lon="3.79607">
        <ele>1010</ele>
        <time>2015-04-12T10:40:38Z</time>
      </trkpt>
      <trkpt lat="46.09548" lon="3.79613">
        <ele>1010</ele>
        <time>2015-04-12T10:40:41Z</time>
      </trkpt>
      <trkpt lat="46.09543" lon="3.79618">
        <ele>1010</ele>
        <time>2015-04-12T10:40:44Z</time>
      </trkpt>
      <trkpt lat="46.09539" lon="3.79623">
        <ele>1010</ele>
        <time>2015-04-12T10:40:46Z</time>
      </trkpt>
      <trkpt lat="46.09535" lon="3.79627">
        <ele>1010</ele>
        <time>2015-04-12T10:40:48Z</time>
      </trkpt>
      <trkpt lat="46.09529" lon="3.79632">
        <ele>1010</ele>
        <time>2015-04-12T10:40:50Z</time>
      </trkpt>
      <trkpt lat="46.09524" lon="3.79636">
        <ele>1010</ele>
        <time>2015-04-12T10:40:52Z</time>
      </trkpt>
      <trkpt lat="46.09519" lon="3.79641">
        <ele>1010</ele>
        <time>2015-04-12T10:40:54Z</time>
      </trkpt>
      <trkpt lat="46.09513" lon="3.79648">
        <ele>1010</ele>
        <time>2015-04-12T10:40:56Z</time>
      </trkpt>
      <trkpt lat="46.09508" lon="3.79652">
        <ele>1010</ele>
        <time>2015-04-12T10:40:58Z</time>
      </trkpt>
      <trkpt lat="46.09501" lon="3.79655">
        <ele>1010</ele>
        <time>2015-04-12T10:41:00Z</time>
      </trkpt>
      <trkpt lat="46.09493" lon="3.79659">
        <ele>1009</ele>
        <time>2015-04-12T10:41:02Z</time>
      </trkpt>
      <trkpt lat="46.09486" lon="3.79665">
        <ele>1009</ele>
        <time>2015-04-12T10:41:04Z</time>
      </trkpt>
      <trkpt lat="46.09479" lon="3.79672">
        <ele>1009</ele>
        <time>2015-04-12T10:41:06Z</time>
      </trkpt>
      <trkpt lat="46.09472" lon="3.79677">
        <ele>1008</ele>
        <time>2015-04-12T10:41:08Z</time>
      </trkpt>
      <trkpt lat="46.09467" lon="3.79682">
        <ele>1008</ele>
        <time>2015-04-12T10:41:10Z</time>
      </trkpt>
      <trkpt lat="46.09462" lon="3.79686">
        <ele>1008</ele>
        <time>2015-04-12T10:41:12Z</time>
      </trkpt>
      <trkpt lat="46.09455" lon="3.79693">
        <ele>1008</ele>
        <time>2015-04-12T10:41:14Z</time>
      </trkpt>
      <trkpt lat="46.0945" lon="3.79699">
        <ele>1008</ele>
        <time>2015-04-12T10:41:16Z</time>
      </trkpt>
      <trkpt lat="46.09443" lon="3.79707">
        <ele>1008</ele>
        <time>2015-04-12T10:41:18Z</time>
      </trkpt>
      <trkpt lat="46.09439" lon="3.79712">
        <ele>1008</ele>
        <time>2015-04-12T10:41:19Z</time>
      </trkpt>
      <trkpt lat="46.09435" lon="3.79718">
        <ele>1008</ele>
        <time>2015-04-12T10:41:20Z</time>
      </trkpt>
      <trkpt lat="46.09431" lon="3.79723">
        <ele>1008</ele>
        <time>2015-04-12T10:41:21Z</time>
      </trkpt>
      <trkpt lat="46.09427" lon="3.79728">
        <ele>1008</ele>
        <time>2015-04-12T10:41:22Z</time>
      </trkpt>
      <trkpt lat="46.09424" lon="3.79734">
        <ele>1008</ele>
        <time>2015-04-12T10:41:23Z</time>
      </trkpt>
      <trkpt lat="46.0942" lon="3.79738">
        <ele>1008</ele>
        <time>2015-04-12T10:41:24Z</time>
      </trkpt>
      <trkpt lat="46.09416" lon="3.79743">
        <ele>1007</ele>
        <time>2015-04-12T10:41:25Z</time>
      </trkpt>
      <trkpt lat="46.09412" lon="3.79749">
        <ele>1007</ele>
        <time>2015-04-12T10:41:26Z</time>
      </trkpt>
      <trkpt lat="46.09409" lon="3.79754">
        <ele>1007</ele>
        <time>2015-04-12T10:41:27Z</time>
      </trkpt>
      <trkpt lat="46.09404" lon="3.79759">
        <ele>1006</ele>
        <time>2015-04-12T10:41:28Z</time>
      </trkpt>
      <trkpt lat="46.094" lon="3.79765">
        <ele>1006</ele>
        <time>2015-04-12T10:41:29Z</time>
      </trkpt>
      <trkpt lat="46.09394" lon="3.79775">
        <ele>1005</ele>
        <time>2015-04-12T10:41:30Z</time>
      </trkpt>
      <trkpt lat="46.0939" lon="3.79784">
        <ele>1005</ele>
        <time>2015-04-12T10:41:31Z</time>
      </trkpt>
      <trkpt lat="46.09386" lon="3.79793">
        <ele>1004</ele>
        <time>2015-04-12T10:41:32Z</time>
      </trkpt>
      <trkpt lat="46.09383" lon="3.79802">
        <ele>1004</ele>
        <time>2015-04-12T10:41:33Z</time>
      </trkpt>
      <trkpt lat="46.0938" lon="3.79811">
        <ele>1004</ele>
        <time>2015-04-12T10:41:34Z</time>
      </trkpt>
      <trkpt lat="46.09377" lon="3.79819">
        <ele>1004</ele>
        <time>2015-04-12T10:41:35Z</time>
      </trkpt>
      <trkpt lat="46.09374" lon="3.79827">
        <ele>1004</ele>
        <time>2015-04-12T10:41:36Z</time>
      </trkpt>
      <trkpt lat="46.09369" lon="3.79841">
        <ele>1002</ele>
        <time>2015-04-12T10:41:38Z</time>
      </trkpt>
      <trkpt lat="46.09366" lon="3.79849">
        <ele>1002</ele>
        <time>2015-04-12T10:41:39Z</time>
      </trkpt>
      <trkpt lat="46.09362" lon="3.79856">
        <ele>1002</ele>
        <time>2015-04-12T10:41:40Z</time>
      </trkpt>
      <trkpt lat="46.09359" lon="3.79864">
        <ele>1002</ele>
        <time>2015-04-12T10:41:41Z</time>
      </trkpt>
      <trkpt lat="46.09356" lon="3.79871">
        <ele>1002</ele>
        <time>2015-04-12T10:41:42Z</time>
      </trkpt>
      <trkpt lat="46.09353" lon="3.79879">
        <ele>1002</ele>
        <time>2015-04-12T10:41:43Z</time>
      </trkpt>
      <trkpt lat="46.0935" lon="3.79885">
        <ele>1002</ele>
        <time>2015-04-12T10:41:44Z</time>
      </trkpt>
      <trkpt lat="46.09345" lon="3.79893">
        <ele>1002</ele>
        <time>2015-04-12T10:41:46Z</time>
      </trkpt>
      <trkpt lat="46.09339" lon="3.79899">
        <ele>1002</ele>
        <time>2015-04-12T10:41:48Z</time>
      </trkpt>
      <trkpt lat="46.09335" lon="3.79904">
        <ele>1001</ele>
        <time>2015-04-12T10:41:50Z</time>
      </trkpt>
      <trkpt lat="46.09331" lon="3.79907">
        <ele>1000</ele>
        <time>2015-04-12T10:41:52Z</time>
      </trkpt>
      <trkpt lat="46.09324" lon="3.79911">
        <ele>1000</ele>
        <time>2015-04-12T10:41:55Z</time>
      </trkpt>
      <trkpt lat="46.09317" lon="3.79915">
        <ele>999</ele>
        <time>2015-04-12T10:41:57Z</time>
      </trkpt>
      <trkpt lat="46.0931" lon="3.79919">
        <ele>1001</ele>
        <time>2015-04-12T10:41:59Z</time>
      </trkpt>
      <trkpt lat="46.09303" lon="3.79926">
        <ele>1001</ele>
        <time>2015-04-12T10:42:01Z</time>
      </trkpt>
      <trkpt lat="46.09299" lon="3.7993">
        <ele>1001</ele>
        <time>2015-04-12T10:42:02Z</time>
      </trkpt>
      <trkpt lat="46.09291" lon="3.79936">
        <ele>1001</ele>
        <time>2015-04-12T10:42:04Z</time>
      </trkpt>
      <trkpt lat="46.09284" lon="3.79942">
        <ele>1001</ele>
        <time>2015-04-12T10:42:06Z</time>
      </trkpt>
      <trkpt lat="46.0928" lon="3.79946">
        <ele>1001</ele>
        <time>2015-04-12T10:42:07Z</time>
      </trkpt>
      <trkpt lat="46.09276" lon="3.7995">
        <ele>1001</ele>
        <time>2015-04-12T10:42:08Z</time>
      </trkpt>
      <trkpt lat="46.0927" lon="3.79956">
        <ele>1001</ele>
        <time>2015-04-12T10:42:10Z</time>
      </trkpt>
      <trkpt lat="46.09264" lon="3.79961">
        <ele>1001</ele>
        <time>2015-04-12T10:42:12Z</time>
      </trkpt>
      <trkpt lat="46.09258" lon="3.79965">
        <ele>1002</ele>
        <time>2015-04-12T10:42:14Z</time>
      </trkpt>
      <trkpt lat="46.09252" lon="3.79971">
        <ele>1002</ele>
        <time>2015-04-12T10:42:16Z</time>
      </trkpt>
      <trkpt lat="46.09245" lon="3.79977">
        <ele>1001</ele>
        <time>2015-04-12T10:42:18Z</time>
      </trkpt>
      <trkpt lat="46.09239" lon="3.79982">
        <ele>1001</ele>
        <time>2015-04-12T10:42:20Z</time>
      </trkpt>
      <trkpt lat="46.09233" lon="3.79986">
        <ele>1001</ele>
        <time>2015-04-12T10:42:22Z</time>
      </trkpt>
      <trkpt lat="46.09227" lon="3.79989">
        <ele>1001</ele>
        <time>2015-04-12T10:42:24Z</time>
      </trkpt>
      <trkpt lat="46.09221" lon="3.79993">
        <ele>1001</ele>
        <time>2015-04-12T10:42:26Z</time>
      </trkpt>
      <trkpt lat="46.09215" lon="3.79997">
        <ele>1001</ele>
        <time>2015-04-12T10:42:28Z</time>
      </trkpt>
      <trkpt lat="46.09209" lon="3.80002">
        <ele>1004</ele>
        <time>2015-04-12T10:42:30Z</time>
      </trkpt>
      <trkpt lat="46.09205" lon="3.80005">
        <ele>1004</ele>
        <time>2015-04-12T10:42:32Z</time>
      </trkpt>
      <trkpt lat="46.092" lon="3.80006">
        <ele>1004</ele>
        <time>2015-04-12T10:42:53Z</time>
      </trkpt>
      <trkpt lat="46.09196" lon="3.8001">
        <ele>1004</ele>
        <time>2015-04-12T10:42:56Z</time>
      </trkpt>
      <trkpt lat="46.09191" lon="3.80015">
        <ele>1004</ele>
        <time>2015-04-12T10:42:59Z</time>
      </trkpt>
      <trkpt lat="46.09186" lon="3.80016">
        <ele>1004</ele>
        <time>2015-04-12T10:43:01Z</time>
      </trkpt>
      <trkpt lat="46.0918" lon="3.80019">
        <ele>1003</ele>
        <time>2015-04-12T10:43:04Z</time>
      </trkpt>
      <trkpt lat="46.09174" lon="3.8002">
        <ele>1003</ele>
        <time>2015-04-12T10:43:07Z</time>
      </trkpt>
      <trkpt lat="46.09167" lon="3.80021">
        <ele>1003</ele>
        <time>2015-04-12T10:43:10Z</time>
      </trkpt>
      <trkpt lat="46.09161" lon="3.80021">
        <ele>1005</ele>
        <time>2015-04-12T10:43:13Z</time>
      </trkpt>
      <trkpt lat="46.09156" lon="3.80021">
        <ele>1005</ele>
        <time>2015-04-12T10:43:15Z</time>
      </trkpt>
      <trkpt lat="46.09151" lon="3.80021">
        <ele>1005</ele>
        <time>2015-04-12T10:43:17Z</time>
      </trkpt>
      <trkpt lat="46.09147" lon="3.80021">
        <ele>1005</ele>
        <time>2015-04-12T10:43:19Z</time>
      </trkpt>
      <trkpt lat="46.0914" lon="3.80022">
        <ele>1006</ele>
        <time>2015-04-12T10:43:22Z</time>
      </trkpt>
      <trkpt lat="46.09133" lon="3.80024">
        <ele>1006</ele>
        <time>2015-04-12T10:43:25Z</time>
      </trkpt>
      <trkpt lat="46.09129" lon="3.80025">
        <ele>1007</ele>
        <time>2015-04-12T10:43:27Z</time>
      </trkpt>
      <trkpt lat="46.09122" lon="3.80026">
        <ele>1007</ele>
        <time>2015-04-12T10:43:30Z</time>
      </trkpt>
      <trkpt lat="46.09116" lon="3.80027">
        <ele>1007</ele>
        <time>2015-04-12T10:43:33Z</time>
      </trkpt>
      <trkpt lat="46.0911" lon="3.80028">
        <ele>1007</ele>
        <time>2015-04-12T10:43:36Z</time>
      </trkpt>
      <trkpt lat="46.09104" lon="3.80031">
        <ele>1008</ele>
        <time>2015-04-12T10:43:39Z</time>
      </trkpt>
      <trkpt lat="46.091" lon="3.80034">
        <ele>1008</ele>
        <time>2015-04-12T10:43:41Z</time>
      </trkpt>
      <trkpt lat="46.09095" lon="3.80036">
        <ele>1008</ele>
        <time>2015-04-12T10:43:43Z</time>
      </trkpt>
      <trkpt lat="46.0909" lon="3.80039">
        <ele>1008</ele>
        <time>2015-04-12T10:43:45Z</time>
      </trkpt>
      <trkpt lat="46.09085" lon="3.80041">
        <ele>1008</ele>
        <time>2015-04-12T10:43:47Z</time>
      </trkpt>
      <trkpt lat="46.0908" lon="3.80044">
        <ele>1012</ele>
        <time>2015-04-12T10:43:49Z</time>
      </trkpt>
      <trkpt lat="46.09075" lon="3.80047">
        <ele>1012</ele>
        <time>2015-04-12T10:43:51Z</time>
      </trkpt>
      <trkpt lat="46.09071" lon="3.80049">
        <ele>1012</ele>
        <time>2015-04-12T10:43:53Z</time>
      </trkpt>
      <trkpt lat="46.09066" lon="3.80051">
        <ele>1012</ele>
        <time>2015-04-12T10:43:55Z</time>
      </trkpt>
      <trkpt lat="46.09061" lon="3.80053">
        <ele>1012</ele>
        <time>2015-04-12T10:43:57Z</time>
      </trkpt>
      <trkpt lat="46.09056" lon="3.80056">
        <ele>1013</ele>
        <time>2015-04-12T10:43:59Z</time>
      </trkpt>
      <trkpt lat="46.09051" lon="3.80058">
        <ele>1013</ele>
        <time>2015-04-12T10:44:01Z</time>
      </trkpt>
      <trkpt lat="46.09045" lon="3.80061">
        <ele>1013</ele>
        <time>2015-04-12T10:44:03Z</time>
      </trkpt>
      <trkpt lat="46.0904" lon="3.80064">
        <ele>1013</ele>
        <time>2015-04-12T10:44:05Z</time>
      </trkpt>
      <trkpt lat="46.09035" lon="3.80067">
        <ele>1014</ele>
        <time>2015-04-12T10:44:07Z</time>
      </trkpt>
      <trkpt lat="46.09031" lon="3.8007">
        <ele>1014</ele>
        <time>2015-04-12T10:44:09Z</time>
      </trkpt>
      <trkpt lat="46.09026" lon="3.80074">
        <ele>1015</ele>
        <time>2015-04-12T10:44:11Z</time>
      </trkpt>
      <trkpt lat="46.09022" lon="3.80077">
        <ele>1015</ele>
        <time>2015-04-12T10:44:13Z</time>
      </trkpt>
      <trkpt lat="46.09018" lon="3.80081">
        <ele>1016</ele>
        <time>2015-04-12T10:44:15Z</time>
      </trkpt>
      <trkpt lat="46.09013" lon="3.80084">
        <ele>1018</ele>
        <time>2015-04-12T10:44:17Z</time>
      </trkpt>
      <trkpt lat="46.09009" lon="3.80087">
        <ele>1018</ele>
        <time>2015-04-12T10:44:19Z</time>
      </trkpt>
      <trkpt lat="46.09004" lon="3.8009">
        <ele>1018</ele>
        <time>2015-04-12T10:44:21Z</time>
      </trkpt>
      <trkpt lat="46.08999" lon="3.80094">
        <ele>1021</ele>
        <time>2015-04-12T10:44:23Z</time>
      </trkpt>
      <trkpt lat="46.08994" lon="3.80097">
        <ele>1021</ele>
        <time>2015-04-12T10:44:25Z</time>
      </trkpt>
      <trkpt lat="46.0899" lon="3.80099">
        <ele>1021</ele>
        <time>2015-04-12T10:44:27Z</time>
      </trkpt>
      <trkpt lat="46.08986" lon="3.80102">
        <ele>1022</ele>
        <time>2015-04-12T10:44:29Z</time>
      </trkpt>
      <trkpt lat="46.08981" lon="3.80104">
        <ele>1022</ele>
        <time>2015-04-12T10:44:31Z</time>
      </trkpt>
      <trkpt lat="46.08977" lon="3.80107">
        <ele>1022</ele>
        <time>2015-04-12T10:44:33Z</time>
      </trkpt>
      <trkpt lat="46.08973" lon="3.8011">
        <ele>1023</ele>
        <time>2015-04-12T10:44:35Z</time>
      </trkpt>
      <trkpt lat="46.08968" lon="3.80114">
        <ele>1023</ele>
        <time>2015-04-12T10:44:37Z</time>
      </trkpt>
      <trkpt lat="46.08964" lon="3.80117">
        <ele>1023</ele>
        <time>2015-04-12T10:44:39Z</time>
      </trkpt>
      <trkpt lat="46.08959" lon="3.80121">
        <ele>1023</ele>
        <time>2015-04-12T10:44:41Z</time>
      </trkpt>
      <trkpt lat="46.08955" lon="3.80125">
        <ele>1024</ele>
        <time>2015-04-12T10:44:43Z</time>
      </trkpt>
      <trkpt lat="46.0895" lon="3.80129">
        <ele>1024</ele>
        <time>2015-04-12T10:44:45Z</time>
      </trkpt>
      <trkpt lat="46.08946" lon="3.80133">
        <ele>1024</ele>
        <time>2015-04-12T10:44:47Z</time>
      </trkpt>
      <trkpt lat="46.08941" lon="3.80138">
        <ele>1024</ele>
        <time>2015-04-12T10:44:49Z</time>
      </trkpt>
      <trkpt lat="46.08937" lon="3.80142">
        <ele>1024</ele>
        <time>2015-04-12T10:44:51Z</time>
      </trkpt>
      <trkpt lat="46.08933" lon="3.80146">
        <ele>1025</ele>
        <time>2015-04-12T10:44:53Z</time>
      </trkpt>
      <trkpt lat="46.08928" lon="3.80149">
        <ele>1025</ele>
        <time>2015-04-12T10:44:55Z</time>
      </trkpt>
      <trkpt lat="46.08923" lon="3.80153">
        <ele>1025</ele>
        <time>2015-04-12T10:44:57Z</time>
      </trkpt>
      <trkpt lat="46.08919" lon="3.80156">
        <ele>1026</ele>
        <time>2015-04-12T10:44:59Z</time>
      </trkpt>
      <trkpt lat="46.08914" lon="3.80158">
        <ele>1027</ele>
        <time>2015-04-12T10:45:01Z</time>
      </trkpt>
      <trkpt lat="46.08909" lon="3.80162">
        <ele>1027</ele>
        <time>2015-04-12T10:45:03Z</time>
      </trkpt>
      <trkpt lat="46.08904" lon="3.80165">
        <ele>1027</ele>
        <time>2015-04-12T10:45:05Z</time>
      </trkpt>
      <trkpt lat="46.08898" lon="3.80168">
        <ele>1030</ele>
        <time>2015-04-12T10:45:07Z</time>
      </trkpt>
      <trkpt lat="46.08893" lon="3.8017">
        <ele>1030</ele>
        <time>2015-04-12T10:45:09Z</time>
      </trkpt>
      <trkpt lat="46.08888" lon="3.80173">
        <ele>1030</ele>
        <time>2015-04-12T10:45:11Z</time>
      </trkpt>
      <trkpt lat="46.08885" lon="3.80177">
        <ele>1031</ele>
        <time>2015-04-12T10:45:13Z</time>
      </trkpt>
      <trkpt lat="46.08881" lon="3.80181">
        <ele>1031</ele>
        <time>2015-04-12T10:45:15Z</time>
      </trkpt>
      <trkpt lat="46.08877" lon="3.80185">
        <ele>1031</ele>
        <time>2015-04-12T10:45:17Z</time>
      </trkpt>
      <trkpt lat="46.08873" lon="3.80189">
        <ele>1032</ele>
        <time>2015-04-12T10:45:19Z</time>
      </trkpt>
      <trkpt lat="46.08869" lon="3.80193">
        <ele>1032</ele>
        <time>2015-04-12T10:45:21Z</time>
      </trkpt>
      <trkpt lat="46.08863" lon="3.80196">
        <ele>1032</ele>
        <time>2015-04-12T10:45:24Z</time>
      </trkpt>
      <trkpt lat="46.08858" lon="3.80199">
        <ele>1032</ele>
        <time>2015-04-12T10:45:26Z</time>
      </trkpt>
      <trkpt lat="46.08854" lon="3.80201">
        <ele>1033</ele>
        <time>2015-04-12T10:45:28Z</time>
      </trkpt>
      <trkpt lat="46.0885" lon="3.80203">
        <ele>1033</ele>
        <time>2015-04-12T10:45:30Z</time>
      </trkpt>
      <trkpt lat="46.08844" lon="3.80206">
        <ele>1033</ele>
        <time>2015-04-12T10:45:33Z</time>
      </trkpt>
      <trkpt lat="46.08837" lon="3.8021">
        <ele>1033</ele>
        <time>2015-04-12T10:45:36Z</time>
      </trkpt>
      <trkpt lat="46.08832" lon="3.80213">
        <ele>1035</ele>
        <time>2015-04-12T10:45:38Z</time>
      </trkpt>
      <trkpt lat="46.08827" lon="3.80216">
        <ele>1035</ele>
        <time>2015-04-12T10:45:40Z</time>
      </trkpt>
      <trkpt lat="46.08823" lon="3.80219">
        <ele>1035</ele>
        <time>2015-04-12T10:45:42Z</time>
      </trkpt>
      <trkpt lat="46.08818" lon="3.80223">
        <ele>1035</ele>
        <time>2015-04-12T10:45:44Z</time>
      </trkpt>
      <trkpt lat="46.08813" lon="3.80227">
        <ele>1035</ele>
        <time>2015-04-12T10:45:46Z</time>
      </trkpt>
      <trkpt lat="46.08809" lon="3.80232">
        <ele>1035</ele>
        <time>2015-04-12T10:45:48Z</time>
      </trkpt>
      <trkpt lat="46.08805" lon="3.80238">
        <ele>1035</ele>
        <time>2015-04-12T10:45:50Z</time>
      </trkpt>
      <trkpt lat="46.08802" lon="3.80243">
        <ele>1035</ele>
        <time>2015-04-12T10:45:52Z</time>
      </trkpt>
      <trkpt lat="46.08798" lon="3.80247">
        <ele>1035</ele>
        <time>2015-04-12T10:45:54Z</time>
      </trkpt>
      <trkpt lat="46.08793" lon="3.80254">
        <ele>1038</ele>
        <time>2015-04-12T10:45:57Z</time>
      </trkpt>
      <trkpt lat="46.08789" lon="3.80258">
        <ele>1038</ele>
        <time>2015-04-12T10:45:59Z</time>
      </trkpt>
      <trkpt lat="46.08786" lon="3.80263">
        <ele>1039</ele>
        <time>2015-04-12T10:46:01Z</time>
      </trkpt>
      <trkpt lat="46.08782" lon="3.80267">
        <ele>1039</ele>
        <time>2015-04-12T10:46:03Z</time>
      </trkpt>
      <trkpt lat="46.08778" lon="3.80272">
        <ele>1039</ele>
        <time>2015-04-12T10:46:05Z</time>
      </trkpt>
      <trkpt lat="46.08774" lon="3.80276">
        <ele>1039</ele>
        <time>2015-04-12T10:46:07Z</time>
      </trkpt>
      <trkpt lat="46.08769" lon="3.8028">
        <ele>1039</ele>
        <time>2015-04-12T10:46:09Z</time>
      </trkpt>
      <trkpt lat="46.08764" lon="3.80285">
        <ele>1039</ele>
        <time>2015-04-12T10:46:12Z</time>
      </trkpt>
      <trkpt lat="46.08761" lon="3.80289">
        <ele>1039</ele>
        <time>2015-04-12T10:46:14Z</time>
      </trkpt>
      <trkpt lat="46.08757" lon="3.80294">
        <ele>1040</ele>
        <time>2015-04-12T10:46:16Z</time>
      </trkpt>
      <trkpt lat="46.08753" lon="3.80299">
        <ele>1040</ele>
        <time>2015-04-12T10:46:18Z</time>
      </trkpt>
      <trkpt lat="46.08748" lon="3.80306">
        <ele>1042</ele>
        <time>2015-04-12T10:46:21Z</time>
      </trkpt>
      <trkpt lat="46.08744" lon="3.8031">
        <ele>1042</ele>
        <time>2015-04-12T10:46:23Z</time>
      </trkpt>
      <trkpt lat="46.08741" lon="3.80315">
        <ele>1042</ele>
        <time>2015-04-12T10:46:25Z</time>
      </trkpt>
      <trkpt lat="46.08736" lon="3.80321">
        <ele>1042</ele>
        <time>2015-04-12T10:46:28Z</time>
      </trkpt>
      <trkpt lat="46.08732" lon="3.80326">
        <ele>1042</ele>
        <time>2015-04-12T10:46:31Z</time>
      </trkpt>
      <trkpt lat="46.08728" lon="3.80332">
        <ele>1042</ele>
        <time>2015-04-12T10:46:34Z</time>
      </trkpt>
      <trkpt lat="46.08723" lon="3.80339">
        <ele>1046</ele>
        <time>2015-04-12T10:46:37Z</time>
      </trkpt>
      <trkpt lat="46.08718" lon="3.80345">
        <ele>1046</ele>
        <time>2015-04-12T10:46:40Z</time>
      </trkpt>
      <trkpt lat="46.08714" lon="3.80351">
        <ele>1047</ele>
        <time>2015-04-12T10:46:43Z</time>
      </trkpt>
      <trkpt lat="46.0871" lon="3.80358">
        <ele>1047</ele>
        <time>2015-04-12T10:46:46Z</time>
      </trkpt>
      <trkpt lat="46.08707" lon="3.80366">
        <ele>1047</ele>
        <time>2015-04-12T10:46:49Z</time>
      </trkpt>
      <trkpt lat="46.08703" lon="3.80373">
        <ele>1048</ele>
        <time>2015-04-12T10:46:52Z</time>
      </trkpt>
      <trkpt lat="46.087" lon="3.80379">
        <ele>1048</ele>
        <time>2015-04-12T10:46:54Z</time>
      </trkpt>
      <trkpt lat="46.08697" lon="3.80384">
        <ele>1048</ele>
        <time>2015-04-12T10:46:56Z</time>
      </trkpt>
      <trkpt lat="46.08694" lon="3.80389">
        <ele>1048</ele>
        <time>2015-04-12T10:46:58Z</time>
      </trkpt>
      <trkpt lat="46.0869" lon="3.80394">
        <ele>1048</ele>
        <time>2015-04-12T10:47:00Z</time>
      </trkpt>
      <trkpt lat="46.08687" lon="3.804">
        <ele>1049</ele>
        <time>2015-04-12T10:47:02Z</time>
      </trkpt>
      <trkpt lat="46.08686" lon="3.80406">
        <ele>1049</ele>
        <time>2015-04-12T10:47:04Z</time>
      </trkpt>
      <trkpt lat="46.08684" lon="3.80416">
        <ele>1049</ele>
        <time>2015-04-12T10:47:07Z</time>
      </trkpt>
      <trkpt lat="46.08683" lon="3.80423">
        <ele>1051</ele>
        <time>2015-04-12T10:47:09Z</time>
      </trkpt>
      <trkpt lat="46.08686" lon="3.80429">
        <ele>1052</ele>
        <time>2015-04-12T10:47:11Z</time>
      </trkpt>
      <trkpt lat="46.0869" lon="3.80434">
        <ele>1052</ele>
        <time>2015-04-12T10:47:13Z</time>
      </trkpt>
      <trkpt lat="46.08692" lon="3.8044">
        <ele>1052</ele>
        <time>2015-04-12T10:47:16Z</time>
      </trkpt>
      <trkpt lat="46.08686" lon="3.80434">
        <ele>1052</ele>
        <time>2015-04-12T10:47:55Z</time>
      </trkpt>
      <trkpt lat="46.08681" lon="3.80431">
        <ele>1052</ele>
        <time>2015-04-12T10:47:56Z</time>
      </trkpt>
      <trkpt lat="46.08676" lon="3.80427">
        <ele>1051</ele>
        <time>2015-04-12T10:47:57Z</time>
      </trkpt>
      <trkpt lat="46.0867" lon="3.80423">
        <ele>1051</ele>
        <time>2015-04-12T10:47:58Z</time>
      </trkpt>
      <trkpt lat="46.08663" lon="3.8042">
        <ele>1052</ele>
        <time>2015-04-12T10:47:59Z</time>
      </trkpt>
      <trkpt lat="46.08657" lon="3.80418">
        <ele>1052</ele>
        <time>2015-04-12T10:48:00Z</time>
      </trkpt>
      <trkpt lat="46.08651" lon="3.80418">
        <ele>1053</ele>
        <time>2015-04-12T10:48:01Z</time>
      </trkpt>
      <trkpt lat="46.08644" lon="3.80418">
        <ele>1053</ele>
        <time>2015-04-12T10:48:02Z</time>
      </trkpt>
      <trkpt lat="46.08637" lon="3.80418">
        <ele>1053</ele>
        <time>2015-04-12T10:48:03Z</time>
      </trkpt>
      <trkpt lat="46.08632" lon="3.80421">
        <ele>1053</ele>
        <time>2015-04-12T10:48:04Z</time>
      </trkpt>
      <trkpt lat="46.08626" lon="3.80422">
        <ele>1053</ele>
        <time>2015-04-12T10:48:05Z</time>
      </trkpt>
      <trkpt lat="46.08621" lon="3.80424">
        <ele>1053</ele>
        <time>2015-04-12T10:48:06Z</time>
      </trkpt>
      <trkpt lat="46.08613" lon="3.80428">
        <ele>1054</ele>
        <time>2015-04-12T10:48:08Z</time>
      </trkpt>
      <trkpt lat="46.08607" lon="3.80433">
        <ele>1054</ele>
        <time>2015-04-12T10:48:10Z</time>
      </trkpt>
      <trkpt lat="46.08602" lon="3.80437">
        <ele>1054</ele>
        <time>2015-04-12T10:48:12Z</time>
      </trkpt>
      <trkpt lat="46.08598" lon="3.80442">
        <ele>1054</ele>
        <time>2015-04-12T10:48:14Z</time>
      </trkpt>
      <trkpt lat="46.08593" lon="3.80446">
        <ele>1054</ele>
        <time>2015-04-12T10:48:16Z</time>
      </trkpt>
      <trkpt lat="46.08589" lon="3.8045">
        <ele>1054</ele>
        <time>2015-04-12T10:48:18Z</time>
      </trkpt>
      <trkpt lat="46.08585" lon="3.80455">
        <ele>1055</ele>
        <time>2015-04-12T10:48:20Z</time>
      </trkpt>
      <trkpt lat="46.0858" lon="3.80459">
        <ele>1055</ele>
        <time>2015-04-12T10:48:22Z</time>
      </trkpt>
      <trkpt lat="46.08575" lon="3.80463">
        <ele>1055</ele>
        <time>2015-04-12T10:48:24Z</time>
      </trkpt>
      <trkpt lat="46.08571" lon="3.80467">
        <ele>1055</ele>
        <time>2015-04-12T10:48:26Z</time>
      </trkpt>
      <trkpt lat="46.08566" lon="3.80471">
        <ele>1055</ele>
        <time>2015-04-12T10:48:28Z</time>
      </trkpt>
      <trkpt lat="46.08561" lon="3.80475">
        <ele>1055</ele>
        <time>2015-04-12T10:48:30Z</time>
      </trkpt>
      <trkpt lat="46.08556" lon="3.80479">
        <ele>1055</ele>
        <time>2015-04-12T10:48:32Z</time>
      </trkpt>
      <trkpt lat="46.08551" lon="3.80483">
        <ele>1055</ele>
        <time>2015-04-12T10:48:34Z</time>
      </trkpt>
      <trkpt lat="46.08546" lon="3.80488">
        <ele>1055</ele>
        <time>2015-04-12T10:48:36Z</time>
      </trkpt>
      <trkpt lat="46.08542" lon="3.80491">
        <ele>1055</ele>
        <time>2015-04-12T10:48:38Z</time>
      </trkpt>
      <trkpt lat="46.08538" lon="3.80497">
        <ele>1055</ele>
        <time>2015-04-12T10:48:40Z</time>
      </trkpt>
      <trkpt lat="46.08533" lon="3.80502">
        <ele>1058</ele>
        <time>2015-04-12T10:48:42Z</time>
      </trkpt>
      <trkpt lat="46.08529" lon="3.80508">
        <ele>1058</ele>
        <time>2015-04-12T10:48:44Z</time>
      </trkpt>
      <trkpt lat="46.08525" lon="3.80514">
        <ele>1058</ele>
        <time>2015-04-12T10:48:46Z</time>
      </trkpt>
      <trkpt lat="46.08521" lon="3.80521">
        <ele>1058</ele>
        <time>2015-04-12T10:48:48Z</time>
      </trkpt>
      <trkpt lat="46.08517" lon="3.80528">
        <ele>1058</ele>
        <time>2015-04-12T10:48:50Z</time>
      </trkpt>
      <trkpt lat="46.08514" lon="3.80535">
        <ele>1058</ele>
        <time>2015-04-12T10:48:52Z</time>
      </trkpt>
      <trkpt lat="46.08511" lon="3.80542">
        <ele>1058</ele>
        <time>2015-04-12T10:48:54Z</time>
      </trkpt>
      <trkpt lat="46.08508" lon="3.8055">
        <ele>1058</ele>
        <time>2015-04-12T10:48:56Z</time>
      </trkpt>
      <trkpt lat="46.08504" lon="3.80557">
        <ele>1058</ele>
        <time>2015-04-12T10:48:58Z</time>
      </trkpt>
      <trkpt lat="46.085" lon="3.80564">
        <ele>1056</ele>
        <time>2015-04-12T10:49:00Z</time>
      </trkpt>
      <trkpt lat="46.08496" lon="3.80571">
        <ele>1057</ele>
        <time>2015-04-12T10:49:02Z</time>
      </trkpt>
      <trkpt lat="46.08492" lon="3.80579">
        <ele>1057</ele>
        <time>2015-04-12T10:49:04Z</time>
      </trkpt>
      <trkpt lat="46.0849" lon="3.80586">
        <ele>1057</ele>
        <time>2015-04-12T10:49:06Z</time>
      </trkpt>
      <trkpt lat="46.08487" lon="3.80592">
        <ele>1057</ele>
        <time>2015-04-12T10:49:08Z</time>
      </trkpt>
      <trkpt lat="46.08483" lon="3.80599">
        <ele>1057</ele>
        <time>2015-04-12T10:49:10Z</time>
      </trkpt>
      <trkpt lat="46.08479" lon="3.80606">
        <ele>1057</ele>
        <time>2015-04-12T10:49:12Z</time>
      </trkpt>
      <trkpt lat="46.08475" lon="3.80615">
        <ele>1057</ele>
        <time>2015-04-12T10:49:14Z</time>
      </trkpt>
      <trkpt lat="46.0847" lon="3.80622">
        <ele>1057</ele>
        <time>2015-04-12T10:49:16Z</time>
      </trkpt>
      <trkpt lat="46.08467" lon="3.80629">
        <ele>1057</ele>
        <time>2015-04-12T10:49:18Z</time>
      </trkpt>
      <trkpt lat="46.08467" lon="3.80637">
        <ele>1057</ele>
        <time>2015-04-12T10:49:20Z</time>
      </trkpt>
      <trkpt lat="46.08464" lon="3.80645">
        <ele>1057</ele>
        <time>2015-04-12T10:49:22Z</time>
      </trkpt>
      <trkpt lat="46.0846" lon="3.80653">
        <ele>1057</ele>
        <time>2015-04-12T10:49:24Z</time>
      </trkpt>
      <trkpt lat="46.08458" lon="3.8066">
        <ele>1057</ele>
        <time>2015-04-12T10:49:26Z</time>
      </trkpt>
      <trkpt lat="46.08455" lon="3.80667">
        <ele>1057</ele>
        <time>2015-04-12T10:49:28Z</time>
      </trkpt>
      <trkpt lat="46.08453" lon="3.80673">
        <ele>1057</ele>
        <time>2015-04-12T10:49:30Z</time>
      </trkpt>
      <trkpt lat="46.08449" lon="3.8068">
        <ele>1057</ele>
        <time>2015-04-12T10:49:32Z</time>
      </trkpt>
      <trkpt lat="46.08445" lon="3.80687">
        <ele>1057</ele>
        <time>2015-04-12T10:49:34Z</time>
      </trkpt>
      <trkpt lat="46.08442" lon="3.80694">
        <ele>1057</ele>
        <time>2015-04-12T10:49:36Z</time>
      </trkpt>
      <trkpt lat="46.08438" lon="3.80699">
        <ele>1057</ele>
        <time>2015-04-12T10:49:38Z</time>
      </trkpt>
      <trkpt lat="46.08434" lon="3.80705">
        <ele>1057</ele>
        <time>2015-04-12T10:49:40Z</time>
      </trkpt>
      <trkpt lat="46.08429" lon="3.80711">
        <ele>1057</ele>
        <time>2015-04-12T10:49:42Z</time>
      </trkpt>
      <trkpt lat="46.08424" lon="3.80716">
        <ele>1057</ele>
        <time>2015-04-12T10:49:44Z</time>
      </trkpt>
      <trkpt lat="46.0842" lon="3.80721">
        <ele>1057</ele>
        <time>2015-04-12T10:49:46Z</time>
      </trkpt>
      <trkpt lat="46.08415" lon="3.80726">
        <ele>1056</ele>
        <time>2015-04-12T10:49:48Z</time>
      </trkpt>
      <trkpt lat="46.0841" lon="3.80731">
        <ele>1056</ele>
        <time>2015-04-12T10:49:50Z</time>
      </trkpt>
      <trkpt lat="46.08405" lon="3.80737">
        <ele>1056</ele>
        <time>2015-04-12T10:49:52Z</time>
      </trkpt>
      <trkpt lat="46.08401" lon="3.80742">
        <ele>1056</ele>
        <time>2015-04-12T10:49:54Z</time>
      </trkpt>
      <trkpt lat="46.08396" lon="3.80746">
        <ele>1056</ele>
        <time>2015-04-12T10:49:56Z</time>
      </trkpt>
      <trkpt lat="46.08391" lon="3.80752">
        <ele>1058</ele>
        <time>2015-04-12T10:49:58Z</time>
      </trkpt>
      <trkpt lat="46.08387" lon="3.80757">
        <ele>1058</ele>
        <time>2015-04-12T10:50:00Z</time>
      </trkpt>
      <trkpt lat="46.08381" lon="3.8076">
        <ele>1058</ele>
        <time>2015-04-12T10:50:02Z</time>
      </trkpt>
      <trkpt lat="46.08377" lon="3.80763">
        <ele>1058</ele>
        <time>2015-04-12T10:50:04Z</time>
      </trkpt>
      <trkpt lat="46.08372" lon="3.80766">
        <ele>1058</ele>
        <time>2015-04-12T10:50:07Z</time>
      </trkpt>
      <trkpt lat="46.08366" lon="3.80767">
        <ele>1058</ele>
        <time>2015-04-12T10:50:09Z</time>
      </trkpt>
      <trkpt lat="46.08361" lon="3.80769">
        <ele>1058</ele>
        <time>2015-04-12T10:50:10Z</time>
      </trkpt>
      <trkpt lat="46.08353" lon="3.80772">
        <ele>1059</ele>
        <time>2015-04-12T10:50:12Z</time>
      </trkpt>
      <trkpt lat="46.08346" lon="3.80774">
        <ele>1059</ele>
        <time>2015-04-12T10:50:14Z</time>
      </trkpt>
      <trkpt lat="46.08339" lon="3.80776">
        <ele>1059</ele>
        <time>2015-04-12T10:50:16Z</time>
      </trkpt>
      <trkpt lat="46.08333" lon="3.80777">
        <ele>1059</ele>
        <time>2015-04-12T10:50:18Z</time>
      </trkpt>
      <trkpt lat="46.08328" lon="3.80777">
        <ele>1061</ele>
        <time>2015-04-12T10:50:20Z</time>
      </trkpt>
      <trkpt lat="46.08321" lon="3.80778">
        <ele>1061</ele>
        <time>2015-04-12T10:50:22Z</time>
      </trkpt>
      <trkpt lat="46.08315" lon="3.80779">
        <ele>1062</ele>
        <time>2015-04-12T10:50:24Z</time>
      </trkpt>
      <trkpt lat="46.0831" lon="3.80781">
        <ele>1062</ele>
        <time>2015-04-12T10:50:26Z</time>
      </trkpt>
      <trkpt lat="46.08304" lon="3.80781">
        <ele>1062</ele>
        <time>2015-04-12T10:50:28Z</time>
      </trkpt>
      <trkpt lat="46.08298" lon="3.80782">
        <ele>1062</ele>
        <time>2015-04-12T10:50:30Z</time>
      </trkpt>
      <trkpt lat="46.08293" lon="3.80783">
        <ele>1063</ele>
        <time>2015-04-12T10:50:32Z</time>
      </trkpt>
      <trkpt lat="46.08287" lon="3.80785">
        <ele>1063</ele>
        <time>2015-04-12T10:50:34Z</time>
      </trkpt>
      <trkpt lat="46.08281" lon="3.80787">
        <ele>1063</ele>
        <time>2015-04-12T10:50:36Z</time>
      </trkpt>
      <trkpt lat="46.08275" lon="3.80788">
        <ele>1063</ele>
        <time>2015-04-12T10:50:38Z</time>
      </trkpt>
      <trkpt lat="46.0827" lon="3.80788">
        <ele>1064</ele>
        <time>2015-04-12T10:50:40Z</time>
      </trkpt>
      <trkpt lat="46.08265" lon="3.8079">
        <ele>1064</ele>
        <time>2015-04-12T10:50:42Z</time>
      </trkpt>
      <trkpt lat="46.08259" lon="3.80791">
        <ele>1064</ele>
        <time>2015-04-12T10:50:44Z</time>
      </trkpt>
      <trkpt lat="46.08254" lon="3.80791">
        <ele>1064</ele>
        <time>2015-04-12T10:50:46Z</time>
      </trkpt>
      <trkpt lat="46.08249" lon="3.80791">
        <ele>1067</ele>
        <time>2015-04-12T10:50:48Z</time>
      </trkpt>
      <trkpt lat="46.08243" lon="3.8079">
        <ele>1067</ele>
        <time>2015-04-12T10:50:51Z</time>
      </trkpt>
      <trkpt lat="46.08237" lon="3.80789">
        <ele>1068</ele>
        <time>2015-04-12T10:50:53Z</time>
      </trkpt>
      <trkpt lat="46.08232" lon="3.80788">
        <ele>1068</ele>
        <time>2015-04-12T10:50:55Z</time>
      </trkpt>
      <trkpt lat="46.08228" lon="3.80786">
        <ele>1068</ele>
        <time>2015-04-12T10:50:57Z</time>
      </trkpt>
      <trkpt lat="46.08223" lon="3.80783">
        <ele>1068</ele>
        <time>2015-04-12T10:50:59Z</time>
      </trkpt>
      <trkpt lat="46.08218" lon="3.80782">
        <ele>1068</ele>
        <time>2015-04-12T10:51:01Z</time>
      </trkpt>
      <trkpt lat="46.08212" lon="3.80782">
        <ele>1068</ele>
        <time>2015-04-12T10:51:03Z</time>
      </trkpt>
      <trkpt lat="46.08206" lon="3.80781">
        <ele>1068</ele>
        <time>2015-04-12T10:51:05Z</time>
      </trkpt>
      <trkpt lat="46.082" lon="3.80779">
        <ele>1068</ele>
        <time>2015-04-12T10:51:07Z</time>
      </trkpt>
      <trkpt lat="46.08194" lon="3.80778">
        <ele>1069</ele>
        <time>2015-04-12T10:51:09Z</time>
      </trkpt>
      <trkpt lat="46.08189" lon="3.80777">
        <ele>1069</ele>
        <time>2015-04-12T10:51:11Z</time>
      </trkpt>
      <trkpt lat="46.08182" lon="3.80777">
        <ele>1069</ele>
        <time>2015-04-12T10:51:13Z</time>
      </trkpt>
      <trkpt lat="46.08176" lon="3.80778">
        <ele>1069</ele>
        <time>2015-04-12T10:51:15Z</time>
      </trkpt>
      <trkpt lat="46.0817" lon="3.80778">
        <ele>1069</ele>
        <time>2015-04-12T10:51:17Z</time>
      </trkpt>
      <trkpt lat="46.08165" lon="3.80778">
        <ele>1070</ele>
        <time>2015-04-12T10:51:19Z</time>
      </trkpt>
      <trkpt lat="46.08159" lon="3.80778">
        <ele>1070</ele>
        <time>2015-04-12T10:51:21Z</time>
      </trkpt>
      <trkpt lat="46.08153" lon="3.80777">
        <ele>1070</ele>
        <time>2015-04-12T10:51:23Z</time>
      </trkpt>
      <trkpt lat="46.08147" lon="3.80776">
        <ele>1070</ele>
        <time>2015-04-12T10:51:25Z</time>
      </trkpt>
      <trkpt lat="46.0814" lon="3.80776">
        <ele>1070</ele>
        <time>2015-04-12T10:51:27Z</time>
      </trkpt>
      <trkpt lat="46.08134" lon="3.80774">
        <ele>1069</ele>
        <time>2015-04-12T10:51:29Z</time>
      </trkpt>
      <trkpt lat="46.08127" lon="3.80772">
        <ele>1069</ele>
        <time>2015-04-12T10:51:31Z</time>
      </trkpt>
      <trkpt lat="46.0812" lon="3.8077">
        <ele>1069</ele>
        <time>2015-04-12T10:51:33Z</time>
      </trkpt>
      <trkpt lat="46.08113" lon="3.80767">
        <ele>1069</ele>
        <time>2015-04-12T10:51:35Z</time>
      </trkpt>
      <trkpt lat="46.08107" lon="3.80764">
        <ele>1069</ele>
        <time>2015-04-12T10:51:37Z</time>
      </trkpt>
      <trkpt lat="46.08102" lon="3.8076">
        <ele>1069</ele>
        <time>2015-04-12T10:51:39Z</time>
      </trkpt>
      <trkpt lat="46.08097" lon="3.80757">
        <ele>1070</ele>
        <time>2015-04-12T10:51:41Z</time>
      </trkpt>
      <trkpt lat="46.08092" lon="3.80752">
        <ele>1070</ele>
        <time>2015-04-12T10:51:43Z</time>
      </trkpt>
      <trkpt lat="46.08086" lon="3.80748">
        <ele>1070</ele>
        <time>2015-04-12T10:51:45Z</time>
      </trkpt>
      <trkpt lat="46.0808" lon="3.80744">
        <ele>1071</ele>
        <time>2015-04-12T10:51:47Z</time>
      </trkpt>
      <trkpt lat="46.08073" lon="3.80739">
        <ele>1071</ele>
        <time>2015-04-12T10:51:49Z</time>
      </trkpt>
      <trkpt lat="46.08067" lon="3.80735">
        <ele>1071</ele>
        <time>2015-04-12T10:51:51Z</time>
      </trkpt>
      <trkpt lat="46.08061" lon="3.80731">
        <ele>1072</ele>
        <time>2015-04-12T10:51:53Z</time>
      </trkpt>
      <trkpt lat="46.08054" lon="3.80726">
        <ele>1072</ele>
        <time>2015-04-12T10:51:55Z</time>
      </trkpt>
      <trkpt lat="46.08047" lon="3.80721">
        <ele>1072</ele>
        <time>2015-04-12T10:51:57Z</time>
      </trkpt>
      <trkpt lat="46.0804" lon="3.80717">
        <ele>1072</ele>
        <time>2015-04-12T10:51:59Z</time>
      </trkpt>
      <trkpt lat="46.08034" lon="3.80714">
        <ele>1072</ele>
        <time>2015-04-12T10:52:01Z</time>
      </trkpt>
      <trkpt lat="46.08028" lon="3.80712">
        <ele>1072</ele>
        <time>2015-04-12T10:52:03Z</time>
      </trkpt>
      <trkpt lat="46.08022" lon="3.8071">
        <ele>1072</ele>
        <time>2015-04-12T10:52:05Z</time>
      </trkpt>
      <trkpt lat="46.08017" lon="3.80709">
        <ele>1072</ele>
        <time>2015-04-12T10:52:07Z</time>
      </trkpt>
      <trkpt lat="46.08013" lon="3.80708">
        <ele>1073</ele>
        <time>2015-04-12T10:52:09Z</time>
      </trkpt>
      <trkpt lat="46.08007" lon="3.80709">
        <ele>1072</ele>
        <time>2015-04-12T10:52:11Z</time>
      </trkpt>
      <trkpt lat="46.08" lon="3.80713">
        <ele>1072</ele>
        <time>2015-04-12T10:52:13Z</time>
      </trkpt>
      <trkpt lat="46.07993" lon="3.8072">
        <ele>1071</ele>
        <time>2015-04-12T10:52:15Z</time>
      </trkpt>
      <trkpt lat="46.07988" lon="3.80724">
        <ele>1070</ele>
        <time>2015-04-12T10:52:16Z</time>
      </trkpt>
      <trkpt lat="46.07983" lon="3.80728">
        <ele>1070</ele>
        <time>2015-04-12T10:52:17Z</time>
      </trkpt>
      <trkpt lat="46.07978" lon="3.80733">
        <ele>1070</ele>
        <time>2015-04-12T10:52:18Z</time>
      </trkpt>
      <trkpt lat="46.07973" lon="3.80739">
        <ele>1070</ele>
        <time>2015-04-12T10:52:19Z</time>
      </trkpt>
      <trkpt lat="46.07967" lon="3.80745">
        <ele>1070</ele>
        <time>2015-04-12T10:52:20Z</time>
      </trkpt>
      <trkpt lat="46.07962" lon="3.80751">
        <ele>1067</ele>
        <time>2015-04-12T10:52:21Z</time>
      </trkpt>
      <trkpt lat="46.07957" lon="3.80757">
        <ele>1067</ele>
        <time>2015-04-12T10:52:22Z</time>
      </trkpt>
      <trkpt lat="46.07952" lon="3.80763">
        <ele>1067</ele>
        <time>2015-04-12T10:52:23Z</time>
      </trkpt>
      <trkpt lat="46.07947" lon="3.80768">
        <ele>1066</ele>
        <time>2015-04-12T10:52:24Z</time>
      </trkpt>
      <trkpt lat="46.07942" lon="3.80774">
        <ele>1066</ele>
        <time>2015-04-12T10:52:25Z</time>
      </trkpt>
      <trkpt lat="46.07937" lon="3.8078">
        <ele>1066</ele>
        <time>2015-04-12T10:52:26Z</time>
      </trkpt>
      <trkpt lat="46.07933" lon="3.80785">
        <ele>1066</ele>
        <time>2015-04-12T10:52:27Z</time>
      </trkpt>
      <trkpt lat="46.07929" lon="3.8079">
        <ele>1066</ele>
        <time>2015-04-12T10:52:28Z</time>
      </trkpt>
      <trkpt lat="46.07926" lon="3.80796">
        <ele>1066</ele>
        <time>2015-04-12T10:52:29Z</time>
      </trkpt>
      <trkpt lat="46.07922" lon="3.80801">
        <ele>1065</ele>
        <time>2015-04-12T10:52:30Z</time>
      </trkpt>
      <trkpt lat="46.07917" lon="3.80806">
        <ele>1065</ele>
        <time>2015-04-12T10:52:31Z</time>
      </trkpt>
      <trkpt lat="46.07912" lon="3.80811">
        <ele>1063</ele>
        <time>2015-04-12T10:52:32Z</time>
      </trkpt>
      <trkpt lat="46.07908" lon="3.80817">
        <ele>1063</ele>
        <time>2015-04-12T10:52:33Z</time>
      </trkpt>
      <trkpt lat="46.07903" lon="3.80823">
        <ele>1063</ele>
        <time>2015-04-12T10:52:34Z</time>
      </trkpt>
      <trkpt lat="46.07898" lon="3.80828">
        <ele>1063</ele>
        <time>2015-04-12T10:52:35Z</time>
      </trkpt>
      <trkpt lat="46.07894" lon="3.80834">
        <ele>1061</ele>
        <time>2015-04-12T10:52:36Z</time>
      </trkpt>
      <trkpt lat="46.07889" lon="3.80841">
        <ele>1060</ele>
        <time>2015-04-12T10:52:37Z</time>
      </trkpt>
      <trkpt lat="46.07885" lon="3.80845">
        <ele>1060</ele>
        <time>2015-04-12T10:52:38Z</time>
      </trkpt>
      <trkpt lat="46.07881" lon="3.80849">
        <ele>1060</ele>
        <time>2015-04-12T10:52:39Z</time>
      </trkpt>
      <trkpt lat="46.07873" lon="3.80857">
        <ele>1060</ele>
        <time>2015-04-12T10:52:41Z</time>
      </trkpt>
      <trkpt lat="46.07867" lon="3.80862">
        <ele>1059</ele>
        <time>2015-04-12T10:52:42Z</time>
      </trkpt>
      <trkpt lat="46.07863" lon="3.80866">
        <ele>1059</ele>
        <time>2015-04-12T10:52:43Z</time>
      </trkpt>
      <trkpt lat="46.07856" lon="3.80871">
        <ele>1059</ele>
        <time>2015-04-12T10:52:44Z</time>
      </trkpt>
      <trkpt lat="46.07848" lon="3.80876">
        <ele>1059</ele>
        <time>2015-04-12T10:52:45Z</time>
      </trkpt>
      <trkpt lat="46.0784" lon="3.80882">
        <ele>1058</ele>
        <time>2015-04-12T10:52:46Z</time>
      </trkpt>
      <trkpt lat="46.07832" lon="3.80888">
        <ele>1055</ele>
        <time>2015-04-12T10:52:47Z</time>
      </trkpt>
      <trkpt lat="46.07822" lon="3.80894">
        <ele>1055</ele>
        <time>2015-04-12T10:52:48Z</time>
      </trkpt>
      <trkpt lat="46.07812" lon="3.80899">
        <ele>1054</ele>
        <time>2015-04-12T10:52:49Z</time>
      </trkpt>
      <trkpt lat="46.07803" lon="3.80906">
        <ele>1054</ele>
        <time>2015-04-12T10:52:50Z</time>
      </trkpt>
      <trkpt lat="46.07794" lon="3.80912">
        <ele>1053</ele>
        <time>2015-04-12T10:52:51Z</time>
      </trkpt>
      <trkpt lat="46.07787" lon="3.80917">
        <ele>1051</ele>
        <time>2015-04-12T10:52:52Z</time>
      </trkpt>
      <trkpt lat="46.0778" lon="3.80923">
        <ele>1051</ele>
        <time>2015-04-12T10:52:53Z</time>
      </trkpt>
      <trkpt lat="46.07775" lon="3.80927">
        <ele>1051</ele>
        <time>2015-04-12T10:52:54Z</time>
      </trkpt>
      <trkpt lat="46.0777" lon="3.80931">
        <ele>1051</ele>
        <time>2015-04-12T10:52:55Z</time>
      </trkpt>
      <trkpt lat="46.07765" lon="3.80934">
        <ele>1050</ele>
        <time>2015-04-12T10:52:56Z</time>
      </trkpt>
      <trkpt lat="46.07761" lon="3.80938">
        <ele>1050</ele>
        <time>2015-04-12T10:52:57Z</time>
      </trkpt>
      <trkpt lat="46.07755" lon="3.80945">
        <ele>1050</ele>
        <time>2015-04-12T10:52:59Z</time>
      </trkpt>
      <trkpt lat="46.07752" lon="3.80954">
        <ele>1050</ele>
        <time>2015-04-12T10:53:01Z</time>
      </trkpt>
      <trkpt lat="46.0775" lon="3.80961">
        <ele>1045</ele>
        <time>2015-04-12T10:53:03Z</time>
      </trkpt>
      <trkpt lat="46.0776" lon="3.80968">
        <ele>1050</ele>
        <time>2015-04-12T10:53:38Z</time>
      </trkpt>
      <trkpt lat="46.07761" lon="3.80961">
        <ele>1050</ele>
        <time>2015-04-12T10:53:40Z</time>
      </trkpt>
      <trkpt lat="46.07759" lon="3.80956">
        <ele>1050</ele>
        <time>2015-04-12T10:53:42Z</time>
      </trkpt>
      <trkpt lat="46.07754" lon="3.80952">
        <ele>1050</ele>
        <time>2015-04-12T10:53:44Z</time>
      </trkpt>
      <trkpt lat="46.07751" lon="3.80948">
        <ele>1050</ele>
        <time>2015-04-12T10:53:46Z</time>
      </trkpt>
      <trkpt lat="46.07744" lon="3.80944">
        <ele>1046</ele>
        <time>2015-04-12T10:53:49Z</time>
      </trkpt>
      <trkpt lat="46.07739" lon="3.80946">
        <ele>1046</ele>
        <time>2015-04-12T10:53:51Z</time>
      </trkpt>
      <trkpt lat="46.07733" lon="3.8095">
        <ele>1045</ele>
        <time>2015-04-12T10:53:53Z</time>
      </trkpt>
      <trkpt lat="46.07726" lon="3.80956">
        <ele>1045</ele>
        <time>2015-04-12T10:53:55Z</time>
      </trkpt>
      <trkpt lat="46.07722" lon="3.80959">
        <ele>1045</ele>
        <time>2015-04-12T10:53:56Z</time>
      </trkpt>
      <trkpt lat="46.07717" lon="3.80961">
        <ele>1044</ele>
        <time>2015-04-12T10:53:57Z</time>
      </trkpt>
      <trkpt lat="46.07711" lon="3.80962">
        <ele>1044</ele>
        <time>2015-04-12T10:53:58Z</time>
      </trkpt>
      <trkpt lat="46.07704" lon="3.80965">
        <ele>1044</ele>
        <time>2015-04-12T10:53:59Z</time>
      </trkpt>
      <trkpt lat="46.07697" lon="3.80968">
        <ele>1043</ele>
        <time>2015-04-12T10:54:00Z</time>
      </trkpt>
      <trkpt lat="46.07689" lon="3.8097">
        <ele>1043</ele>
        <time>2015-04-12T10:54:01Z</time>
      </trkpt>
      <trkpt lat="46.0768" lon="3.80973">
        <ele>1042</ele>
        <time>2015-04-12T10:54:02Z</time>
      </trkpt>
      <trkpt lat="46.07672" lon="3.80978">
        <ele>1042</ele>
        <time>2015-04-12T10:54:03Z</time>
      </trkpt>
      <trkpt lat="46.07664" lon="3.80981">
        <ele>1038</ele>
        <time>2015-04-12T10:54:04Z</time>
      </trkpt>
      <trkpt lat="46.07656" lon="3.80987">
        <ele>1038</ele>
        <time>2015-04-12T10:54:05Z</time>
      </trkpt>
      <trkpt lat="46.07648" lon="3.80992">
        <ele>1038</ele>
        <time>2015-04-12T10:54:06Z</time>
      </trkpt>
      <trkpt lat="46.07641" lon="3.80997">
        <ele>1038</ele>
        <time>2015-04-12T10:54:07Z</time>
      </trkpt>
      <trkpt lat="46.07632" lon="3.81002">
        <ele>1035</ele>
        <time>2015-04-12T10:54:08Z</time>
      </trkpt>
      <trkpt lat="46.07624" lon="3.81007">
        <ele>1035</ele>
        <time>2015-04-12T10:54:09Z</time>
      </trkpt>
      <trkpt lat="46.07617" lon="3.81011">
        <ele>1035</ele>
        <time>2015-04-12T10:54:10Z</time>
      </trkpt>
      <trkpt lat="46.07611" lon="3.81014">
        <ele>1035</ele>
        <time>2015-04-12T10:54:11Z</time>
      </trkpt>
      <trkpt lat="46.07606" lon="3.81014">
        <ele>1034</ele>
        <time>2015-04-12T10:54:12Z</time>
      </trkpt>
      <trkpt lat="46.07601" lon="3.81015">
        <ele>1034</ele>
        <time>2015-04-12T10:54:13Z</time>
      </trkpt>
      <trkpt lat="46.07596" lon="3.81016">
        <ele>1034</ele>
        <time>2015-04-12T10:54:14Z</time>
      </trkpt>
      <trkpt lat="46.07589" lon="3.81016">
        <ele>1034</ele>
        <time>2015-04-12T10:54:16Z</time>
      </trkpt>
      <trkpt lat="46.07583" lon="3.81017">
        <ele>1033</ele>
        <time>2015-04-12T10:54:18Z</time>
      </trkpt>
      <trkpt lat="46.07578" lon="3.81018">
        <ele>1033</ele>
        <time>2015-04-12T10:54:20Z</time>
      </trkpt>
      <trkpt lat="46.07572" lon="3.81018">
        <ele>1032</ele>
        <time>2015-04-12T10:54:22Z</time>
      </trkpt>
      <trkpt lat="46.07565" lon="3.8102">
        <ele>1032</ele>
        <time>2015-04-12T10:54:24Z</time>
      </trkpt>
      <trkpt lat="46.07558" lon="3.81023">
        <ele>1032</ele>
        <time>2015-04-12T10:54:26Z</time>
      </trkpt>
      <trkpt lat="46.07553" lon="3.81028">
        <ele>1032</ele>
        <time>2015-04-12T10:54:28Z</time>
      </trkpt>
      <trkpt lat="46.07546" lon="3.81031">
        <ele>1031</ele>
        <time>2015-04-12T10:54:30Z</time>
      </trkpt>
      <trkpt lat="46.07539" lon="3.81037">
        <ele>1031</ele>
        <time>2015-04-12T10:54:32Z</time>
      </trkpt>
      <trkpt lat="46.07537" lon="3.81043">
        <ele>1031</ele>
        <time>2015-04-12T10:54:40Z</time>
      </trkpt>
      <trkpt lat="46.0753" lon="3.81045">
        <ele>1031</ele>
        <time>2015-04-12T10:55:08Z</time>
      </trkpt>
      <trkpt lat="46.07525" lon="3.81048">
        <ele>1031</ele>
        <time>2015-04-12T10:55:10Z</time>
      </trkpt>
      <trkpt lat="46.07519" lon="3.81051">
        <ele>1031</ele>
        <time>2015-04-12T10:55:12Z</time>
      </trkpt>
      <trkpt lat="46.07513" lon="3.81054">
        <ele>1031</ele>
        <time>2015-04-12T10:55:14Z</time>
      </trkpt>
      <trkpt lat="46.07507" lon="3.81059">
        <ele>1030</ele>
        <time>2015-04-12T10:55:16Z</time>
      </trkpt>
      <trkpt lat="46.07501" lon="3.81065">
        <ele>1030</ele>
        <time>2015-04-12T10:55:18Z</time>
      </trkpt>
      <trkpt lat="46.07494" lon="3.81071">
        <ele>1028</ele>
        <time>2015-04-12T10:55:20Z</time>
      </trkpt>
      <trkpt lat="46.07487" lon="3.81077">
        <ele>1028</ele>
        <time>2015-04-12T10:55:22Z</time>
      </trkpt>
      <trkpt lat="46.0748" lon="3.81085">
        <ele>1026</ele>
        <time>2015-04-12T10:55:24Z</time>
      </trkpt>
      <trkpt lat="46.07476" lon="3.81089">
        <ele>1026</ele>
        <time>2015-04-12T10:55:25Z</time>
      </trkpt>
      <trkpt lat="46.07472" lon="3.81094">
        <ele>1026</ele>
        <time>2015-04-12T10:55:26Z</time>
      </trkpt>
      <trkpt lat="46.07468" lon="3.81098">
        <ele>1025</ele>
        <time>2015-04-12T10:55:27Z</time>
      </trkpt>
      <trkpt lat="46.07463" lon="3.81103">
        <ele>1025</ele>
        <time>2015-04-12T10:55:28Z</time>
      </trkpt>
      <trkpt lat="46.07458" lon="3.81107">
        <ele>1025</ele>
        <time>2015-04-12T10:55:29Z</time>
      </trkpt>
      <trkpt lat="46.07453" lon="3.81111">
        <ele>1024</ele>
        <time>2015-04-12T10:55:30Z</time>
      </trkpt>
      <trkpt lat="46.07449" lon="3.81116">
        <ele>1024</ele>
        <time>2015-04-12T10:55:31Z</time>
      </trkpt>
      <trkpt lat="46.07445" lon="3.8112">
        <ele>1024</ele>
        <time>2015-04-12T10:55:32Z</time>
      </trkpt>
      <trkpt lat="46.07441" lon="3.81124">
        <ele>1024</ele>
        <time>2015-04-12T10:55:33Z</time>
      </trkpt>
      <trkpt lat="46.07436" lon="3.81128">
        <ele>1023</ele>
        <time>2015-04-12T10:55:34Z</time>
      </trkpt>
      <trkpt lat="46.07431" lon="3.81133">
        <ele>1023</ele>
        <time>2015-04-12T10:55:35Z</time>
      </trkpt>
      <trkpt lat="46.07427" lon="3.81137">
        <ele>1023</ele>
        <time>2015-04-12T10:55:36Z</time>
      </trkpt>
      <trkpt lat="46.07422" lon="3.81144">
        <ele>1022</ele>
        <time>2015-04-12T10:55:38Z</time>
      </trkpt>
      <trkpt lat="46.07417" lon="3.81153">
        <ele>1022</ele>
        <time>2015-04-12T10:55:40Z</time>
      </trkpt>
      <trkpt lat="46.07412" lon="3.81165">
        <ele>1020</ele>
        <time>2015-04-12T10:55:42Z</time>
      </trkpt>
      <trkpt lat="46.07409" lon="3.81172">
        <ele>1019</ele>
        <time>2015-04-12T10:55:43Z</time>
      </trkpt>
      <trkpt lat="46.07406" lon="3.81179">
        <ele>1018</ele>
        <time>2015-04-12T10:55:44Z</time>
      </trkpt>
      <trkpt lat="46.07403" lon="3.81187">
        <ele>1018</ele>
        <time>2015-04-12T10:55:45Z</time>
      </trkpt>
      <trkpt lat="46.074" lon="3.81193">
        <ele>1017</ele>
        <time>2015-04-12T10:55:46Z</time>
      </trkpt>
      <trkpt lat="46.07397" lon="3.81199">
        <ele>1017</ele>
        <time>2015-04-12T10:55:47Z</time>
      </trkpt>
      <trkpt lat="46.07391" lon="3.81206">
        <ele>1016</ele>
        <time>2015-04-12T10:55:49Z</time>
      </trkpt>
      <trkpt lat="46.07387" lon="3.8121">
        <ele>1016</ele>
        <time>2015-04-12T10:55:50Z</time>
      </trkpt>
      <trkpt lat="46.07383" lon="3.81213">
        <ele>1016</ele>
        <time>2015-04-12T10:55:51Z</time>
      </trkpt>
      <trkpt lat="46.07375" lon="3.81219">
        <ele>1016</ele>
        <time>2015-04-12T10:55:53Z</time>
      </trkpt>
      <trkpt lat="46.07368" lon="3.81221">
        <ele>1016</ele>
        <time>2015-04-12T10:55:55Z</time>
      </trkpt>
      <trkpt lat="46.0736" lon="3.81222">
        <ele>1015</ele>
        <time>2015-04-12T10:55:57Z</time>
      </trkpt>
      <trkpt lat="46.07351" lon="3.81221">
        <ele>1015</ele>
        <time>2015-04-12T10:55:59Z</time>
      </trkpt>
      <trkpt lat="46.07343" lon="3.81221">
        <ele>1015</ele>
        <time>2015-04-12T10:56:01Z</time>
      </trkpt>
      <trkpt lat="46.07335" lon="3.81221">
        <ele>1015</ele>
        <time>2015-04-12T10:56:03Z</time>
      </trkpt>
      <trkpt lat="46.07328" lon="3.81224">
        <ele>1014</ele>
        <time>2015-04-12T10:56:05Z</time>
      </trkpt>
      <trkpt lat="46.07321" lon="3.81228">
        <ele>1014</ele>
        <time>2015-04-12T10:56:07Z</time>
      </trkpt>
      <trkpt lat="46.07314" lon="3.81231">
        <ele>1014</ele>
        <time>2015-04-12T10:56:09Z</time>
      </trkpt>
      <trkpt lat="46.07306" lon="3.81235">
        <ele>1014</ele>
        <time>2015-04-12T10:56:11Z</time>
      </trkpt>
      <trkpt lat="46.07299" lon="3.81239">
        <ele>1014</ele>
        <time>2015-04-12T10:56:13Z</time>
      </trkpt>
      <trkpt lat="46.07292" lon="3.81243">
        <ele>1013</ele>
        <time>2015-04-12T10:56:15Z</time>
      </trkpt>
      <trkpt lat="46.07288" lon="3.81245">
        <ele>1013</ele>
        <time>2015-04-12T10:56:16Z</time>
      </trkpt>
      <trkpt lat="46.07283" lon="3.81248">
        <ele>1013</ele>
        <time>2015-04-12T10:56:17Z</time>
      </trkpt>
      <trkpt lat="46.07278" lon="3.81251">
        <ele>1009</ele>
        <time>2015-04-12T10:56:18Z</time>
      </trkpt>
      <trkpt lat="46.07273" lon="3.81253">
        <ele>1009</ele>
        <time>2015-04-12T10:56:19Z</time>
      </trkpt>
      <trkpt lat="46.07266" lon="3.81257">
        <ele>1009</ele>
        <time>2015-04-12T10:56:21Z</time>
      </trkpt>
      <trkpt lat="46.07263" lon="3.81262">
        <ele>1009</ele>
        <time>2015-04-12T10:56:22Z</time>
      </trkpt>
      <trkpt lat="46.07259" lon="3.81267">
        <ele>1009</ele>
        <time>2015-04-12T10:56:23Z</time>
      </trkpt>
      <trkpt lat="46.07256" lon="3.81273">
        <ele>1008</ele>
        <time>2015-04-12T10:56:24Z</time>
      </trkpt>
      <trkpt lat="46.07253" lon="3.81279">
        <ele>1008</ele>
        <time>2015-04-12T10:56:25Z</time>
      </trkpt>
      <trkpt lat="46.07251" lon="3.81286">
        <ele>1007</ele>
        <time>2015-04-12T10:56:26Z</time>
      </trkpt>
      <trkpt lat="46.0725" lon="3.81292">
        <ele>1005</ele>
        <time>2015-04-12T10:56:27Z</time>
      </trkpt>
      <trkpt lat="46.07248" lon="3.81299">
        <ele>1005</ele>
        <time>2015-04-12T10:56:28Z</time>
      </trkpt>
      <trkpt lat="46.07246" lon="3.81307">
        <ele>1004</ele>
        <time>2015-04-12T10:56:29Z</time>
      </trkpt>
      <trkpt lat="46.07244" lon="3.81314">
        <ele>1003</ele>
        <time>2015-04-12T10:56:30Z</time>
      </trkpt>
      <trkpt lat="46.07241" lon="3.81322">
        <ele>1003</ele>
        <time>2015-04-12T10:56:31Z</time>
      </trkpt>
      <trkpt lat="46.07239" lon="3.81329">
        <ele>1003</ele>
        <time>2015-04-12T10:56:32Z</time>
      </trkpt>
      <trkpt lat="46.07236" lon="3.81338">
        <ele>1001</ele>
        <time>2015-04-12T10:56:33Z</time>
      </trkpt>
      <trkpt lat="46.07233" lon="3.81346">
        <ele>1000</ele>
        <time>2015-04-12T10:56:34Z</time>
      </trkpt>
      <trkpt lat="46.07231" lon="3.81354">
        <ele>1000</ele>
        <time>2015-04-12T10:56:35Z</time>
      </trkpt>
      <trkpt lat="46.07228" lon="3.81361">
        <ele>1000</ele>
        <time>2015-04-12T10:56:36Z</time>
      </trkpt>
      <trkpt lat="46.07225" lon="3.81367">
        <ele>1000</ele>
        <time>2015-04-12T10:56:37Z</time>
      </trkpt>
      <trkpt lat="46.07219" lon="3.81376">
        <ele>999</ele>
        <time>2015-04-12T10:56:39Z</time>
      </trkpt>
      <trkpt lat="46.07215" lon="3.81381">
        <ele>999</ele>
        <time>2015-04-12T10:56:40Z</time>
      </trkpt>
      <trkpt lat="46.07211" lon="3.81385">
        <ele>999</ele>
        <time>2015-04-12T10:56:41Z</time>
      </trkpt>
      <trkpt lat="46.07207" lon="3.81389">
        <ele>999</ele>
        <time>2015-04-12T10:56:42Z</time>
      </trkpt>
      <trkpt lat="46.07203" lon="3.81394">
        <ele>999</ele>
        <time>2015-04-12T10:56:43Z</time>
      </trkpt>
      <trkpt lat="46.072" lon="3.81399">
        <ele>999</ele>
        <time>2015-04-12T10:56:44Z</time>
      </trkpt>
      <trkpt lat="46.07195" lon="3.81409">
        <ele>998</ele>
        <time>2015-04-12T10:56:46Z</time>
      </trkpt>
      <trkpt lat="46.07191" lon="3.81414">
        <ele>998</ele>
        <time>2015-04-12T10:56:48Z</time>
      </trkpt>
      <trkpt lat="46.07184" lon="3.81419">
        <ele>997</ele>
        <time>2015-04-12T10:56:59Z</time>
      </trkpt>
      <trkpt lat="46.0719" lon="3.81413">
        <ele>998</ele>
        <time>2015-04-12T10:57:14Z</time>
      </trkpt>
      <trkpt lat="46.07195" lon="3.81413">
        <ele>998</ele>
        <time>2015-04-12T10:57:16Z</time>
      </trkpt>
      <trkpt lat="46.072" lon="3.81414">
        <ele>998</ele>
        <time>2015-04-12T10:57:18Z</time>
      </trkpt>
      <trkpt lat="46.07207" lon="3.81414">
        <ele>999</ele>
        <time>2015-04-12T10:57:20Z</time>
      </trkpt>
      <trkpt lat="46.07214" lon="3.81414">
        <ele>999</ele>
        <time>2015-04-12T10:57:22Z</time>
      </trkpt>
      <trkpt lat="46.0722" lon="3.81413">
        <ele>999</ele>
        <time>2015-04-12T10:57:24Z</time>
      </trkpt>
      <trkpt lat="46.07226" lon="3.81411">
        <ele>999</ele>
        <time>2015-04-12T10:57:26Z</time>
      </trkpt>
      <trkpt lat="46.07232" lon="3.8141">
        <ele>999</ele>
        <time>2015-04-12T10:57:28Z</time>
      </trkpt>
      <trkpt lat="46.07238" lon="3.81409">
        <ele>1000</ele>
        <time>2015-04-12T10:57:30Z</time>
      </trkpt>
      <trkpt lat="46.07246" lon="3.81408">
        <ele>1000</ele>
        <time>2015-04-12T10:57:32Z</time>
      </trkpt>
      <trkpt lat="46.07252" lon="3.81408">
        <ele>1001</ele>
        <time>2015-04-12T10:57:34Z</time>
      </trkpt>
      <trkpt lat="46.07261" lon="3.81407">
        <ele>1001</ele>
        <time>2015-04-12T10:57:36Z</time>
      </trkpt>
      <trkpt lat="46.07266" lon="3.81406">
        <ele>1001</ele>
        <time>2015-04-12T10:57:38Z</time>
      </trkpt>
      <trkpt lat="46.07271" lon="3.8141">
        <ele>1001</ele>
        <time>2015-04-12T10:57:40Z</time>
      </trkpt>
      <trkpt lat="46.07278" lon="3.81411">
        <ele>1002</ele>
        <time>2015-04-12T10:57:42Z</time>
      </trkpt>
      <trkpt lat="46.07285" lon="3.81413">
        <ele>1002</ele>
        <time>2015-04-12T10:57:44Z</time>
      </trkpt>
      <trkpt lat="46.07291" lon="3.81415">
        <ele>1002</ele>
        <time>2015-04-12T10:57:46Z</time>
      </trkpt>
      <trkpt lat="46.07297" lon="3.81417">
        <ele>1002</ele>
        <time>2015-04-12T10:57:48Z</time>
      </trkpt>
      <trkpt lat="46.07304" lon="3.81419">
        <ele>1002</ele>
        <time>2015-04-12T10:57:50Z</time>
      </trkpt>
      <trkpt lat="46.0731" lon="3.81421">
        <ele>1003</ele>
        <time>2015-04-12T10:57:52Z</time>
      </trkpt>
      <trkpt lat="46.07316" lon="3.81422">
        <ele>1003</ele>
        <time>2015-04-12T10:57:54Z</time>
      </trkpt>
      <trkpt lat="46.07323" lon="3.81424">
        <ele>1003</ele>
        <time>2015-04-12T10:57:56Z</time>
      </trkpt>
      <trkpt lat="46.07329" lon="3.81426">
        <ele>1003</ele>
        <time>2015-04-12T10:57:58Z</time>
      </trkpt>
      <trkpt lat="46.07335" lon="3.81428">
        <ele>1004</ele>
        <time>2015-04-12T10:58:00Z</time>
      </trkpt>
      <trkpt lat="46.07341" lon="3.8143">
        <ele>1004</ele>
        <time>2015-04-12T10:58:02Z</time>
      </trkpt>
      <trkpt lat="46.07347" lon="3.81434">
        <ele>1004</ele>
        <time>2015-04-12T10:58:04Z</time>
      </trkpt>
      <trkpt lat="46.07352" lon="3.81436">
        <ele>1004</ele>
        <time>2015-04-12T10:58:06Z</time>
      </trkpt>
      <trkpt lat="46.07358" lon="3.8144">
        <ele>1004</ele>
        <time>2015-04-12T10:58:08Z</time>
      </trkpt>
      <trkpt lat="46.07365" lon="3.81445">
        <ele>1004</ele>
        <time>2015-04-12T10:58:10Z</time>
      </trkpt>
      <trkpt lat="46.0737" lon="3.81448">
        <ele>1004</ele>
        <time>2015-04-12T10:58:12Z</time>
      </trkpt>
      <trkpt lat="46.07376" lon="3.81453">
        <ele>1004</ele>
        <time>2015-04-12T10:58:14Z</time>
      </trkpt>
      <trkpt lat="46.07381" lon="3.81458">
        <ele>1005</ele>
        <time>2015-04-12T10:58:16Z</time>
      </trkpt>
      <trkpt lat="46.07384" lon="3.81464">
        <ele>1005</ele>
        <time>2015-04-12T10:58:17Z</time>
      </trkpt>
      <trkpt lat="46.07391" lon="3.81474">
        <ele>1004</ele>
        <time>2015-04-12T10:58:19Z</time>
      </trkpt>
      <trkpt lat="46.07395" lon="3.81482">
        <ele>1004</ele>
        <time>2015-04-12T10:58:21Z</time>
      </trkpt>
      <trkpt lat="46.07398" lon="3.81489">
        <ele>1004</ele>
        <time>2015-04-12T10:58:23Z</time>
      </trkpt>
      <trkpt lat="46.07401" lon="3.81496">
        <ele>1004</ele>
        <time>2015-04-12T10:58:25Z</time>
      </trkpt>
      <trkpt lat="46.07405" lon="3.81502">
        <ele>1005</ele>
        <time>2015-04-12T10:58:27Z</time>
      </trkpt>
      <trkpt lat="46.07409" lon="3.81509">
        <ele>1005</ele>
        <time>2015-04-12T10:58:29Z</time>
      </trkpt>
      <trkpt lat="46.07413" lon="3.81517">
        <ele>1005</ele>
        <time>2015-04-12T10:58:31Z</time>
      </trkpt>
      <trkpt lat="46.07416" lon="3.81525">
        <ele>1006</ele>
        <time>2015-04-12T10:58:33Z</time>
      </trkpt>
      <trkpt lat="46.07421" lon="3.81534">
        <ele>1006</ele>
        <time>2015-04-12T10:58:35Z</time>
      </trkpt>
      <trkpt lat="46.07427" lon="3.81541">
        <ele>1006</ele>
        <time>2015-04-12T10:58:37Z</time>
      </trkpt>
      <trkpt lat="46.07431" lon="3.8155">
        <ele>1006</ele>
        <time>2015-04-12T10:58:39Z</time>
      </trkpt>
      <trkpt lat="46.07434" lon="3.8156">
        <ele>1007</ele>
        <time>2015-04-12T10:58:41Z</time>
      </trkpt>
      <trkpt lat="46.07439" lon="3.81568">
        <ele>1007</ele>
        <time>2015-04-12T10:58:43Z</time>
      </trkpt>
      <trkpt lat="46.07444" lon="3.81571">
        <ele>1007</ele>
        <time>2015-04-12T10:58:45Z</time>
      </trkpt>
      <trkpt lat="46.0745" lon="3.81571">
        <ele>1007</ele>
        <time>2015-04-12T10:58:47Z</time>
      </trkpt>
      <trkpt lat="46.07457" lon="3.81574">
        <ele>1007</ele>
        <time>2015-04-12T10:58:49Z</time>
      </trkpt>
      <trkpt lat="46.07465" lon="3.81577">
        <ele>1006</ele>
        <time>2015-04-12T10:58:51Z</time>
      </trkpt>
      <trkpt lat="46.0747" lon="3.81578">
        <ele>1006</ele>
        <time>2015-04-12T10:58:52Z</time>
      </trkpt>
      <trkpt lat="46.07475" lon="3.8158">
        <ele>1006</ele>
        <time>2015-04-12T10:58:53Z</time>
      </trkpt>
      <trkpt lat="46.0748" lon="3.81585">
        <ele>1005</ele>
        <time>2015-04-12T10:58:54Z</time>
      </trkpt>
      <trkpt lat="46.07487" lon="3.81588">
        <ele>1005</ele>
        <time>2015-04-12T10:58:56Z</time>
      </trkpt>
      <trkpt lat="46.07494" lon="3.81589">
        <ele>1006</ele>
        <time>2015-04-12T10:58:58Z</time>
      </trkpt>
      <trkpt lat="46.075" lon="3.8159">
        <ele>1006</ele>
        <time>2015-04-12T10:59:00Z</time>
      </trkpt>
      <trkpt lat="46.07507" lon="3.81592">
        <ele>1006</ele>
        <time>2015-04-12T10:59:02Z</time>
      </trkpt>
      <trkpt lat="46.07512" lon="3.81595">
        <ele>1006</ele>
        <time>2015-04-12T10:59:04Z</time>
      </trkpt>
      <trkpt lat="46.07519" lon="3.81595">
        <ele>1006</ele>
        <time>2015-04-12T10:59:08Z</time>
      </trkpt>
      <trkpt lat="46.07523" lon="3.81595">
        <ele>1006</ele>
        <time>2015-04-12T10:59:10Z</time>
      </trkpt>
      <trkpt lat="46.0753" lon="3.81596">
        <ele>1006</ele>
        <time>2015-04-12T10:59:13Z</time>
      </trkpt>
      <trkpt lat="46.07536" lon="3.81596">
        <ele>1006</ele>
        <time>2015-04-12T10:59:15Z</time>
      </trkpt>
      <trkpt lat="46.07542" lon="3.81595">
        <ele>1007</ele>
        <time>2015-04-12T10:59:17Z</time>
      </trkpt>
      <trkpt lat="46.07549" lon="3.81593">
        <ele>1007</ele>
        <time>2015-04-12T10:59:19Z</time>
      </trkpt>
      <trkpt lat="46.07554" lon="3.81591">
        <ele>1008</ele>
        <time>2015-04-12T10:59:20Z</time>
      </trkpt>
      <trkpt lat="46.07562" lon="3.81593">
        <ele>1008</ele>
        <time>2015-04-12T10:59:22Z</time>
      </trkpt>
      <trkpt lat="46.07569" lon="3.81595">
        <ele>1009</ele>
        <time>2015-04-12T10:59:24Z</time>
      </trkpt>
      <trkpt lat="46.07574" lon="3.81595">
        <ele>1009</ele>
        <time>2015-04-12T10:59:26Z</time>
      </trkpt>
      <trkpt lat="46.07579" lon="3.81596">
        <ele>1009</ele>
        <time>2015-04-12T10:59:29Z</time>
      </trkpt>
      <trkpt lat="46.07584" lon="3.81598">
        <ele>1012</ele>
        <time>2015-04-12T10:59:31Z</time>
      </trkpt>
      <trkpt lat="46.0759" lon="3.81601">
        <ele>1012</ele>
        <time>2015-04-12T10:59:33Z</time>
      </trkpt>
      <trkpt lat="46.07596" lon="3.81602">
        <ele>1012</ele>
        <time>2015-04-12T10:59:35Z</time>
      </trkpt>
      <trkpt lat="46.076" lon="3.81603">
        <ele>1012</ele>
        <time>2015-04-12T10:59:37Z</time>
      </trkpt>
      <trkpt lat="46.07604" lon="3.81608">
        <ele>1012</ele>
        <time>2015-04-12T10:59:39Z</time>
      </trkpt>
      <trkpt lat="46.0761" lon="3.81615">
        <ele>1012</ele>
        <time>2015-04-12T10:59:41Z</time>
      </trkpt>
      <trkpt lat="46.07615" lon="3.8162">
        <ele>1012</ele>
        <time>2015-04-12T10:59:43Z</time>
      </trkpt>
      <trkpt lat="46.07619" lon="3.81626">
        <ele>1012</ele>
        <time>2015-04-12T10:59:45Z</time>
      </trkpt>
      <trkpt lat="46.07625" lon="3.81633">
        <ele>1012</ele>
        <time>2015-04-12T10:59:47Z</time>
      </trkpt>
      <trkpt lat="46.0763" lon="3.81641">
        <ele>1012</ele>
        <time>2015-04-12T10:59:49Z</time>
      </trkpt>
      <trkpt lat="46.07635" lon="3.81646">
        <ele>1012</ele>
        <time>2015-04-12T10:59:51Z</time>
      </trkpt>
      <trkpt lat="46.07639" lon="3.81652">
        <ele>1012</ele>
        <time>2015-04-12T10:59:52Z</time>
      </trkpt>
      <trkpt lat="46.07645" lon="3.81658">
        <ele>1012</ele>
        <time>2015-04-12T10:59:54Z</time>
      </trkpt>
      <trkpt lat="46.0765" lon="3.81663">
        <ele>1012</ele>
        <time>2015-04-12T10:59:56Z</time>
      </trkpt>
      <trkpt lat="46.07655" lon="3.81669">
        <ele>1011</ele>
        <time>2015-04-12T10:59:58Z</time>
      </trkpt>
      <trkpt lat="46.07661" lon="3.81673">
        <ele>1011</ele>
        <time>2015-04-12T11:00:00Z</time>
      </trkpt>
      <trkpt lat="46.07666" lon="3.81678">
        <ele>1011</ele>
        <time>2015-04-12T11:00:02Z</time>
      </trkpt>
      <trkpt lat="46.0767" lon="3.81683">
        <ele>1013</ele>
        <time>2015-04-12T11:00:04Z</time>
      </trkpt>
      <trkpt lat="46.07675" lon="3.81692">
        <ele>1013</ele>
        <time>2015-04-12T11:00:07Z</time>
      </trkpt>
      <trkpt lat="46.07679" lon="3.81698">
        <ele>1013</ele>
        <time>2015-04-12T11:00:09Z</time>
      </trkpt>
      <trkpt lat="46.07684" lon="3.81706">
        <ele>1013</ele>
        <time>2015-04-12T11:00:11Z</time>
      </trkpt>
      <trkpt lat="46.07687" lon="3.81713">
        <ele>1013</ele>
        <time>2015-04-12T11:00:13Z</time>
      </trkpt>
      <trkpt lat="46.07692" lon="3.8172">
        <ele>1013</ele>
        <time>2015-04-12T11:00:15Z</time>
      </trkpt>
      <trkpt lat="46.07698" lon="3.81727">
        <ele>1013</ele>
        <time>2015-04-12T11:00:17Z</time>
      </trkpt>
      <trkpt lat="46.07702" lon="3.81735">
        <ele>1013</ele>
        <time>2015-04-12T11:00:19Z</time>
      </trkpt>
      <trkpt lat="46.07706" lon="3.81741">
        <ele>1013</ele>
        <time>2015-04-12T11:00:21Z</time>
      </trkpt>
      <trkpt lat="46.0771" lon="3.81746">
        <ele>1013</ele>
        <time>2015-04-12T11:00:23Z</time>
      </trkpt>
      <trkpt lat="46.07713" lon="3.81751">
        <ele>1010</ele>
        <time>2015-04-12T11:00:25Z</time>
      </trkpt>
      <trkpt lat="46.07718" lon="3.81755">
        <ele>1010</ele>
        <time>2015-04-12T11:00:27Z</time>
      </trkpt>
      <trkpt lat="46.07723" lon="3.8176">
        <ele>1011</ele>
        <time>2015-04-12T11:00:29Z</time>
      </trkpt>
      <trkpt lat="46.07728" lon="3.81768">
        <ele>1010</ele>
        <time>2015-04-12T11:00:31Z</time>
      </trkpt>
      <trkpt lat="46.07732" lon="3.81776">
        <ele>1010</ele>
        <time>2015-04-12T11:00:33Z</time>
      </trkpt>
      <trkpt lat="46.07736" lon="3.81782">
        <ele>1010</ele>
        <time>2015-04-12T11:00:35Z</time>
      </trkpt>
      <trkpt lat="46.0774" lon="3.81789">
        <ele>1010</ele>
        <time>2015-04-12T11:00:37Z</time>
      </trkpt>
      <trkpt lat="46.07745" lon="3.81794">
        <ele>1009</ele>
        <time>2015-04-12T11:00:39Z</time>
      </trkpt>
      <trkpt lat="46.07751" lon="3.81795">
        <ele>1010</ele>
        <time>2015-04-12T11:00:42Z</time>
      </trkpt>
      <trkpt lat="46.07757" lon="3.81793">
        <ele>1010</ele>
        <time>2015-04-12T11:00:45Z</time>
      </trkpt>
      <trkpt lat="46.07763" lon="3.8179">
        <ele>1010</ele>
        <time>2015-04-12T11:00:47Z</time>
      </trkpt>
      <trkpt lat="46.0777" lon="3.81787">
        <ele>1010</ele>
        <time>2015-04-12T11:00:49Z</time>
      </trkpt>
      <trkpt lat="46.07776" lon="3.81785">
        <ele>1010</ele>
        <time>2015-04-12T11:00:51Z</time>
      </trkpt>
      <trkpt lat="46.07783" lon="3.81782">
        <ele>1010</ele>
        <time>2015-04-12T11:00:53Z</time>
      </trkpt>
      <trkpt lat="46.0779" lon="3.81775">
        <ele>1010</ele>
        <time>2015-04-12T11:00:55Z</time>
      </trkpt>
      <trkpt lat="46.07796" lon="3.81773">
        <ele>1010</ele>
        <time>2015-04-12T11:00:57Z</time>
      </trkpt>
      <trkpt lat="46.07802" lon="3.81769">
        <ele>1010</ele>
        <time>2015-04-12T11:00:59Z</time>
      </trkpt>
      <trkpt lat="46.07809" lon="3.81766">
        <ele>1010</ele>
        <time>2015-04-12T11:01:01Z</time>
      </trkpt>
      <trkpt lat="46.07816" lon="3.81763">
        <ele>1010</ele>
        <time>2015-04-12T11:01:03Z</time>
      </trkpt>
      <trkpt lat="46.07822" lon="3.81759">
        <ele>1011</ele>
        <time>2015-04-12T11:01:05Z</time>
      </trkpt>
      <trkpt lat="46.07828" lon="3.81754">
        <ele>1011</ele>
        <time>2015-04-12T11:01:07Z</time>
      </trkpt>
      <trkpt lat="46.07833" lon="3.81752">
        <ele>1012</ele>
        <time>2015-04-12T11:01:09Z</time>
      </trkpt>
      <trkpt lat="46.07839" lon="3.81748">
        <ele>1012</ele>
        <time>2015-04-12T11:01:11Z</time>
      </trkpt>
      <trkpt lat="46.07845" lon="3.81745">
        <ele>1012</ele>
        <time>2015-04-12T11:01:13Z</time>
      </trkpt>
      <trkpt lat="46.0785" lon="3.81739">
        <ele>1012</ele>
        <time>2015-04-12T11:01:15Z</time>
      </trkpt>
      <trkpt lat="46.07854" lon="3.81733">
        <ele>1012</ele>
        <time>2015-04-12T11:01:17Z</time>
      </trkpt>
      <trkpt lat="46.07858" lon="3.81726">
        <ele>1012</ele>
        <time>2015-04-12T11:01:19Z</time>
      </trkpt>
      <trkpt lat="46.07862" lon="3.81719">
        <ele>1012</ele>
        <time>2015-04-12T11:01:21Z</time>
      </trkpt>
      <trkpt lat="46.07863" lon="3.81713">
        <ele>1012</ele>
        <time>2015-04-12T11:01:23Z</time>
      </trkpt>
      <trkpt lat="46.07866" lon="3.81705">
        <ele>1013</ele>
        <time>2015-04-12T11:01:25Z</time>
      </trkpt>
      <trkpt lat="46.0787" lon="3.81696">
        <ele>1013</ele>
        <time>2015-04-12T11:01:27Z</time>
      </trkpt>
      <trkpt lat="46.07874" lon="3.81687">
        <ele>1013</ele>
        <time>2015-04-12T11:01:29Z</time>
      </trkpt>
      <trkpt lat="46.07878" lon="3.81679">
        <ele>1013</ele>
        <time>2015-04-12T11:01:31Z</time>
      </trkpt>
      <trkpt lat="46.07882" lon="3.81673">
        <ele>1013</ele>
        <time>2015-04-12T11:01:33Z</time>
      </trkpt>
      <trkpt lat="46.07886" lon="3.81668">
        <ele>1013</ele>
        <time>2015-04-12T11:01:35Z</time>
      </trkpt>
      <trkpt lat="46.0789" lon="3.81663">
        <ele>1016</ele>
        <time>2015-04-12T11:01:37Z</time>
      </trkpt>
      <trkpt lat="46.07895" lon="3.81659">
        <ele>1016</ele>
        <time>2015-04-12T11:01:39Z</time>
      </trkpt>
      <trkpt lat="46.07903" lon="3.81656">
        <ele>1016</ele>
        <time>2015-04-12T11:02:22Z</time>
      </trkpt>
      <trkpt lat="46.07907" lon="3.8165">
        <ele>1016</ele>
        <time>2015-04-12T11:02:24Z</time>
      </trkpt>
      <trkpt lat="46.07911" lon="3.81644">
        <ele>1016</ele>
        <time>2015-04-12T11:02:26Z</time>
      </trkpt>
      <trkpt lat="46.07915" lon="3.81638">
        <ele>1017</ele>
        <time>2015-04-12T11:02:28Z</time>
      </trkpt>
      <trkpt lat="46.0792" lon="3.8163">
        <ele>1012</ele>
        <time>2015-04-12T11:02:30Z</time>
      </trkpt>
      <trkpt lat="46.07924" lon="3.81623">
        <ele>1013</ele>
        <time>2015-04-12T11:02:32Z</time>
      </trkpt>
      <trkpt lat="46.07929" lon="3.81616">
        <ele>1013</ele>
        <time>2015-04-12T11:02:34Z</time>
      </trkpt>
      <trkpt lat="46.07934" lon="3.8161">
        <ele>1013</ele>
        <time>2015-04-12T11:02:36Z</time>
      </trkpt>
      <trkpt lat="46.07938" lon="3.81604">
        <ele>1013</ele>
        <time>2015-04-12T11:02:38Z</time>
      </trkpt>
      <trkpt lat="46.07942" lon="3.81597">
        <ele>1013</ele>
        <time>2015-04-12T11:02:40Z</time>
      </trkpt>
      <trkpt lat="46.07947" lon="3.81591">
        <ele>1013</ele>
        <time>2015-04-12T11:02:42Z</time>
      </trkpt>
      <trkpt lat="46.07953" lon="3.81586">
        <ele>1013</ele>
        <time>2015-04-12T11:02:44Z</time>
      </trkpt>
      <trkpt lat="46.07959" lon="3.81581">
        <ele>1016</ele>
        <time>2015-04-12T11:02:46Z</time>
      </trkpt>
      <trkpt lat="46.07965" lon="3.81575">
        <ele>1016</ele>
        <time>2015-04-12T11:02:48Z</time>
      </trkpt>
      <trkpt lat="46.0797" lon="3.81569">
        <ele>1015</ele>
        <time>2015-04-12T11:02:50Z</time>
      </trkpt>
      <trkpt lat="46.07974" lon="3.81563">
        <ele>1015</ele>
        <time>2015-04-12T11:02:52Z</time>
      </trkpt>
      <trkpt lat="46.0798" lon="3.81555">
        <ele>1015</ele>
        <time>2015-04-12T11:02:54Z</time>
      </trkpt>
      <trkpt lat="46.07984" lon="3.81546">
        <ele>1016</ele>
        <time>2015-04-12T11:02:56Z</time>
      </trkpt>
      <trkpt lat="46.07988" lon="3.81542">
        <ele>1016</ele>
        <time>2015-04-12T11:02:58Z</time>
      </trkpt>
      <trkpt lat="46.07994" lon="3.81537">
        <ele>1016</ele>
        <time>2015-04-12T11:03:01Z</time>
      </trkpt>
      <trkpt lat="46.07996" lon="3.81532">
        <ele>1016</ele>
        <time>2015-04-12T11:03:04Z</time>
      </trkpt>
      <trkpt lat="46.08001" lon="3.81533">
        <ele>1014</ele>
        <time>2015-04-12T11:03:18Z</time>
      </trkpt>
      <trkpt lat="46.08006" lon="3.81533">
        <ele>1014</ele>
        <time>2015-04-12T11:03:21Z</time>
      </trkpt>
      <trkpt lat="46.0801" lon="3.8153">
        <ele>1014</ele>
        <time>2015-04-12T11:03:24Z</time>
      </trkpt>
      <trkpt lat="46.08015" lon="3.81525">
        <ele>1014</ele>
        <time>2015-04-12T11:03:27Z</time>
      </trkpt>
      <trkpt lat="46.08021" lon="3.81524">
        <ele>1014</ele>
        <time>2015-04-12T11:03:30Z</time>
      </trkpt>
      <trkpt lat="46.08025" lon="3.81522">
        <ele>1014</ele>
        <time>2015-04-12T11:03:32Z</time>
      </trkpt>
      <trkpt lat="46.0803" lon="3.81521">
        <ele>1014</ele>
        <time>2015-04-12T11:03:35Z</time>
      </trkpt>
      <trkpt lat="46.08035" lon="3.81522">
        <ele>1014</ele>
        <time>2015-04-12T11:03:38Z</time>
      </trkpt>
      <trkpt lat="46.0804" lon="3.81523">
        <ele>1015</ele>
        <time>2015-04-12T11:03:40Z</time>
      </trkpt>
      <trkpt lat="46.08044" lon="3.81525">
        <ele>1015</ele>
        <time>2015-04-12T11:03:42Z</time>
      </trkpt>
      <trkpt lat="46.08048" lon="3.8153">
        <ele>1014</ele>
        <time>2015-04-12T11:03:44Z</time>
      </trkpt>
      <trkpt lat="46.08053" lon="3.81534">
        <ele>1014</ele>
        <time>2015-04-12T11:03:46Z</time>
      </trkpt>
      <trkpt lat="46.08058" lon="3.81541">
        <ele>1014</ele>
        <time>2015-04-12T11:03:48Z</time>
      </trkpt>
      <trkpt lat="46.08064" lon="3.8155">
        <ele>1014</ele>
        <time>2015-04-12T11:03:50Z</time>
      </trkpt>
      <trkpt lat="46.08071" lon="3.81556">
        <ele>1013</ele>
        <time>2015-04-12T11:03:52Z</time>
      </trkpt>
      <trkpt lat="46.08075" lon="3.81559">
        <ele>1013</ele>
        <time>2015-04-12T11:03:53Z</time>
      </trkpt>
      <trkpt lat="46.08082" lon="3.81564">
        <ele>1012</ele>
        <time>2015-04-12T11:03:55Z</time>
      </trkpt>
      <trkpt lat="46.08088" lon="3.81566">
        <ele>1015</ele>
        <time>2015-04-12T11:03:57Z</time>
      </trkpt>
      <trkpt lat="46.08093" lon="3.81569">
        <ele>1015</ele>
        <time>2015-04-12T11:03:59Z</time>
      </trkpt>
      <trkpt lat="46.08097" lon="3.81573">
        <ele>1015</ele>
        <time>2015-04-12T11:04:01Z</time>
      </trkpt>
      <trkpt lat="46.08101" lon="3.81578">
        <ele>1015</ele>
        <time>2015-04-12T11:04:03Z</time>
      </trkpt>
      <trkpt lat="46.08105" lon="3.81581">
        <ele>1016</ele>
        <time>2015-04-12T11:04:06Z</time>
      </trkpt>
      <trkpt lat="46.08109" lon="3.81588">
        <ele>1012</ele>
        <time>2015-04-12T11:04:09Z</time>
      </trkpt>
      <trkpt lat="46.08114" lon="3.81592">
        <ele>1012</ele>
        <time>2015-04-12T11:04:12Z</time>
      </trkpt>
      <trkpt lat="46.08118" lon="3.81596">
        <ele>1012</ele>
        <time>2015-04-12T11:04:15Z</time>
      </trkpt>
      <trkpt lat="46.08121" lon="3.81602">
        <ele>1012</ele>
        <time>2015-04-12T11:04:18Z</time>
      </trkpt>
      <trkpt lat="46.08123" lon="3.81611">
        <ele>1012</ele>
        <time>2015-04-12T11:04:21Z</time>
      </trkpt>
      <trkpt lat="46.08126" lon="3.81618">
        <ele>1012</ele>
        <time>2015-04-12T11:04:23Z</time>
      </trkpt>
      <trkpt lat="46.08127" lon="3.81626">
        <ele>1012</ele>
        <time>2015-04-12T11:04:25Z</time>
      </trkpt>
      <trkpt lat="46.08128" lon="3.81633">
        <ele>1012</ele>
        <time>2015-04-12T11:04:27Z</time>
      </trkpt>
      <trkpt lat="46.0813" lon="3.81642">
        <ele>1011</ele>
        <time>2015-04-12T11:04:30Z</time>
      </trkpt>
      <trkpt lat="46.0813" lon="3.81648">
        <ele>1011</ele>
        <time>2015-04-12T11:04:34Z</time>
      </trkpt>
      <trkpt lat="46.08161" lon="3.81658">
        <ele>1014</ele>
        <time>2015-04-12T11:05:35Z</time>
      </trkpt>
      <trkpt lat="46.08166" lon="3.8166">
        <ele>1014</ele>
        <time>2015-04-12T11:05:38Z</time>
      </trkpt>
      <trkpt lat="46.08171" lon="3.81666">
        <ele>1016</ele>
        <time>2015-04-12T11:05:46Z</time>
      </trkpt>
      <trkpt lat="46.08176" lon="3.8167">
        <ele>1015</ele>
        <time>2015-04-12T11:05:49Z</time>
      </trkpt>
      <trkpt lat="46.08181" lon="3.81672">
        <ele>1015</ele>
        <time>2015-04-12T11:05:51Z</time>
      </trkpt>
      <trkpt lat="46.08188" lon="3.81671">
        <ele>1015</ele>
        <time>2015-04-12T11:05:54Z</time>
      </trkpt>
      <trkpt lat="46.08192" lon="3.81673">
        <ele>1015</ele>
        <time>2015-04-12T11:05:56Z</time>
      </trkpt>
      <trkpt lat="46.08198" lon="3.81677">
        <ele>1015</ele>
        <time>2015-04-12T11:05:59Z</time>
      </trkpt>
      <trkpt lat="46.08203" lon="3.81678">
        <ele>1015</ele>
        <time>2015-04-12T11:06:01Z</time>
      </trkpt>
      <trkpt lat="46.08208" lon="3.8168">
        <ele>1016</ele>
        <time>2015-04-12T11:06:04Z</time>
      </trkpt>
      <trkpt lat="46.08213" lon="3.8168">
        <ele>1016</ele>
        <time>2015-04-12T11:06:06Z</time>
      </trkpt>
      <trkpt lat="46.08219" lon="3.81681">
        <ele>1016</ele>
        <time>2015-04-12T11:06:10Z</time>
      </trkpt>
      <trkpt lat="46.08224" lon="3.8168">
        <ele>1016</ele>
        <time>2015-04-12T11:06:12Z</time>
      </trkpt>
      <trkpt lat="46.08229" lon="3.81681">
        <ele>1017</ele>
        <time>2015-04-12T11:06:15Z</time>
      </trkpt>
      <trkpt lat="46.08235" lon="3.81678">
        <ele>1017</ele>
        <time>2015-04-12T11:06:17Z</time>
      </trkpt>
      <trkpt lat="46.0824" lon="3.81674">
        <ele>1018</ele>
        <time>2015-04-12T11:06:19Z</time>
      </trkpt>
      <trkpt lat="46.08245" lon="3.81671">
        <ele>1019</ele>
        <time>2015-04-12T11:06:21Z</time>
      </trkpt>
      <trkpt lat="46.08249" lon="3.81671">
        <ele>1019</ele>
        <time>2015-04-12T11:06:23Z</time>
      </trkpt>
      <trkpt lat="46.08255" lon="3.81669">
        <ele>1019</ele>
        <time>2015-04-12T11:06:26Z</time>
      </trkpt>
      <trkpt lat="46.08259" lon="3.81666">
        <ele>1020</ele>
        <time>2015-04-12T11:06:28Z</time>
      </trkpt>
      <trkpt lat="46.08265" lon="3.81662">
        <ele>1020</ele>
        <time>2015-04-12T11:06:31Z</time>
      </trkpt>
      <trkpt lat="46.0827" lon="3.8166">
        <ele>1020</ele>
        <time>2015-04-12T11:06:34Z</time>
      </trkpt>
      <trkpt lat="46.08276" lon="3.81659">
        <ele>1020</ele>
        <time>2015-04-12T11:06:38Z</time>
      </trkpt>
      <trkpt lat="46.0828" lon="3.81655">
        <ele>1020</ele>
        <time>2015-04-12T11:06:40Z</time>
      </trkpt>
      <trkpt lat="46.08285" lon="3.81651">
        <ele>1020</ele>
        <time>2015-04-12T11:06:42Z</time>
      </trkpt>
      <trkpt lat="46.08291" lon="3.81647">
        <ele>1020</ele>
        <time>2015-04-12T11:06:45Z</time>
      </trkpt>
      <trkpt lat="46.08296" lon="3.81644">
        <ele>1020</ele>
        <time>2015-04-12T11:06:47Z</time>
      </trkpt>
      <trkpt lat="46.083" lon="3.81642">
        <ele>1020</ele>
        <time>2015-04-12T11:06:49Z</time>
      </trkpt>
      <trkpt lat="46.08306" lon="3.81638">
        <ele>1020</ele>
        <time>2015-04-12T11:06:52Z</time>
      </trkpt>
      <trkpt lat="46.0831" lon="3.81635">
        <ele>1020</ele>
        <time>2015-04-12T11:06:54Z</time>
      </trkpt>
      <trkpt lat="46.08316" lon="3.8163">
        <ele>1020</ele>
        <time>2015-04-12T11:06:57Z</time>
      </trkpt>
      <trkpt lat="46.0832" lon="3.81627">
        <ele>1021</ele>
        <time>2015-04-12T11:06:59Z</time>
      </trkpt>
      <trkpt lat="46.08325" lon="3.81622">
        <ele>1021</ele>
        <time>2015-04-12T11:07:01Z</time>
      </trkpt>
      <trkpt lat="46.08328" lon="3.81616">
        <ele>1021</ele>
        <time>2015-04-12T11:07:04Z</time>
      </trkpt>
      <trkpt lat="46.08332" lon="3.8161">
        <ele>1022</ele>
        <time>2015-04-12T11:07:07Z</time>
      </trkpt>
      <trkpt lat="46.08335" lon="3.81603">
        <ele>1019</ele>
        <time>2015-04-12T11:07:09Z</time>
      </trkpt>
      <trkpt lat="46.08337" lon="3.81596">
        <ele>1020</ele>
        <time>2015-04-12T11:07:11Z</time>
      </trkpt>
      <trkpt lat="46.08341" lon="3.81589">
        <ele>1021</ele>
        <time>2015-04-12T11:07:14Z</time>
      </trkpt>
      <trkpt lat="46.08346" lon="3.81585">
        <ele>1020</ele>
        <time>2015-04-12T11:07:16Z</time>
      </trkpt>
      <trkpt lat="46.0835" lon="3.81579">
        <ele>1023</ele>
        <time>2015-04-12T11:07:20Z</time>
      </trkpt>
      <trkpt lat="46.08353" lon="3.81575">
        <ele>1023</ele>
        <time>2015-04-12T11:07:22Z</time>
      </trkpt>
      <trkpt lat="46.08356" lon="3.81569">
        <ele>1023</ele>
        <time>2015-04-12T11:07:24Z</time>
      </trkpt>
      <trkpt lat="46.08359" lon="3.81562">
        <ele>1023</ele>
        <time>2015-04-12T11:07:28Z</time>
      </trkpt>
      <trkpt lat="46.08364" lon="3.81556">
        <ele>1023</ele>
        <time>2015-04-12T11:07:32Z</time>
      </trkpt>
      <trkpt lat="46.08368" lon="3.81549">
        <ele>1023</ele>
        <time>2015-04-12T11:07:35Z</time>
      </trkpt>
      <trkpt lat="46.08371" lon="3.81543">
        <ele>1023</ele>
        <time>2015-04-12T11:07:38Z</time>
      </trkpt>
      <trkpt lat="46.08376" lon="3.81538">
        <ele>1023</ele>
        <time>2015-04-12T11:07:41Z</time>
      </trkpt>
      <trkpt lat="46.0838" lon="3.81534">
        <ele>1023</ele>
        <time>2015-04-12T11:07:43Z</time>
      </trkpt>
      <trkpt lat="46.08384" lon="3.81531">
        <ele>1024</ele>
        <time>2015-04-12T11:07:45Z</time>
      </trkpt>
      <trkpt lat="46.08388" lon="3.81525">
        <ele>1024</ele>
        <time>2015-04-12T11:07:48Z</time>
      </trkpt>
      <trkpt lat="46.08395" lon="3.8152">
        <ele>1024</ele>
        <time>2015-04-12T11:08:13Z</time>
      </trkpt>
      <trkpt lat="46.08399" lon="3.81516">
        <ele>1024</ele>
        <time>2015-04-12T11:08:16Z</time>
      </trkpt>
      <trkpt lat="46.08404" lon="3.8151">
        <ele>1025</ele>
        <time>2015-04-12T11:08:19Z</time>
      </trkpt>
      <trkpt lat="46.08408" lon="3.81502">
        <ele>1025</ele>
        <time>2015-04-12T11:08:22Z</time>
      </trkpt>
      <trkpt lat="46.08411" lon="3.81496">
        <ele>1028</ele>
        <time>2015-04-12T11:08:26Z</time>
      </trkpt>
      <trkpt lat="46.08416" lon="3.81487">
        <ele>1029</ele>
        <time>2015-04-12T11:08:31Z</time>
      </trkpt>
      <trkpt lat="46.08419" lon="3.81477">
        <ele>1025</ele>
        <time>2015-04-12T11:08:36Z</time>
      </trkpt>
      <trkpt lat="46.08421" lon="3.81471">
        <ele>1025</ele>
        <time>2015-04-12T11:08:39Z</time>
      </trkpt>
      <trkpt lat="46.08426" lon="3.81461">
        <ele>1025</ele>
        <time>2015-04-12T11:08:45Z</time>
      </trkpt>
      <trkpt lat="46.08428" lon="3.81456">
        <ele>1025</ele>
        <time>2015-04-12T11:08:47Z</time>
      </trkpt>
      <trkpt lat="46.08433" lon="3.8145">
        <ele>1025</ele>
        <time>2015-04-12T11:08:50Z</time>
      </trkpt>
      <trkpt lat="46.08438" lon="3.81446">
        <ele>1025</ele>
        <time>2015-04-12T11:08:52Z</time>
      </trkpt>
      <trkpt lat="46.08444" lon="3.81442">
        <ele>1025</ele>
        <time>2015-04-12T11:08:55Z</time>
      </trkpt>
      <trkpt lat="46.08448" lon="3.81439">
        <ele>1025</ele>
        <time>2015-04-12T11:08:57Z</time>
      </trkpt>
      <trkpt lat="46.08467" lon="3.81429">
        <ele>1023</ele>
        <time>2015-04-12T11:09:07Z</time>
      </trkpt>
      <trkpt lat="46.08473" lon="3.81423">
        <ele>1022</ele>
        <time>2015-04-12T11:09:09Z</time>
      </trkpt>
      <trkpt lat="46.08478" lon="3.8142">
        <ele>1022</ele>
        <time>2015-04-12T11:09:11Z</time>
      </trkpt>
      <trkpt lat="46.08484" lon="3.81417">
        <ele>1022</ele>
        <time>2015-04-12T11:09:14Z</time>
      </trkpt>
      <trkpt lat="46.0849" lon="3.81415">
        <ele>1024</ele>
        <time>2015-04-12T11:09:16Z</time>
      </trkpt>
      <trkpt lat="46.08492" lon="3.81408">
        <ele>1024</ele>
        <time>2015-04-12T11:09:20Z</time>
      </trkpt>
      <trkpt lat="46.08495" lon="3.814">
        <ele>1025</ele>
        <time>2015-04-12T11:09:23Z</time>
      </trkpt>
      <trkpt lat="46.08498" lon="3.81393">
        <ele>1027</ele>
        <time>2015-04-12T11:09:26Z</time>
      </trkpt>
      <trkpt lat="46.08501" lon="3.81385">
        <ele>1022</ele>
        <time>2015-04-12T11:09:29Z</time>
      </trkpt>
      <trkpt lat="46.08503" lon="3.81377">
        <ele>1023</ele>
        <time>2015-04-12T11:09:32Z</time>
      </trkpt>
      <trkpt lat="46.08508" lon="3.81363">
        <ele>1024</ele>
        <time>2015-04-12T11:09:38Z</time>
      </trkpt>
      <trkpt lat="46.08511" lon="3.81358">
        <ele>1024</ele>
        <time>2015-04-12T11:09:40Z</time>
      </trkpt>
      <trkpt lat="46.08519" lon="3.81342">
        <ele>1025</ele>
        <time>2015-04-12T11:10:00Z</time>
      </trkpt>
      <trkpt lat="46.08522" lon="3.81336">
        <ele>1025</ele>
        <time>2015-04-12T11:10:03Z</time>
      </trkpt>
      <trkpt lat="46.08536" lon="3.81313">
        <ele>1031</ele>
        <time>2015-04-12T11:10:15Z</time>
      </trkpt>
      <trkpt lat="46.08539" lon="3.81308">
        <ele>1031</ele>
        <time>2015-04-12T11:10:17Z</time>
      </trkpt>
      <trkpt lat="46.08543" lon="3.81301">
        <ele>1031</ele>
        <time>2015-04-12T11:10:20Z</time>
      </trkpt>
      <trkpt lat="46.08545" lon="3.81295">
        <ele>1031</ele>
        <time>2015-04-12T11:10:23Z</time>
      </trkpt>
      <trkpt lat="46.08547" lon="3.81287">
        <ele>1032</ele>
        <time>2015-04-12T11:10:27Z</time>
      </trkpt>
      <trkpt lat="46.08558" lon="3.81235">
        <ele>1039</ele>
        <time>2015-04-12T11:11:42Z</time>
      </trkpt>
      <trkpt lat="46.08561" lon="3.81228">
        <ele>1039</ele>
        <time>2015-04-12T11:11:51Z</time>
      </trkpt>
      <trkpt lat="46.08563" lon="3.81222">
        <ele>1039</ele>
        <time>2015-04-12T11:11:54Z</time>
      </trkpt>
      <trkpt lat="46.08572" lon="3.812">
        <ele>1041</ele>
        <time>2015-04-12T11:12:05Z</time>
      </trkpt>
      <trkpt lat="46.08574" lon="3.81194">
        <ele>1041</ele>
        <time>2015-04-12T11:12:07Z</time>
      </trkpt>
      <trkpt lat="46.08577" lon="3.81189">
        <ele>1041</ele>
        <time>2015-04-12T11:12:09Z</time>
      </trkpt>
      <trkpt lat="46.08579" lon="3.81183">
        <ele>1041</ele>
        <time>2015-04-12T11:12:11Z</time>
      </trkpt>
      <trkpt lat="46.0858" lon="3.81176">
        <ele>1042</ele>
        <time>2015-04-12T11:12:14Z</time>
      </trkpt>
      <trkpt lat="46.08596" lon="3.81163">
        <ele>1041</ele>
        <time>2015-04-12T11:12:33Z</time>
      </trkpt>
      <trkpt lat="46.08598" lon="3.81169">
        <ele>1036</ele>
        <time>2015-04-12T11:12:36Z</time>
      </trkpt>
      <trkpt lat="46.08604" lon="3.81163">
        <ele>1040</ele>
        <time>2015-04-12T11:12:49Z</time>
      </trkpt>
      <trkpt lat="46.08607" lon="3.81156">
        <ele>1039</ele>
        <time>2015-04-12T11:12:52Z</time>
      </trkpt>
      <trkpt lat="46.0861" lon="3.8115">
        <ele>1039</ele>
        <time>2015-04-12T11:12:55Z</time>
      </trkpt>
      <trkpt lat="46.08614" lon="3.81145">
        <ele>1039</ele>
        <time>2015-04-12T11:12:57Z</time>
      </trkpt>
      <trkpt lat="46.08618" lon="3.81139">
        <ele>1039</ele>
        <time>2015-04-12T11:13:00Z</time>
      </trkpt>
      <trkpt lat="46.08644" lon="3.81099">
        <ele>1038</ele>
        <time>2015-04-12T11:13:38Z</time>
      </trkpt>
      <trkpt lat="46.08647" lon="3.81095">
        <ele>1038</ele>
        <time>2015-04-12T11:13:41Z</time>
      </trkpt>
      <trkpt lat="46.08652" lon="3.81101">
        <ele>1038</ele>
        <time>2015-04-12T11:13:46Z</time>
      </trkpt>
      <trkpt lat="46.08656" lon="3.81107">
        <ele>1037</ele>
        <time>2015-04-12T11:13:49Z</time>
      </trkpt>
      <trkpt lat="46.08672" lon="3.81118">
        <ele>1026</ele>
        <time>2015-04-12T11:14:27Z</time>
      </trkpt>
      <trkpt lat="46.08673" lon="3.81124">
        <ele>1025</ele>
        <time>2015-04-12T11:14:30Z</time>
      </trkpt>
      <trkpt lat="46.08674" lon="3.81132">
        <ele>1025</ele>
        <time>2015-04-12T11:14:33Z</time>
      </trkpt>
      <trkpt lat="46.08694" lon="3.81149">
        <ele>1023</ele>
        <time>2015-04-12T11:14:51Z</time>
      </trkpt>
      <trkpt lat="46.08715" lon="3.81111">
        <ele>1021</ele>
        <time>2015-04-12T11:15:50Z</time>
      </trkpt>
      <trkpt lat="46.08715" lon="3.81104">
        <ele>1022</ele>
        <time>2015-04-12T11:15:52Z</time>
      </trkpt>
      <trkpt lat="46.0872" lon="3.81073">
        <ele>1026</ele>
        <time>2015-04-12T11:16:16Z</time>
      </trkpt>
      <trkpt lat="46.08726" lon="3.81055">
        <ele>1027</ele>
        <time>2015-04-12T11:16:26Z</time>
      </trkpt>
      <trkpt lat="46.08724" lon="3.81041">
        <ele>1028</ele>
        <time>2015-04-12T11:18:36Z</time>
      </trkpt>
      <trkpt lat="46.08707" lon="3.8101">
        <ele>1031</ele>
        <time>2015-04-12T11:24:11Z</time>
      </trkpt>
      <trkpt lat="46.08703" lon="3.81005">
        <ele>1032</ele>
        <time>2015-04-12T11:24:15Z</time>
      </trkpt>
      <trkpt lat="46.08727" lon="3.80965">
        <ele>1037</ele>
        <time>2015-04-12T11:24:46Z</time>
      </trkpt>
      <trkpt lat="46.0873" lon="3.80959">
        <ele>1037</ele>
        <time>2015-04-12T11:24:50Z</time>
      </trkpt>
      <trkpt lat="46.08742" lon="3.80951">
        <ele>1038</ele>
        <time>2015-04-12T11:24:59Z</time>
      </trkpt>
      <trkpt lat="46.08778" lon="3.80925">
        <ele>1033</ele>
        <time>2015-04-12T11:25:44Z</time>
      </trkpt>
      <trkpt lat="46.08783" lon="3.80923">
        <ele>1033</ele>
        <time>2015-04-12T11:25:47Z</time>
      </trkpt>
      <trkpt lat="46.08811" lon="3.80931">
        <ele>1031</ele>
        <time>2015-04-12T11:26:37Z</time>
      </trkpt>
      <trkpt lat="46.08815" lon="3.80935">
        <ele>1030</ele>
        <time>2015-04-12T11:26:46Z</time>
      </trkpt>
      <trkpt lat="46.0882" lon="3.80936">
        <ele>1030</ele>
        <time>2015-04-12T11:26:49Z</time>
      </trkpt>
      <trkpt lat="46.08825" lon="3.80939">
        <ele>1030</ele>
        <time>2015-04-12T11:26:53Z</time>
      </trkpt>
      <trkpt lat="46.08828" lon="3.80945">
        <ele>1030</ele>
        <time>2015-04-12T11:26:59Z</time>
      </trkpt>
      <trkpt lat="46.08829" lon="3.80952">
        <ele>1030</ele>
        <time>2015-04-12T11:27:03Z</time>
      </trkpt>
      <trkpt lat="46.0883" lon="3.80959">
        <ele>1029</ele>
        <time>2015-04-12T11:27:05Z</time>
      </trkpt>
      <trkpt lat="46.08832" lon="3.80965">
        <ele>1029</ele>
        <time>2015-04-12T11:27:07Z</time>
      </trkpt>
      <trkpt lat="46.08835" lon="3.80972">
        <ele>1025</ele>
        <time>2015-04-12T11:27:09Z</time>
      </trkpt>
      <trkpt lat="46.08838" lon="3.8098">
        <ele>1025</ele>
        <time>2015-04-12T11:27:11Z</time>
      </trkpt>
      <trkpt lat="46.08841" lon="3.80987">
        <ele>1025</ele>
        <time>2015-04-12T11:27:13Z</time>
      </trkpt>
      <trkpt lat="46.08842" lon="3.80994">
        <ele>1025</ele>
        <time>2015-04-12T11:27:15Z</time>
      </trkpt>
      <trkpt lat="46.08843" lon="3.81001">
        <ele>1023</ele>
        <time>2015-04-12T11:27:17Z</time>
      </trkpt>
      <trkpt lat="46.08843" lon="3.8101">
        <ele>1022</ele>
        <time>2015-04-12T11:27:19Z</time>
      </trkpt>
      <trkpt lat="46.08843" lon="3.81019">
        <ele>1021</ele>
        <time>2015-04-12T11:27:21Z</time>
      </trkpt>
      <trkpt lat="46.08842" lon="3.81027">
        <ele>1021</ele>
        <time>2015-04-12T11:27:23Z</time>
      </trkpt>
      <trkpt lat="46.08841" lon="3.81034">
        <ele>1020</ele>
        <time>2015-04-12T11:27:25Z</time>
      </trkpt>
      <trkpt lat="46.08841" lon="3.81044">
        <ele>1020</ele>
        <time>2015-04-12T11:27:27Z</time>
      </trkpt>
      <trkpt lat="46.08837" lon="3.81056">
        <ele>1019</ele>
        <time>2015-04-12T11:27:29Z</time>
      </trkpt>
      <trkpt lat="46.08834" lon="3.81067">
        <ele>1018</ele>
        <time>2015-04-12T11:27:31Z</time>
      </trkpt>
      <trkpt lat="46.08832" lon="3.81078">
        <ele>1018</ele>
        <time>2015-04-12T11:27:33Z</time>
      </trkpt>
      <trkpt lat="46.08832" lon="3.81088">
        <ele>1016</ele>
        <time>2015-04-12T11:27:35Z</time>
      </trkpt>
      <trkpt lat="46.08832" lon="3.81097">
        <ele>1015</ele>
        <time>2015-04-12T11:27:37Z</time>
      </trkpt>
      <trkpt lat="46.08831" lon="3.81104">
        <ele>1014</ele>
        <time>2015-04-12T11:27:39Z</time>
      </trkpt>
      <trkpt lat="46.08832" lon="3.81111">
        <ele>1014</ele>
        <time>2015-04-12T11:27:42Z</time>
      </trkpt>
      <trkpt lat="46.08833" lon="3.8112">
        <ele>1013</ele>
        <time>2015-04-12T11:27:45Z</time>
      </trkpt>
      <trkpt lat="46.08835" lon="3.8113">
        <ele>1012</ele>
        <time>2015-04-12T11:27:48Z</time>
      </trkpt>
      <trkpt lat="46.08835" lon="3.81137">
        <ele>1011</ele>
        <time>2015-04-12T11:27:50Z</time>
      </trkpt>
      <trkpt lat="46.08837" lon="3.81144">
        <ele>1011</ele>
        <time>2015-04-12T11:27:52Z</time>
      </trkpt>
      <trkpt lat="46.08839" lon="3.8115">
        <ele>1010</ele>
        <time>2015-04-12T11:27:54Z</time>
      </trkpt>
      <trkpt lat="46.08839" lon="3.81158">
        <ele>1010</ele>
        <time>2015-04-12T11:27:56Z</time>
      </trkpt>
      <trkpt lat="46.08838" lon="3.81166">
        <ele>1009</ele>
        <time>2015-04-12T11:27:58Z</time>
      </trkpt>
      <trkpt lat="46.08838" lon="3.81174">
        <ele>1007</ele>
        <time>2015-04-12T11:28:01Z</time>
      </trkpt>
      <trkpt lat="46.08843" lon="3.81177">
        <ele>1006</ele>
        <time>2015-04-12T11:28:04Z</time>
      </trkpt>
      <trkpt lat="46.08847" lon="3.8118">
        <ele>1006</ele>
        <time>2015-04-12T11:28:08Z</time>
      </trkpt>
      <trkpt lat="46.08851" lon="3.81186">
        <ele>1005</ele>
        <time>2015-04-12T11:28:12Z</time>
      </trkpt>
      <trkpt lat="46.08856" lon="3.81187">
        <ele>1005</ele>
        <time>2015-04-12T11:28:31Z</time>
      </trkpt>
      <trkpt lat="46.08861" lon="3.8119">
        <ele>1004</ele>
        <time>2015-04-12T11:28:39Z</time>
      </trkpt>
      <trkpt lat="46.08865" lon="3.81194">
        <ele>1004</ele>
        <time>2015-04-12T11:28:42Z</time>
      </trkpt>
      <trkpt lat="46.08869" lon="3.81198">
        <ele>1004</ele>
        <time>2015-04-12T11:28:46Z</time>
      </trkpt>
      <trkpt lat="46.08874" lon="3.812">
        <ele>1003</ele>
        <time>2015-04-12T11:28:50Z</time>
      </trkpt>
      <trkpt lat="46.08881" lon="3.81201">
        <ele>1003</ele>
        <time>2015-04-12T11:28:53Z</time>
      </trkpt>
      <trkpt lat="46.08886" lon="3.81201">
        <ele>1003</ele>
        <time>2015-04-12T11:28:56Z</time>
      </trkpt>
      <trkpt lat="46.08891" lon="3.81201">
        <ele>1003</ele>
        <time>2015-04-12T11:28:58Z</time>
      </trkpt>
      <trkpt lat="46.08894" lon="3.81205">
        <ele>1003</ele>
        <time>2015-04-12T11:29:00Z</time>
      </trkpt>
      <trkpt lat="46.08896" lon="3.81214">
        <ele>1002</ele>
        <time>2015-04-12T11:29:03Z</time>
      </trkpt>
      <trkpt lat="46.08895" lon="3.81221">
        <ele>1002</ele>
        <time>2015-04-12T11:29:06Z</time>
      </trkpt>
      <trkpt lat="46.08896" lon="3.81229">
        <ele>1001</ele>
        <time>2015-04-12T11:29:48Z</time>
      </trkpt>
      <trkpt lat="46.08891" lon="3.81236">
        <ele>1001</ele>
        <time>2015-04-12T11:29:52Z</time>
      </trkpt>
      <trkpt lat="46.08888" lon="3.81241">
        <ele>1001</ele>
        <time>2015-04-12T11:29:54Z</time>
      </trkpt>
      <trkpt lat="46.08883" lon="3.81248">
        <ele>1001</ele>
        <time>2015-04-12T11:29:56Z</time>
      </trkpt>
      <trkpt lat="46.08878" lon="3.81256">
        <ele>992</ele>
        <time>2015-04-12T11:29:58Z</time>
      </trkpt>
      <trkpt lat="46.08873" lon="3.81263">
        <ele>992</ele>
        <time>2015-04-12T11:30:00Z</time>
      </trkpt>
      <trkpt lat="46.08869" lon="3.81268">
        <ele>992</ele>
        <time>2015-04-12T11:30:02Z</time>
      </trkpt>
      <trkpt lat="46.08866" lon="3.81273">
        <ele>991</ele>
        <time>2015-04-12T11:30:04Z</time>
      </trkpt>
      <trkpt lat="46.08862" lon="3.81279">
        <ele>991</ele>
        <time>2015-04-12T11:30:07Z</time>
      </trkpt>
      <trkpt lat="46.08859" lon="3.81285">
        <ele>990</ele>
        <time>2015-04-12T11:30:13Z</time>
      </trkpt>
      <trkpt lat="46.08856" lon="3.81291">
        <ele>990</ele>
        <time>2015-04-12T11:30:17Z</time>
      </trkpt>
      <trkpt lat="46.08852" lon="3.81296">
        <ele>989</ele>
        <time>2015-04-12T11:30:20Z</time>
      </trkpt>
      <trkpt lat="46.08848" lon="3.81301">
        <ele>988</ele>
        <time>2015-04-12T11:30:23Z</time>
      </trkpt>
      <trkpt lat="46.08844" lon="3.81306">
        <ele>987</ele>
        <time>2015-04-12T11:30:26Z</time>
      </trkpt>
      <trkpt lat="46.08841" lon="3.81312">
        <ele>986</ele>
        <time>2015-04-12T11:30:29Z</time>
      </trkpt>
      <trkpt lat="46.08837" lon="3.81316">
        <ele>985</ele>
        <time>2015-04-12T11:30:33Z</time>
      </trkpt>
      <trkpt lat="46.08829" lon="3.81315">
        <ele>984</ele>
        <time>2015-04-12T11:30:36Z</time>
      </trkpt>
      <trkpt lat="46.08824" lon="3.81317">
        <ele>984</ele>
        <time>2015-04-12T11:30:39Z</time>
      </trkpt>
      <trkpt lat="46.08818" lon="3.81314">
        <ele>984</ele>
        <time>2015-04-12T11:30:42Z</time>
      </trkpt>
      <trkpt lat="46.08813" lon="3.81312">
        <ele>984</ele>
        <time>2015-04-12T11:30:45Z</time>
      </trkpt>
      <trkpt lat="46.08809" lon="3.81311">
        <ele>985</ele>
        <time>2015-04-12T11:30:49Z</time>
      </trkpt>
      <trkpt lat="46.08804" lon="3.81308">
        <ele>985</ele>
        <time>2015-04-12T11:30:53Z</time>
      </trkpt>
      <trkpt lat="46.088" lon="3.81307">
        <ele>985</ele>
        <time>2015-04-12T11:30:57Z</time>
      </trkpt>
      <trkpt lat="46.08796" lon="3.81304">
        <ele>985</ele>
        <time>2015-04-12T11:31:02Z</time>
      </trkpt>
      <trkpt lat="46.08791" lon="3.81303">
        <ele>985</ele>
        <time>2015-04-12T11:31:08Z</time>
      </trkpt>
      <trkpt lat="46.08786" lon="3.81299">
        <ele>985</ele>
        <time>2015-04-12T11:31:13Z</time>
      </trkpt>
      <trkpt lat="46.08781" lon="3.81296">
        <ele>985</ele>
        <time>2015-04-12T11:31:17Z</time>
      </trkpt>
      <trkpt lat="46.08776" lon="3.81293">
        <ele>985</ele>
        <time>2015-04-12T11:31:22Z</time>
      </trkpt>
      <trkpt lat="46.08771" lon="3.81294">
        <ele>985</ele>
        <time>2015-04-12T11:31:27Z</time>
      </trkpt>
      <trkpt lat="46.08766" lon="3.81291">
        <ele>985</ele>
        <time>2015-04-12T11:31:32Z</time>
      </trkpt>
      <trkpt lat="46.08762" lon="3.81295">
        <ele>985</ele>
        <time>2015-04-12T11:31:39Z</time>
      </trkpt>
      <trkpt lat="46.08758" lon="3.81299">
        <ele>984</ele>
        <time>2015-04-12T11:31:45Z</time>
      </trkpt>
      <trkpt lat="46.08758" lon="3.81307">
        <ele>982</ele>
        <time>2015-04-12T11:32:02Z</time>
      </trkpt>
      <trkpt lat="46.08755" lon="3.81316">
        <ele>980</ele>
        <time>2015-04-12T11:32:07Z</time>
      </trkpt>
      <trkpt lat="46.08752" lon="3.81324">
        <ele>978</ele>
        <time>2015-04-12T11:32:21Z</time>
      </trkpt>
      <trkpt lat="46.08748" lon="3.81329">
        <ele>977</ele>
        <time>2015-04-12T11:32:25Z</time>
      </trkpt>
      <trkpt lat="46.08746" lon="3.81335">
        <ele>975</ele>
        <time>2015-04-12T11:32:29Z</time>
      </trkpt>
      <trkpt lat="46.08744" lon="3.81341">
        <ele>976</ele>
        <time>2015-04-12T11:32:33Z</time>
      </trkpt>
      <trkpt lat="46.08741" lon="3.81347">
        <ele>977</ele>
        <time>2015-04-12T11:32:36Z</time>
      </trkpt>
      <trkpt lat="46.0874" lon="3.81353">
        <ele>977</ele>
        <time>2015-04-12T11:32:40Z</time>
      </trkpt>
      <trkpt lat="46.08739" lon="3.81361">
        <ele>978</ele>
        <time>2015-04-12T11:32:43Z</time>
      </trkpt>
      <trkpt lat="46.08738" lon="3.8137">
        <ele>977</ele>
        <time>2015-04-12T11:32:45Z</time>
      </trkpt>
      <trkpt lat="46.08738" lon="3.81379">
        <ele>976</ele>
        <time>2015-04-12T11:32:47Z</time>
      </trkpt>
      <trkpt lat="46.08738" lon="3.81386">
        <ele>975</ele>
        <time>2015-04-12T11:32:49Z</time>
      </trkpt>
      <trkpt lat="46.08737" lon="3.81393">
        <ele>974</ele>
        <time>2015-04-12T11:32:51Z</time>
      </trkpt>
      <trkpt lat="46.08736" lon="3.81403">
        <ele>971</ele>
        <time>2015-04-12T11:32:59Z</time>
      </trkpt>
      <trkpt lat="46.08737" lon="3.81409">
        <ele>970</ele>
        <time>2015-04-12T11:33:02Z</time>
      </trkpt>
      <trkpt lat="46.08737" lon="3.81416">
        <ele>969</ele>
        <time>2015-04-12T11:33:04Z</time>
      </trkpt>
      <trkpt lat="46.08737" lon="3.81424">
        <ele>965</ele>
        <time>2015-04-12T11:33:06Z</time>
      </trkpt>
      <trkpt lat="46.08737" lon="3.81433">
        <ele>966</ele>
        <time>2015-04-12T11:33:08Z</time>
      </trkpt>
      <trkpt lat="46.08738" lon="3.81443">
        <ele>966</ele>
        <time>2015-04-12T11:33:11Z</time>
      </trkpt>
      <trkpt lat="46.08738" lon="3.81451">
        <ele>966</ele>
        <time>2015-04-12T11:33:13Z</time>
      </trkpt>
      <trkpt lat="46.08736" lon="3.81458">
        <ele>966</ele>
        <time>2015-04-12T11:33:15Z</time>
      </trkpt>
      <trkpt lat="46.08736" lon="3.81467">
        <ele>965</ele>
        <time>2015-04-12T11:33:18Z</time>
      </trkpt>
      <trkpt lat="46.08735" lon="3.81474">
        <ele>965</ele>
        <time>2015-04-12T11:33:20Z</time>
      </trkpt>
      <trkpt lat="46.08733" lon="3.81481">
        <ele>964</ele>
        <time>2015-04-12T11:33:23Z</time>
      </trkpt>
      <trkpt lat="46.08736" lon="3.81489">
        <ele>962</ele>
        <time>2015-04-12T11:33:26Z</time>
      </trkpt>
      <trkpt lat="46.08737" lon="3.81498">
        <ele>961</ele>
        <time>2015-04-12T11:33:28Z</time>
      </trkpt>
      <trkpt lat="46.08737" lon="3.81505">
        <ele>957</ele>
        <time>2015-04-12T11:33:30Z</time>
      </trkpt>
      <trkpt lat="46.08739" lon="3.81516">
        <ele>958</ele>
        <time>2015-04-12T11:33:32Z</time>
      </trkpt>
      <trkpt lat="46.0874" lon="3.81525">
        <ele>958</ele>
        <time>2015-04-12T11:33:34Z</time>
      </trkpt>
      <trkpt lat="46.08743" lon="3.81534">
        <ele>958</ele>
        <time>2015-04-12T11:33:36Z</time>
      </trkpt>
      <trkpt lat="46.08745" lon="3.81544">
        <ele>957</ele>
        <time>2015-04-12T11:33:38Z</time>
      </trkpt>
      <trkpt lat="46.08748" lon="3.81553">
        <ele>956</ele>
        <time>2015-04-12T11:33:40Z</time>
      </trkpt>
      <trkpt lat="46.08753" lon="3.81556">
        <ele>947</ele>
        <time>2015-04-12T11:33:42Z</time>
      </trkpt>
      <trkpt lat="46.08757" lon="3.81559">
        <ele>947</ele>
        <time>2015-04-12T11:33:44Z</time>
      </trkpt>
      <trkpt lat="46.08763" lon="3.81567">
        <ele>947</ele>
        <time>2015-04-12T11:33:46Z</time>
      </trkpt>
      <trkpt lat="46.0877" lon="3.81574">
        <ele>947</ele>
        <time>2015-04-12T11:33:48Z</time>
      </trkpt>
      <trkpt lat="46.08775" lon="3.81577">
        <ele>947</ele>
        <time>2015-04-12T11:33:49Z</time>
      </trkpt>
      <trkpt lat="46.08779" lon="3.8158">
        <ele>946</ele>
        <time>2015-04-12T11:33:50Z</time>
      </trkpt>
      <trkpt lat="46.08787" lon="3.81585">
        <ele>942</ele>
        <time>2015-04-12T11:33:52Z</time>
      </trkpt>
      <trkpt lat="46.08792" lon="3.81591">
        <ele>942</ele>
        <time>2015-04-12T11:33:54Z</time>
      </trkpt>
      <trkpt lat="46.08795" lon="3.81595">
        <ele>941</ele>
        <time>2015-04-12T11:33:56Z</time>
      </trkpt>
      <trkpt lat="46.08799" lon="3.81601">
        <ele>941</ele>
        <time>2015-04-12T11:33:59Z</time>
      </trkpt>
      <trkpt lat="46.08801" lon="3.81608">
        <ele>941</ele>
        <time>2015-04-12T11:34:01Z</time>
      </trkpt>
      <trkpt lat="46.08805" lon="3.81613">
        <ele>940</ele>
        <time>2015-04-12T11:34:03Z</time>
      </trkpt>
      <trkpt lat="46.08809" lon="3.81618">
        <ele>940</ele>
        <time>2015-04-12T11:34:05Z</time>
      </trkpt>
      <trkpt lat="46.08812" lon="3.81623">
        <ele>940</ele>
        <time>2015-04-12T11:34:07Z</time>
      </trkpt>
      <trkpt lat="46.08816" lon="3.81632">
        <ele>939</ele>
        <time>2015-04-12T11:34:10Z</time>
      </trkpt>
      <trkpt lat="46.08819" lon="3.8164">
        <ele>939</ele>
        <time>2015-04-12T11:34:12Z</time>
      </trkpt>
      <trkpt lat="46.08824" lon="3.8165">
        <ele>937</ele>
        <time>2015-04-12T11:34:14Z</time>
      </trkpt>
      <trkpt lat="46.08828" lon="3.81656">
        <ele>936</ele>
        <time>2015-04-12T11:34:16Z</time>
      </trkpt>
      <trkpt lat="46.08832" lon="3.81662">
        <ele>935</ele>
        <time>2015-04-12T11:34:18Z</time>
      </trkpt>
      <trkpt lat="46.08835" lon="3.81669">
        <ele>933</ele>
        <time>2015-04-12T11:34:31Z</time>
      </trkpt>
      <trkpt lat="46.08838" lon="3.81677">
        <ele>932</ele>
        <time>2015-04-12T11:34:33Z</time>
      </trkpt>
      <trkpt lat="46.08841" lon="3.81685">
        <ele>930</ele>
        <time>2015-04-12T11:34:35Z</time>
      </trkpt>
      <trkpt lat="46.08843" lon="3.81694">
        <ele>930</ele>
        <time>2015-04-12T11:34:37Z</time>
      </trkpt>
      <trkpt lat="46.08845" lon="3.81701">
        <ele>929</ele>
        <time>2015-04-12T11:34:39Z</time>
      </trkpt>
      <trkpt lat="46.08851" lon="3.81711">
        <ele>929</ele>
        <time>2015-04-12T11:34:41Z</time>
      </trkpt>
      <trkpt lat="46.08854" lon="3.81717">
        <ele>928</ele>
        <time>2015-04-12T11:34:42Z</time>
      </trkpt>
      <trkpt lat="46.08857" lon="3.81722">
        <ele>928</ele>
        <time>2015-04-12T11:34:43Z</time>
      </trkpt>
      <trkpt lat="46.08863" lon="3.8173">
        <ele>928</ele>
        <time>2015-04-12T11:34:45Z</time>
      </trkpt>
      <trkpt lat="46.08867" lon="3.81739">
        <ele>928</ele>
        <time>2015-04-12T11:34:47Z</time>
      </trkpt>
      <trkpt lat="46.08873" lon="3.81745">
        <ele>927</ele>
        <time>2015-04-12T11:34:49Z</time>
      </trkpt>
      <trkpt lat="46.08879" lon="3.81752">
        <ele>923</ele>
        <time>2015-04-12T11:34:51Z</time>
      </trkpt>
      <trkpt lat="46.08885" lon="3.81757">
        <ele>923</ele>
        <time>2015-04-12T11:34:52Z</time>
      </trkpt>
      <trkpt lat="46.0889" lon="3.81762">
        <ele>922</ele>
        <time>2015-04-12T11:34:53Z</time>
      </trkpt>
      <trkpt lat="46.08894" lon="3.81766">
        <ele>922</ele>
        <time>2015-04-12T11:34:54Z</time>
      </trkpt>
      <trkpt lat="46.08898" lon="3.8177">
        <ele>922</ele>
        <time>2015-04-12T11:34:56Z</time>
      </trkpt>
      <trkpt lat="46.08901" lon="3.81774">
        <ele>922</ele>
        <time>2015-04-12T11:34:58Z</time>
      </trkpt>
      <trkpt lat="46.08906" lon="3.81779">
        <ele>922</ele>
        <time>2015-04-12T11:35:00Z</time>
      </trkpt>
      <trkpt lat="46.08907" lon="3.81786">
        <ele>921</ele>
        <time>2015-04-12T11:35:03Z</time>
      </trkpt>
      <trkpt lat="46.0891" lon="3.81791">
        <ele>921</ele>
        <time>2015-04-12T11:35:05Z</time>
      </trkpt>
      <trkpt lat="46.08911" lon="3.818">
        <ele>920</ele>
        <time>2015-04-12T11:35:07Z</time>
      </trkpt>
      <trkpt lat="46.08909" lon="3.81808">
        <ele>920</ele>
        <time>2015-04-12T11:35:09Z</time>
      </trkpt>
      <trkpt lat="46.08906" lon="3.81814">
        <ele>920</ele>
        <time>2015-04-12T11:35:11Z</time>
      </trkpt>
      <trkpt lat="46.08905" lon="3.81823">
        <ele>919</ele>
        <time>2015-04-12T11:35:14Z</time>
      </trkpt>
      <trkpt lat="46.08906" lon="3.8183">
        <ele>918</ele>
        <time>2015-04-12T11:35:45Z</time>
      </trkpt>
      <trkpt lat="46.0891" lon="3.81834">
        <ele>916</ele>
        <time>2015-04-12T11:35:47Z</time>
      </trkpt>
      <trkpt lat="46.08915" lon="3.81838">
        <ele>916</ele>
        <time>2015-04-12T11:35:49Z</time>
      </trkpt>
      <trkpt lat="46.0892" lon="3.81844">
        <ele>913</ele>
        <time>2015-04-12T11:35:51Z</time>
      </trkpt>
      <trkpt lat="46.08924" lon="3.81851">
        <ele>911</ele>
        <time>2015-04-12T11:35:53Z</time>
      </trkpt>
      <trkpt lat="46.08927" lon="3.8186">
        <ele>910</ele>
        <time>2015-04-12T11:35:55Z</time>
      </trkpt>
      <trkpt lat="46.08927" lon="3.81869">
        <ele>910</ele>
        <time>2015-04-12T11:35:57Z</time>
      </trkpt>
      <trkpt lat="46.08926" lon="3.81876">
        <ele>909</ele>
        <time>2015-04-12T11:35:59Z</time>
      </trkpt>
      <trkpt lat="46.08923" lon="3.81884">
        <ele>909</ele>
        <time>2015-04-12T11:36:02Z</time>
      </trkpt>
      <trkpt lat="46.08921" lon="3.81893">
        <ele>909</ele>
        <time>2015-04-12T11:36:05Z</time>
      </trkpt>
      <trkpt lat="46.08919" lon="3.81902">
        <ele>910</ele>
        <time>2015-04-12T11:36:08Z</time>
      </trkpt>
      <trkpt lat="46.08917" lon="3.81908">
        <ele>910</ele>
        <time>2015-04-12T11:36:09Z</time>
      </trkpt>
      <trkpt lat="46.08914" lon="3.81914">
        <ele>911</ele>
        <time>2015-04-12T11:36:11Z</time>
      </trkpt>
      <trkpt lat="46.08912" lon="3.81922">
        <ele>911</ele>
        <time>2015-04-12T11:36:14Z</time>
      </trkpt>
      <trkpt lat="46.0891" lon="3.81928">
        <ele>910</ele>
        <time>2015-04-12T11:36:16Z</time>
      </trkpt>
      <trkpt lat="46.08907" lon="3.81933">
        <ele>910</ele>
        <time>2015-04-12T11:36:18Z</time>
      </trkpt>
      <trkpt lat="46.08902" lon="3.81938">
        <ele>910</ele>
        <time>2015-04-12T11:36:21Z</time>
      </trkpt>
      <trkpt lat="46.08898" lon="3.81942">
        <ele>910</ele>
        <time>2015-04-12T11:36:42Z</time>
      </trkpt>
      <trkpt lat="46.08893" lon="3.81945">
        <ele>910</ele>
        <time>2015-04-12T11:36:45Z</time>
      </trkpt>
      <trkpt lat="46.08887" lon="3.81947">
        <ele>910</ele>
        <time>2015-04-12T11:36:48Z</time>
      </trkpt>
      <trkpt lat="46.08882" lon="3.8195">
        <ele>910</ele>
        <time>2015-04-12T11:36:51Z</time>
      </trkpt>
      <trkpt lat="46.08876" lon="3.81953">
        <ele>910</ele>
        <time>2015-04-12T11:36:54Z</time>
      </trkpt>
      <trkpt lat="46.0887" lon="3.81958">
        <ele>910</ele>
        <time>2015-04-12T11:36:57Z</time>
      </trkpt>
      <trkpt lat="46.08866" lon="3.81962">
        <ele>910</ele>
        <time>2015-04-12T11:37:00Z</time>
      </trkpt>
      <trkpt lat="46.08859" lon="3.81965">
        <ele>910</ele>
        <time>2015-04-12T11:37:03Z</time>
      </trkpt>
      <trkpt lat="46.08854" lon="3.81967">
        <ele>910</ele>
        <time>2015-04-12T11:37:05Z</time>
      </trkpt>
      <trkpt lat="46.0885" lon="3.81968">
        <ele>910</ele>
        <time>2015-04-12T11:37:07Z</time>
      </trkpt>
      <trkpt lat="46.08843" lon="3.8197">
        <ele>910</ele>
        <time>2015-04-12T11:37:10Z</time>
      </trkpt>
      <trkpt lat="46.08838" lon="3.81971">
        <ele>910</ele>
        <time>2015-04-12T11:37:13Z</time>
      </trkpt>
      <trkpt lat="46.08833" lon="3.81973">
        <ele>908</ele>
        <time>2015-04-12T11:37:16Z</time>
      </trkpt>
      <trkpt lat="46.08831" lon="3.81979">
        <ele>908</ele>
        <time>2015-04-12T11:37:23Z</time>
      </trkpt>
      <trkpt lat="46.08831" lon="3.81986">
        <ele>908</ele>
        <time>2015-04-12T11:37:34Z</time>
      </trkpt>
      <trkpt lat="46.08826" lon="3.81988">
        <ele>908</ele>
        <time>2015-04-12T11:37:39Z</time>
      </trkpt>
      <trkpt lat="46.08818" lon="3.8199">
        <ele>908</ele>
        <time>2015-04-12T11:37:57Z</time>
      </trkpt>
      <trkpt lat="46.08813" lon="3.8199">
        <ele>908</ele>
        <time>2015-04-12T11:37:58Z</time>
      </trkpt>
      <trkpt lat="46.08808" lon="3.8199">
        <ele>908</ele>
        <time>2015-04-12T11:37:59Z</time>
      </trkpt>
      <trkpt lat="46.08803" lon="3.81991">
        <ele>907</ele>
        <time>2015-04-12T11:38:00Z</time>
      </trkpt>
      <trkpt lat="46.08799" lon="3.81993">
        <ele>907</ele>
        <time>2015-04-12T11:38:01Z</time>
      </trkpt>
      <trkpt lat="46.0879" lon="3.81995">
        <ele>906</ele>
        <time>2015-04-12T11:38:03Z</time>
      </trkpt>
      <trkpt lat="46.08782" lon="3.81996">
        <ele>906</ele>
        <time>2015-04-12T11:38:05Z</time>
      </trkpt>
      <trkpt lat="46.08773" lon="3.81998">
        <ele>905</ele>
        <time>2015-04-12T11:38:07Z</time>
      </trkpt>
      <trkpt lat="46.08769" lon="3.81999">
        <ele>904</ele>
        <time>2015-04-12T11:38:08Z</time>
      </trkpt>
      <trkpt lat="46.08761" lon="3.81999">
        <ele>903</ele>
        <time>2015-04-12T11:38:10Z</time>
      </trkpt>
      <trkpt lat="46.08755" lon="3.81996">
        <ele>902</ele>
        <time>2015-04-12T11:38:12Z</time>
      </trkpt>
      <trkpt lat="46.0875" lon="3.81993">
        <ele>902</ele>
        <time>2015-04-12T11:38:14Z</time>
      </trkpt>
      <trkpt lat="46.08745" lon="3.81987">
        <ele>903</ele>
        <time>2015-04-12T11:38:18Z</time>
      </trkpt>
      <trkpt lat="46.0874" lon="3.8198">
        <ele>905</ele>
        <time>2015-04-12T11:38:21Z</time>
      </trkpt>
      <trkpt lat="46.08734" lon="3.81976">
        <ele>905</ele>
        <time>2015-04-12T11:38:23Z</time>
      </trkpt>
      <trkpt lat="46.08726" lon="3.81974">
        <ele>906</ele>
        <time>2015-04-12T11:38:25Z</time>
      </trkpt>
      <trkpt lat="46.08719" lon="3.81974">
        <ele>906</ele>
        <time>2015-04-12T11:38:27Z</time>
      </trkpt>
      <trkpt lat="46.08711" lon="3.81979">
        <ele>907</ele>
        <time>2015-04-12T11:38:29Z</time>
      </trkpt>
      <trkpt lat="46.08707" lon="3.81983">
        <ele>907</ele>
        <time>2015-04-12T11:38:30Z</time>
      </trkpt>
      <trkpt lat="46.087" lon="3.8199">
        <ele>907</ele>
        <time>2015-04-12T11:38:32Z</time>
      </trkpt>
      <trkpt lat="46.08694" lon="3.81998">
        <ele>907</ele>
        <time>2015-04-12T11:38:34Z</time>
      </trkpt>
      <trkpt lat="46.08688" lon="3.82007">
        <ele>903</ele>
        <time>2015-04-12T11:38:36Z</time>
      </trkpt>
      <trkpt lat="46.08685" lon="3.82016">
        <ele>903</ele>
        <time>2015-04-12T11:38:38Z</time>
      </trkpt>
      <trkpt lat="46.08681" lon="3.82024">
        <ele>902</ele>
        <time>2015-04-12T11:38:40Z</time>
      </trkpt>
      <trkpt lat="46.08676" lon="3.82033">
        <ele>902</ele>
        <time>2015-04-12T11:38:42Z</time>
      </trkpt>
      <trkpt lat="46.08673" lon="3.82042">
        <ele>901</ele>
        <time>2015-04-12T11:38:44Z</time>
      </trkpt>
      <trkpt lat="46.0867" lon="3.82049">
        <ele>901</ele>
        <time>2015-04-12T11:38:46Z</time>
      </trkpt>
      <trkpt lat="46.08668" lon="3.82056">
        <ele>901</ele>
        <time>2015-04-12T11:38:48Z</time>
      </trkpt>
      <trkpt lat="46.08665" lon="3.82062">
        <ele>908</ele>
        <time>2015-04-12T11:38:50Z</time>
      </trkpt>
      <trkpt lat="46.08663" lon="3.82069">
        <ele>906</ele>
        <time>2015-04-12T11:38:52Z</time>
      </trkpt>
      <trkpt lat="46.0866" lon="3.82078">
        <ele>904</ele>
        <time>2015-04-12T11:38:54Z</time>
      </trkpt>
      <trkpt lat="46.08658" lon="3.82086">
        <ele>903</ele>
        <time>2015-04-12T11:38:56Z</time>
      </trkpt>
      <trkpt lat="46.08655" lon="3.82094">
        <ele>905</ele>
        <time>2015-04-12T11:38:58Z</time>
      </trkpt>
      <trkpt lat="46.08653" lon="3.82106">
        <ele>906</ele>
        <time>2015-04-12T11:39:00Z</time>
      </trkpt>
      <trkpt lat="46.0865" lon="3.82114">
        <ele>907</ele>
        <time>2015-04-12T11:39:02Z</time>
      </trkpt>
      <trkpt lat="46.08648" lon="3.82122">
        <ele>907</ele>
        <time>2015-04-12T11:39:04Z</time>
      </trkpt>
      <trkpt lat="46.08646" lon="3.8213">
        <ele>907</ele>
        <time>2015-04-12T11:39:06Z</time>
      </trkpt>
      <trkpt lat="46.08641" lon="3.82142">
        <ele>907</ele>
        <time>2015-04-12T11:39:08Z</time>
      </trkpt>
      <trkpt lat="46.08638" lon="3.82153">
        <ele>907</ele>
        <time>2015-04-12T11:39:10Z</time>
      </trkpt>
      <trkpt lat="46.08635" lon="3.82163">
        <ele>907</ele>
        <time>2015-04-12T11:39:12Z</time>
      </trkpt>
      <trkpt lat="46.08633" lon="3.82174">
        <ele>905</ele>
        <time>2015-04-12T11:39:14Z</time>
      </trkpt>
      <trkpt lat="46.08631" lon="3.8218">
        <ele>906</ele>
        <time>2015-04-12T11:39:15Z</time>
      </trkpt>
      <trkpt lat="46.0863" lon="3.82187">
        <ele>906</ele>
        <time>2015-04-12T11:39:16Z</time>
      </trkpt>
      <trkpt lat="46.08628" lon="3.82199">
        <ele>906</ele>
        <time>2015-04-12T11:39:18Z</time>
      </trkpt>
      <trkpt lat="46.08626" lon="3.8221">
        <ele>906</ele>
        <time>2015-04-12T11:39:20Z</time>
      </trkpt>
      <trkpt lat="46.08624" lon="3.82222">
        <ele>906</ele>
        <time>2015-04-12T11:39:22Z</time>
      </trkpt>
      <trkpt lat="46.08623" lon="3.82228">
        <ele>906</ele>
        <time>2015-04-12T11:39:23Z</time>
      </trkpt>
      <trkpt lat="46.08622" lon="3.82236">
        <ele>906</ele>
        <time>2015-04-12T11:39:24Z</time>
      </trkpt>
      <trkpt lat="46.0862" lon="3.82243">
        <ele>906</ele>
        <time>2015-04-12T11:39:25Z</time>
      </trkpt>
      <trkpt lat="46.08619" lon="3.8225">
        <ele>906</ele>
        <time>2015-04-12T11:39:26Z</time>
      </trkpt>
      <trkpt lat="46.08618" lon="3.82256">
        <ele>904</ele>
        <time>2015-04-12T11:39:27Z</time>
      </trkpt>
      <trkpt lat="46.08615" lon="3.82263">
        <ele>904</ele>
        <time>2015-04-12T11:39:28Z</time>
      </trkpt>
      <trkpt lat="46.08611" lon="3.82273">
        <ele>905</ele>
        <time>2015-04-12T11:39:30Z</time>
      </trkpt>
      <trkpt lat="46.08609" lon="3.82282">
        <ele>904</ele>
        <time>2015-04-12T11:39:32Z</time>
      </trkpt>
      <trkpt lat="46.08605" lon="3.82293">
        <ele>904</ele>
        <time>2015-04-12T11:39:34Z</time>
      </trkpt>
      <trkpt lat="46.08601" lon="3.82303">
        <ele>904</ele>
        <time>2015-04-12T11:39:36Z</time>
      </trkpt>
      <trkpt lat="46.08597" lon="3.82311">
        <ele>904</ele>
        <time>2015-04-12T11:39:38Z</time>
      </trkpt>
      <trkpt lat="46.08593" lon="3.82318">
        <ele>904</ele>
        <time>2015-04-12T11:39:40Z</time>
      </trkpt>
      <trkpt lat="46.08588" lon="3.82329">
        <ele>904</ele>
        <time>2015-04-12T11:39:42Z</time>
      </trkpt>
      <trkpt lat="46.08586" lon="3.82335">
        <ele>904</ele>
        <time>2015-04-12T11:39:43Z</time>
      </trkpt>
      <trkpt lat="46.08583" lon="3.82342">
        <ele>903</ele>
        <time>2015-04-12T11:39:44Z</time>
      </trkpt>
      <trkpt lat="46.08581" lon="3.82348">
        <ele>905</ele>
        <time>2015-04-12T11:39:45Z</time>
      </trkpt>
      <trkpt lat="46.0858" lon="3.82355">
        <ele>906</ele>
        <time>2015-04-12T11:39:46Z</time>
      </trkpt>
      <trkpt lat="46.08578" lon="3.82367">
        <ele>906</ele>
        <time>2015-04-12T11:39:48Z</time>
      </trkpt>
      <trkpt lat="46.08578" lon="3.82374">
        <ele>905</ele>
        <time>2015-04-12T11:39:49Z</time>
      </trkpt>
      <trkpt lat="46.08579" lon="3.82381">
        <ele>905</ele>
        <time>2015-04-12T11:39:50Z</time>
      </trkpt>
      <trkpt lat="46.08583" lon="3.82389">
        <ele>904</ele>
        <time>2015-04-12T11:39:52Z</time>
      </trkpt>
      <trkpt lat="46.08589" lon="3.82396">
        <ele>900</ele>
        <time>2015-04-12T11:39:54Z</time>
      </trkpt>
      <trkpt lat="46.08594" lon="3.82399">
        <ele>900</ele>
        <time>2015-04-12T11:39:56Z</time>
      </trkpt>
      <trkpt lat="46.08601" lon="3.82399">
        <ele>900</ele>
        <time>2015-04-12T11:39:58Z</time>
      </trkpt>
      <trkpt lat="46.08606" lon="3.82396">
        <ele>900</ele>
        <time>2015-04-12T11:39:59Z</time>
      </trkpt>
      <trkpt lat="46.0861" lon="3.8239">
        <ele>900</ele>
        <time>2015-04-12T11:40:00Z</time>
      </trkpt>
      <trkpt lat="46.08615" lon="3.82386">
        <ele>901</ele>
        <time>2015-04-12T11:40:01Z</time>
      </trkpt>
      <trkpt lat="46.08619" lon="3.82382">
        <ele>901</ele>
        <time>2015-04-12T11:40:02Z</time>
      </trkpt>
      <trkpt lat="46.08625" lon="3.82374">
        <ele>901</ele>
        <time>2015-04-12T11:40:04Z</time>
      </trkpt>
      <trkpt lat="46.08631" lon="3.82367">
        <ele>901</ele>
        <time>2015-04-12T11:40:06Z</time>
      </trkpt>
      <trkpt lat="46.08637" lon="3.82358">
        <ele>901</ele>
        <time>2015-04-12T11:40:08Z</time>
      </trkpt>
      <trkpt lat="46.0864" lon="3.82353">
        <ele>901</ele>
        <time>2015-04-12T11:40:09Z</time>
      </trkpt>
      <trkpt lat="46.08646" lon="3.82346">
        <ele>901</ele>
        <time>2015-04-12T11:40:11Z</time>
      </trkpt>
      <trkpt lat="46.08652" lon="3.82338">
        <ele>900</ele>
        <time>2015-04-12T11:40:13Z</time>
      </trkpt>
      <trkpt lat="46.08656" lon="3.82333">
        <ele>900</ele>
        <time>2015-04-12T11:40:14Z</time>
      </trkpt>
      <trkpt lat="46.0866" lon="3.82329">
        <ele>901</ele>
        <time>2015-04-12T11:40:15Z</time>
      </trkpt>
      <trkpt lat="46.08664" lon="3.82322">
        <ele>901</ele>
        <time>2015-04-12T11:40:16Z</time>
      </trkpt>
      <trkpt lat="46.08669" lon="3.82316">
        <ele>897</ele>
        <time>2015-04-12T11:40:17Z</time>
      </trkpt>
      <trkpt lat="46.08672" lon="3.82311">
        <ele>897</ele>
        <time>2015-04-12T11:40:18Z</time>
      </trkpt>
      <trkpt lat="46.08676" lon="3.82306">
        <ele>897</ele>
        <time>2015-04-12T11:40:19Z</time>
      </trkpt>
      <trkpt lat="46.08683" lon="3.823">
        <ele>896</ele>
        <time>2015-04-12T11:40:21Z</time>
      </trkpt>
      <trkpt lat="46.0869" lon="3.82293">
        <ele>896</ele>
        <time>2015-04-12T11:40:23Z</time>
      </trkpt>
      <trkpt lat="46.08695" lon="3.82288">
        <ele>895</ele>
        <time>2015-04-12T11:40:24Z</time>
      </trkpt>
      <trkpt lat="46.08702" lon="3.82282">
        <ele>895</ele>
        <time>2015-04-12T11:40:26Z</time>
      </trkpt>
      <trkpt lat="46.08711" lon="3.82276">
        <ele>894</ele>
        <time>2015-04-12T11:40:28Z</time>
      </trkpt>
      <trkpt lat="46.08716" lon="3.82273">
        <ele>894</ele>
        <time>2015-04-12T11:40:29Z</time>
      </trkpt>
      <trkpt lat="46.08722" lon="3.8227">
        <ele>893</ele>
        <time>2015-04-12T11:40:30Z</time>
      </trkpt>
      <trkpt lat="46.08726" lon="3.82267">
        <ele>893</ele>
        <time>2015-04-12T11:40:31Z</time>
      </trkpt>
      <trkpt lat="46.08735" lon="3.82264">
        <ele>892</ele>
        <time>2015-04-12T11:40:33Z</time>
      </trkpt>
      <trkpt lat="46.08739" lon="3.82263">
        <ele>892</ele>
        <time>2015-04-12T11:40:34Z</time>
      </trkpt>
      <trkpt lat="46.08748" lon="3.82264">
        <ele>891</ele>
        <time>2015-04-12T11:40:36Z</time>
      </trkpt>
      <trkpt lat="46.08752" lon="3.82265">
        <ele>887</ele>
        <time>2015-04-12T11:40:37Z</time>
      </trkpt>
      <trkpt lat="46.08757" lon="3.82266">
        <ele>887</ele>
        <time>2015-04-12T11:40:38Z</time>
      </trkpt>
      <trkpt lat="46.08763" lon="3.82266">
        <ele>887</ele>
        <time>2015-04-12T11:40:39Z</time>
      </trkpt>
      <trkpt lat="46.08767" lon="3.82266">
        <ele>887</ele>
        <time>2015-04-12T11:40:40Z</time>
      </trkpt>
      <trkpt lat="46.08772" lon="3.82266">
        <ele>886</ele>
        <time>2015-04-12T11:40:41Z</time>
      </trkpt>
      <trkpt lat="46.08777" lon="3.82266">
        <ele>886</ele>
        <time>2015-04-12T11:40:42Z</time>
      </trkpt>
      <trkpt lat="46.08782" lon="3.82267">
        <ele>886</ele>
        <time>2015-04-12T11:40:44Z</time>
      </trkpt>
      <trkpt lat="46.0879" lon="3.82268">
        <ele>885</ele>
        <time>2015-04-12T11:40:46Z</time>
      </trkpt>
      <trkpt lat="46.08798" lon="3.82271">
        <ele>885</ele>
        <time>2015-04-12T11:40:48Z</time>
      </trkpt>
      <trkpt lat="46.08803" lon="3.82272">
        <ele>884</ele>
        <time>2015-04-12T11:40:49Z</time>
      </trkpt>
      <trkpt lat="46.08808" lon="3.82272">
        <ele>884</ele>
        <time>2015-04-12T11:40:50Z</time>
      </trkpt>
      <trkpt lat="46.08814" lon="3.82271">
        <ele>884</ele>
        <time>2015-04-12T11:40:51Z</time>
      </trkpt>
      <trkpt lat="46.08819" lon="3.82271">
        <ele>883</ele>
        <time>2015-04-12T11:40:52Z</time>
      </trkpt>
      <trkpt lat="46.08826" lon="3.8227">
        <ele>883</ele>
        <time>2015-04-12T11:40:53Z</time>
      </trkpt>
      <trkpt lat="46.08831" lon="3.82268">
        <ele>883</ele>
        <time>2015-04-12T11:40:54Z</time>
      </trkpt>
      <trkpt lat="46.08836" lon="3.82264">
        <ele>879</ele>
        <time>2015-04-12T11:40:55Z</time>
      </trkpt>
      <trkpt lat="46.0884" lon="3.82261">
        <ele>879</ele>
        <time>2015-04-12T11:40:56Z</time>
      </trkpt>
      <trkpt lat="46.08846" lon="3.82257">
        <ele>879</ele>
        <time>2015-04-12T11:40:57Z</time>
      </trkpt>
      <trkpt lat="46.08852" lon="3.82253">
        <ele>879</ele>
        <time>2015-04-12T11:40:58Z</time>
      </trkpt>
      <trkpt lat="46.08857" lon="3.82249">
        <ele>879</ele>
        <time>2015-04-12T11:40:59Z</time>
      </trkpt>
      <trkpt lat="46.08864" lon="3.82244">
        <ele>879</ele>
        <time>2015-04-12T11:41:00Z</time>
      </trkpt>
      <trkpt lat="46.0887" lon="3.82241">
        <ele>879</ele>
        <time>2015-04-12T11:41:01Z</time>
      </trkpt>
      <trkpt lat="46.08877" lon="3.82237">
        <ele>878</ele>
        <time>2015-04-12T11:41:02Z</time>
      </trkpt>
      <trkpt lat="46.08883" lon="3.82235">
        <ele>878</ele>
        <time>2015-04-12T11:41:03Z</time>
      </trkpt>
      <trkpt lat="46.0889" lon="3.82233">
        <ele>877</ele>
        <time>2015-04-12T11:41:04Z</time>
      </trkpt>
      <trkpt lat="46.08897" lon="3.82232">
        <ele>877</ele>
        <time>2015-04-12T11:41:05Z</time>
      </trkpt>
      <trkpt lat="46.08904" lon="3.82233">
        <ele>876</ele>
        <time>2015-04-12T11:41:06Z</time>
      </trkpt>
      <trkpt lat="46.08911" lon="3.82235">
        <ele>875</ele>
        <time>2015-04-12T11:41:07Z</time>
      </trkpt>
      <trkpt lat="46.08919" lon="3.82237">
        <ele>872</ele>
        <time>2015-04-12T11:41:08Z</time>
      </trkpt>
      <trkpt lat="46.08926" lon="3.8224">
        <ele>872</ele>
        <time>2015-04-12T11:41:09Z</time>
      </trkpt>
      <trkpt lat="46.08933" lon="3.82243">
        <ele>871</ele>
        <time>2015-04-12T11:41:10Z</time>
      </trkpt>
      <trkpt lat="46.0894" lon="3.82246">
        <ele>871</ele>
        <time>2015-04-12T11:41:11Z</time>
      </trkpt>
      <trkpt lat="46.08947" lon="3.82249">
        <ele>871</ele>
        <time>2015-04-12T11:41:12Z</time>
      </trkpt>
      <trkpt lat="46.08955" lon="3.82254">
        <ele>873</ele>
        <time>2015-04-12T11:41:13Z</time>
      </trkpt>
      <trkpt lat="46.08961" lon="3.82257">
        <ele>873</ele>
        <time>2015-04-12T11:41:14Z</time>
      </trkpt>
      <trkpt lat="46.08967" lon="3.8226">
        <ele>873</ele>
        <time>2015-04-12T11:41:15Z</time>
      </trkpt>
      <trkpt lat="46.08973" lon="3.82262">
        <ele>873</ele>
        <time>2015-04-12T11:41:16Z</time>
      </trkpt>
      <trkpt lat="46.0898" lon="3.82264">
        <ele>872</ele>
        <time>2015-04-12T11:41:17Z</time>
      </trkpt>
      <trkpt lat="46.08985" lon="3.82264">
        <ele>872</ele>
        <time>2015-04-12T11:41:18Z</time>
      </trkpt>
      <trkpt lat="46.08991" lon="3.82266">
        <ele>872</ele>
        <time>2015-04-12T11:41:19Z</time>
      </trkpt>
      <trkpt lat="46.08995" lon="3.82267">
        <ele>872</ele>
        <time>2015-04-12T11:41:20Z</time>
      </trkpt>
      <trkpt lat="46.09002" lon="3.82264">
        <ele>873</ele>
        <time>2015-04-12T11:41:22Z</time>
      </trkpt>
      <trkpt lat="46.09008" lon="3.82262">
        <ele>873</ele>
        <time>2015-04-12T11:41:24Z</time>
      </trkpt>
      <trkpt lat="46.09015" lon="3.82258">
        <ele>873</ele>
        <time>2015-04-12T11:41:26Z</time>
      </trkpt>
      <trkpt lat="46.09023" lon="3.82255">
        <ele>874</ele>
        <time>2015-04-12T11:41:28Z</time>
      </trkpt>
      <trkpt lat="46.09031" lon="3.82248">
        <ele>870</ele>
        <time>2015-04-12T11:41:30Z</time>
      </trkpt>
      <trkpt lat="46.09035" lon="3.82245">
        <ele>870</ele>
        <time>2015-04-12T11:41:31Z</time>
      </trkpt>
      <trkpt lat="46.09041" lon="3.8224">
        <ele>870</ele>
        <time>2015-04-12T11:41:33Z</time>
      </trkpt>
      <trkpt lat="46.09046" lon="3.82235">
        <ele>870</ele>
        <time>2015-04-12T11:41:49Z</time>
      </trkpt>
      <trkpt lat="46.09051" lon="3.82232">
        <ele>870</ele>
        <time>2015-04-12T11:41:54Z</time>
      </trkpt>
      <trkpt lat="46.09056" lon="3.8223">
        <ele>871</ele>
        <time>2015-04-12T11:41:57Z</time>
      </trkpt>
      <trkpt lat="46.0906" lon="3.82226">
        <ele>871</ele>
        <time>2015-04-12T11:42:00Z</time>
      </trkpt>
      <trkpt lat="46.09064" lon="3.82221">
        <ele>870</ele>
        <time>2015-04-12T11:42:03Z</time>
      </trkpt>
      <trkpt lat="46.0907" lon="3.82217">
        <ele>870</ele>
        <time>2015-04-12T11:42:06Z</time>
      </trkpt>
      <trkpt lat="46.09076" lon="3.82211">
        <ele>870</ele>
        <time>2015-04-12T11:42:08Z</time>
      </trkpt>
      <trkpt lat="46.09082" lon="3.82206">
        <ele>870</ele>
        <time>2015-04-12T11:42:10Z</time>
      </trkpt>
      <trkpt lat="46.09089" lon="3.82198">
        <ele>874</ele>
        <time>2015-04-12T11:42:12Z</time>
      </trkpt>
      <trkpt lat="46.09095" lon="3.82191">
        <ele>873</ele>
        <time>2015-04-12T11:42:14Z</time>
      </trkpt>
      <trkpt lat="46.09098" lon="3.82186">
        <ele>873</ele>
        <time>2015-04-12T11:42:15Z</time>
      </trkpt>
      <trkpt lat="46.09102" lon="3.82181">
        <ele>873</ele>
        <time>2015-04-12T11:42:16Z</time>
      </trkpt>
      <trkpt lat="46.09106" lon="3.82176">
        <ele>873</ele>
        <time>2015-04-12T11:42:17Z</time>
      </trkpt>
      <trkpt lat="46.0911" lon="3.82172">
        <ele>873</ele>
        <time>2015-04-12T11:42:18Z</time>
      </trkpt>
      <trkpt lat="46.09113" lon="3.82166">
        <ele>866</ele>
        <time>2015-04-12T11:42:19Z</time>
      </trkpt>
      <trkpt lat="46.09117" lon="3.82162">
        <ele>866</ele>
        <time>2015-04-12T11:42:20Z</time>
      </trkpt>
      <trkpt lat="46.09121" lon="3.82157">
        <ele>866</ele>
        <time>2015-04-12T11:42:21Z</time>
      </trkpt>
      <trkpt lat="46.09124" lon="3.82151">
        <ele>866</ele>
        <time>2015-04-12T11:42:22Z</time>
      </trkpt>
      <trkpt lat="46.09128" lon="3.82145">
        <ele>866</ele>
        <time>2015-04-12T11:42:23Z</time>
      </trkpt>
      <trkpt lat="46.09133" lon="3.82137">
        <ele>866</ele>
        <time>2015-04-12T11:42:24Z</time>
      </trkpt>
      <trkpt lat="46.09138" lon="3.8213">
        <ele>865</ele>
        <time>2015-04-12T11:42:25Z</time>
      </trkpt>
      <trkpt lat="46.09143" lon="3.82122">
        <ele>864</ele>
        <time>2015-04-12T11:42:26Z</time>
      </trkpt>
      <trkpt lat="46.09147" lon="3.82115">
        <ele>864</ele>
        <time>2015-04-12T11:42:27Z</time>
      </trkpt>
      <trkpt lat="46.09151" lon="3.82109">
        <ele>863</ele>
        <time>2015-04-12T11:42:28Z</time>
      </trkpt>
      <trkpt lat="46.09156" lon="3.82104">
        <ele>862</ele>
        <time>2015-04-12T11:42:29Z</time>
      </trkpt>
      <trkpt lat="46.0916" lon="3.82099">
        <ele>861</ele>
        <time>2015-04-12T11:42:30Z</time>
      </trkpt>
      <trkpt lat="46.09168" lon="3.82089">
        <ele>861</ele>
        <time>2015-04-12T11:42:49Z</time>
      </trkpt>
      <trkpt lat="46.09173" lon="3.82086">
        <ele>861</ele>
        <time>2015-04-12T11:42:52Z</time>
      </trkpt>
      <trkpt lat="46.09179" lon="3.82081">
        <ele>858</ele>
        <time>2015-04-12T11:42:54Z</time>
      </trkpt>
      <trkpt lat="46.09184" lon="3.82074">
        <ele>858</ele>
        <time>2015-04-12T11:42:56Z</time>
      </trkpt>
      <trkpt lat="46.09189" lon="3.82064">
        <ele>858</ele>
        <time>2015-04-12T11:42:58Z</time>
      </trkpt>
      <trkpt lat="46.09192" lon="3.82058">
        <ele>857</ele>
        <time>2015-04-12T11:42:59Z</time>
      </trkpt>
      <trkpt lat="46.09196" lon="3.82054">
        <ele>857</ele>
        <time>2015-04-12T11:43:00Z</time>
      </trkpt>
      <trkpt lat="46.09199" lon="3.82049">
        <ele>857</ele>
        <time>2015-04-12T11:43:01Z</time>
      </trkpt>
      <trkpt lat="46.09204" lon="3.82043">
        <ele>857</ele>
        <time>2015-04-12T11:43:02Z</time>
      </trkpt>
      <trkpt lat="46.09208" lon="3.82038">
        <ele>857</ele>
        <time>2015-04-12T11:43:03Z</time>
      </trkpt>
      <trkpt lat="46.09212" lon="3.82032">
        <ele>856</ele>
        <time>2015-04-12T11:43:04Z</time>
      </trkpt>
      <trkpt lat="46.09217" lon="3.82027">
        <ele>856</ele>
        <time>2015-04-12T11:43:05Z</time>
      </trkpt>
      <trkpt lat="46.09222" lon="3.82022">
        <ele>856</ele>
        <time>2015-04-12T11:43:06Z</time>
      </trkpt>
      <trkpt lat="46.09228" lon="3.82016">
        <ele>856</ele>
        <time>2015-04-12T11:43:07Z</time>
      </trkpt>
      <trkpt lat="46.09233" lon="3.82011">
        <ele>855</ele>
        <time>2015-04-12T11:43:08Z</time>
      </trkpt>
      <trkpt lat="46.09238" lon="3.82006">
        <ele>855</ele>
        <time>2015-04-12T11:43:09Z</time>
      </trkpt>
      <trkpt lat="46.09242" lon="3.82002">
        <ele>854</ele>
        <time>2015-04-12T11:43:10Z</time>
      </trkpt>
      <trkpt lat="46.09246" lon="3.81997">
        <ele>852</ele>
        <time>2015-04-12T11:43:12Z</time>
      </trkpt>
      <trkpt lat="46.0925" lon="3.81993">
        <ele>852</ele>
        <time>2015-04-12T11:43:19Z</time>
      </trkpt>
      <trkpt lat="46.09254" lon="3.8199">
        <ele>852</ele>
        <time>2015-04-12T11:43:21Z</time>
      </trkpt>
      <trkpt lat="46.0926" lon="3.81983">
        <ele>851</ele>
        <time>2015-04-12T11:43:23Z</time>
      </trkpt>
      <trkpt lat="46.09263" lon="3.81979">
        <ele>851</ele>
        <time>2015-04-12T11:43:24Z</time>
      </trkpt>
      <trkpt lat="46.09267" lon="3.81974">
        <ele>851</ele>
        <time>2015-04-12T11:43:25Z</time>
      </trkpt>
      <trkpt lat="46.09271" lon="3.81968">
        <ele>850</ele>
        <time>2015-04-12T11:43:26Z</time>
      </trkpt>
      <trkpt lat="46.09275" lon="3.81961">
        <ele>850</ele>
        <time>2015-04-12T11:43:27Z</time>
      </trkpt>
      <trkpt lat="46.0928" lon="3.81953">
        <ele>849</ele>
        <time>2015-04-12T11:43:28Z</time>
      </trkpt>
      <trkpt lat="46.09285" lon="3.81944">
        <ele>849</ele>
        <time>2015-04-12T11:43:29Z</time>
      </trkpt>
      <trkpt lat="46.0929" lon="3.81936">
        <ele>848</ele>
        <time>2015-04-12T11:43:30Z</time>
      </trkpt>
      <trkpt lat="46.09295" lon="3.81928">
        <ele>848</ele>
        <time>2015-04-12T11:43:31Z</time>
      </trkpt>
      <trkpt lat="46.09299" lon="3.81921">
        <ele>848</ele>
        <time>2015-04-12T11:43:32Z</time>
      </trkpt>
      <trkpt lat="46.09303" lon="3.81914">
        <ele>843</ele>
        <time>2015-04-12T11:43:33Z</time>
      </trkpt>
      <trkpt lat="46.09307" lon="3.81906">
        <ele>843</ele>
        <time>2015-04-12T11:43:34Z</time>
      </trkpt>
      <trkpt lat="46.0931" lon="3.81899">
        <ele>842</ele>
        <time>2015-04-12T11:43:35Z</time>
      </trkpt>
      <trkpt lat="46.09314" lon="3.81891">
        <ele>842</ele>
        <time>2015-04-12T11:43:37Z</time>
      </trkpt>
      <trkpt lat="46.09313" lon="3.81884">
        <ele>842</ele>
        <time>2015-04-12T11:43:42Z</time>
      </trkpt>
      <trkpt lat="46.09318" lon="3.81881">
        <ele>842</ele>
        <time>2015-04-12T11:43:45Z</time>
      </trkpt>
      <trkpt lat="46.09314" lon="3.81881">
        <ele>842</ele>
        <time>2015-04-12T11:43:51Z</time>
      </trkpt>
      <trkpt lat="46.09308" lon="3.81881">
        <ele>842</ele>
        <time>2015-04-12T11:43:53Z</time>
      </trkpt>
      <trkpt lat="46.09301" lon="3.81883">
        <ele>842</ele>
        <time>2015-04-12T11:43:55Z</time>
      </trkpt>
      <trkpt lat="46.09296" lon="3.81885">
        <ele>842</ele>
        <time>2015-04-12T11:43:57Z</time>
      </trkpt>
      <trkpt lat="46.09291" lon="3.81888">
        <ele>842</ele>
        <time>2015-04-12T11:44:10Z</time>
      </trkpt>
      <trkpt lat="46.09286" lon="3.81888">
        <ele>842</ele>
        <time>2015-04-12T11:44:15Z</time>
      </trkpt>
      <trkpt lat="46.09291" lon="3.81889">
        <ele>842</ele>
        <time>2015-04-12T11:45:32Z</time>
      </trkpt>
      <trkpt lat="46.09296" lon="3.81887">
        <ele>842</ele>
        <time>2015-04-12T11:45:35Z</time>
      </trkpt>
      <trkpt lat="46.09302" lon="3.81887">
        <ele>842</ele>
        <time>2015-04-12T11:45:39Z</time>
      </trkpt>
      <trkpt lat="46.09307" lon="3.81885">
        <ele>842</ele>
        <time>2015-04-12T11:45:43Z</time>
      </trkpt>
      <trkpt lat="46.09312" lon="3.81884">
        <ele>842</ele>
        <time>2015-04-12T11:45:47Z</time>
      </trkpt>
      <trkpt lat="46.09318" lon="3.81882">
        <ele>842</ele>
        <time>2015-04-12T11:45:57Z</time>
      </trkpt>
      <trkpt lat="46.09324" lon="3.81882">
        <ele>842</ele>
        <time>2015-04-12T11:46:00Z</time>
      </trkpt>
      <trkpt lat="46.0933" lon="3.81884">
        <ele>842</ele>
        <time>2015-04-12T11:46:04Z</time>
      </trkpt>
      <trkpt lat="46.09337" lon="3.81883">
        <ele>844</ele>
        <time>2015-04-12T11:46:07Z</time>
      </trkpt>
      <trkpt lat="46.09345" lon="3.8188">
        <ele>844</ele>
        <time>2015-04-12T11:46:09Z</time>
      </trkpt>
      <trkpt lat="46.09353" lon="3.81877">
        <ele>844</ele>
        <time>2015-04-12T11:46:11Z</time>
      </trkpt>
      <trkpt lat="46.0936" lon="3.81874">
        <ele>844</ele>
        <time>2015-04-12T11:46:13Z</time>
      </trkpt>
      <trkpt lat="46.09367" lon="3.81871">
        <ele>844</ele>
        <time>2015-04-12T11:46:15Z</time>
      </trkpt>
      <trkpt lat="46.09374" lon="3.81864">
        <ele>844</ele>
        <time>2015-04-12T11:46:17Z</time>
      </trkpt>
      <trkpt lat="46.09378" lon="3.8186">
        <ele>844</ele>
        <time>2015-04-12T11:46:18Z</time>
      </trkpt>
      <trkpt lat="46.09382" lon="3.81854">
        <ele>843</ele>
        <time>2015-04-12T11:46:19Z</time>
      </trkpt>
      <trkpt lat="46.09385" lon="3.81848">
        <ele>843</ele>
        <time>2015-04-12T11:46:20Z</time>
      </trkpt>
      <trkpt lat="46.09389" lon="3.81841">
        <ele>843</ele>
        <time>2015-04-12T11:46:21Z</time>
      </trkpt>
      <trkpt lat="46.09392" lon="3.81834">
        <ele>843</ele>
        <time>2015-04-12T11:46:22Z</time>
      </trkpt>
      <trkpt lat="46.09395" lon="3.81826">
        <ele>838</ele>
        <time>2015-04-12T11:46:23Z</time>
      </trkpt>
      <trkpt lat="46.09398" lon="3.81818">
        <ele>837</ele>
        <time>2015-04-12T11:46:24Z</time>
      </trkpt>
      <trkpt lat="46.09402" lon="3.8181">
        <ele>837</ele>
        <time>2015-04-12T11:46:25Z</time>
      </trkpt>
      <trkpt lat="46.09406" lon="3.81801">
        <ele>836</ele>
        <time>2015-04-12T11:46:26Z</time>
      </trkpt>
      <trkpt lat="46.0941" lon="3.81792">
        <ele>835</ele>
        <time>2015-04-12T11:46:27Z</time>
      </trkpt>
      <trkpt lat="46.09415" lon="3.81783">
        <ele>834</ele>
        <time>2015-04-12T11:46:28Z</time>
      </trkpt>
      <trkpt lat="46.09419" lon="3.81775">
        <ele>837</ele>
        <time>2015-04-12T11:46:29Z</time>
      </trkpt>
      <trkpt lat="46.09423" lon="3.81767">
        <ele>835</ele>
        <time>2015-04-12T11:46:30Z</time>
      </trkpt>
      <trkpt lat="46.09427" lon="3.81759">
        <ele>834</ele>
        <time>2015-04-12T11:46:31Z</time>
      </trkpt>
      <trkpt lat="46.09431" lon="3.81752">
        <ele>834</ele>
        <time>2015-04-12T11:46:32Z</time>
      </trkpt>
      <trkpt lat="46.09435" lon="3.81745">
        <ele>830</ele>
        <time>2015-04-12T11:46:33Z</time>
      </trkpt>
      <trkpt lat="46.09439" lon="3.81738">
        <ele>831</ele>
        <time>2015-04-12T11:46:34Z</time>
      </trkpt>
      <trkpt lat="46.09442" lon="3.81732">
        <ele>831</ele>
        <time>2015-04-12T11:46:35Z</time>
      </trkpt>
      <trkpt lat="46.09445" lon="3.81726">
        <ele>831</ele>
        <time>2015-04-12T11:46:36Z</time>
      </trkpt>
      <trkpt lat="46.09451" lon="3.81718">
        <ele>832</ele>
        <time>2015-04-12T11:46:38Z</time>
      </trkpt>
      <trkpt lat="46.09455" lon="3.81707">
        <ele>832</ele>
        <time>2015-04-12T11:46:40Z</time>
      </trkpt>
      <trkpt lat="46.09457" lon="3.81701">
        <ele>831</ele>
        <time>2015-04-12T11:46:41Z</time>
      </trkpt>
      <trkpt lat="46.09458" lon="3.81694">
        <ele>831</ele>
        <time>2015-04-12T11:46:42Z</time>
      </trkpt>
      <trkpt lat="46.09461" lon="3.81688">
        <ele>831</ele>
        <time>2015-04-12T11:46:43Z</time>
      </trkpt>
      <trkpt lat="46.09464" lon="3.81682">
        <ele>831</ele>
        <time>2015-04-12T11:46:44Z</time>
      </trkpt>
      <trkpt lat="46.09467" lon="3.81675">
        <ele>831</ele>
        <time>2015-04-12T11:46:45Z</time>
      </trkpt>
      <trkpt lat="46.0947" lon="3.81669">
        <ele>831</ele>
        <time>2015-04-12T11:46:46Z</time>
      </trkpt>
      <trkpt lat="46.09473" lon="3.81661">
        <ele>828</ele>
        <time>2015-04-12T11:46:47Z</time>
      </trkpt>
      <trkpt lat="46.09477" lon="3.81653">
        <ele>828</ele>
        <time>2015-04-12T11:46:48Z</time>
      </trkpt>
      <trkpt lat="46.0948" lon="3.81645">
        <ele>828</ele>
        <time>2015-04-12T11:46:49Z</time>
      </trkpt>
      <trkpt lat="46.09483" lon="3.81637">
        <ele>827</ele>
        <time>2015-04-12T11:46:50Z</time>
      </trkpt>
      <trkpt lat="46.09487" lon="3.8163">
        <ele>827</ele>
        <time>2015-04-12T11:46:51Z</time>
      </trkpt>
      <trkpt lat="46.09491" lon="3.81622">
        <ele>827</ele>
        <time>2015-04-12T11:46:52Z</time>
      </trkpt>
      <trkpt lat="46.09494" lon="3.81616">
        <ele>826</ele>
        <time>2015-04-12T11:46:53Z</time>
      </trkpt>
      <trkpt lat="46.09498" lon="3.8161">
        <ele>825</ele>
        <time>2015-04-12T11:46:54Z</time>
      </trkpt>
      <trkpt lat="46.09502" lon="3.81606">
        <ele>827</ele>
        <time>2015-04-12T11:46:55Z</time>
      </trkpt>
      <trkpt lat="46.09507" lon="3.81601">
        <ele>826</ele>
        <time>2015-04-12T11:46:56Z</time>
      </trkpt>
      <trkpt lat="46.09512" lon="3.81596">
        <ele>826</ele>
        <time>2015-04-12T11:46:57Z</time>
      </trkpt>
      <trkpt lat="46.09519" lon="3.81589">
        <ele>826</ele>
        <time>2015-04-12T11:46:59Z</time>
      </trkpt>
      <trkpt lat="46.09524" lon="3.81586">
        <ele>827</ele>
        <time>2015-04-12T11:47:00Z</time>
      </trkpt>
      <trkpt lat="46.09528" lon="3.81585">
        <ele>827</ele>
        <time>2015-04-12T11:47:01Z</time>
      </trkpt>
      <trkpt lat="46.09537" lon="3.81582">
        <ele>822</ele>
        <time>2015-04-12T11:47:03Z</time>
      </trkpt>
      <trkpt lat="46.09544" lon="3.8158">
        <ele>823</ele>
        <time>2015-04-12T11:47:05Z</time>
      </trkpt>
      <trkpt lat="46.0955" lon="3.81579">
        <ele>823</ele>
        <time>2015-04-12T11:47:07Z</time>
      </trkpt>
      <trkpt lat="46.09555" lon="3.81575">
        <ele>823</ele>
        <time>2015-04-12T11:47:09Z</time>
      </trkpt>
      <trkpt lat="46.0956" lon="3.8157">
        <ele>824</ele>
        <time>2015-04-12T11:47:12Z</time>
      </trkpt>
      <trkpt lat="46.09565" lon="3.81565">
        <ele>824</ele>
        <time>2015-04-12T11:47:14Z</time>
      </trkpt>
      <trkpt lat="46.09573" lon="3.81561">
        <ele>824</ele>
        <time>2015-04-12T11:47:16Z</time>
      </trkpt>
      <trkpt lat="46.0958" lon="3.81554">
        <ele>823</ele>
        <time>2015-04-12T11:47:18Z</time>
      </trkpt>
      <trkpt lat="46.09586" lon="3.81547">
        <ele>827</ele>
        <time>2015-04-12T11:47:20Z</time>
      </trkpt>
      <trkpt lat="46.09593" lon="3.81542">
        <ele>826</ele>
        <time>2015-04-12T11:47:22Z</time>
      </trkpt>
      <trkpt lat="46.096" lon="3.8154">
        <ele>827</ele>
        <time>2015-04-12T11:47:24Z</time>
      </trkpt>
      <trkpt lat="46.09606" lon="3.81536">
        <ele>827</ele>
        <time>2015-04-12T11:47:26Z</time>
      </trkpt>
      <trkpt lat="46.09613" lon="3.81531">
        <ele>827</ele>
        <time>2015-04-12T11:47:28Z</time>
      </trkpt>
      <trkpt lat="46.09619" lon="3.81526">
        <ele>827</ele>
        <time>2015-04-12T11:47:30Z</time>
      </trkpt>
      <trkpt lat="46.09623" lon="3.81523">
        <ele>827</ele>
        <time>2015-04-12T11:47:31Z</time>
      </trkpt>
      <trkpt lat="46.09629" lon="3.81518">
        <ele>827</ele>
        <time>2015-04-12T11:47:33Z</time>
      </trkpt>
      <trkpt lat="46.09634" lon="3.81512">
        <ele>827</ele>
        <time>2015-04-12T11:47:35Z</time>
      </trkpt>
      <trkpt lat="46.09641" lon="3.81505">
        <ele>827</ele>
        <time>2015-04-12T11:47:37Z</time>
      </trkpt>
      <trkpt lat="46.09647" lon="3.81494">
        <ele>821</ele>
        <time>2015-04-12T11:47:39Z</time>
      </trkpt>
      <trkpt lat="46.09649" lon="3.81488">
        <ele>821</ele>
        <time>2015-04-12T11:47:40Z</time>
      </trkpt>
      <trkpt lat="46.09651" lon="3.81481">
        <ele>820</ele>
        <time>2015-04-12T11:47:41Z</time>
      </trkpt>
      <trkpt lat="46.09653" lon="3.81474">
        <ele>819</ele>
        <time>2015-04-12T11:47:42Z</time>
      </trkpt>
      <trkpt lat="46.09655" lon="3.81467">
        <ele>818</ele>
        <time>2015-04-12T11:47:43Z</time>
      </trkpt>
      <trkpt lat="46.09658" lon="3.81459">
        <ele>818</ele>
        <time>2015-04-12T11:47:44Z</time>
      </trkpt>
      <trkpt lat="46.09661" lon="3.8145">
        <ele>817</ele>
        <time>2015-04-12T11:47:45Z</time>
      </trkpt>
      <trkpt lat="46.09665" lon="3.8144">
        <ele>816</ele>
        <time>2015-04-12T11:47:46Z</time>
      </trkpt>
      <trkpt lat="46.09671" lon="3.8143">
        <ele>819</ele>
        <time>2015-04-12T11:47:47Z</time>
      </trkpt>
      <trkpt lat="46.09676" lon="3.81421">
        <ele>818</ele>
        <time>2015-04-12T11:47:48Z</time>
      </trkpt>
      <trkpt lat="46.0968" lon="3.81411">
        <ele>814</ele>
        <time>2015-04-12T11:47:49Z</time>
      </trkpt>
      <trkpt lat="46.09685" lon="3.81402">
        <ele>814</ele>
        <time>2015-04-12T11:47:50Z</time>
      </trkpt>
      <trkpt lat="46.0969" lon="3.81393">
        <ele>814</ele>
        <time>2015-04-12T11:47:51Z</time>
      </trkpt>
      <trkpt lat="46.09695" lon="3.81384">
        <ele>814</ele>
        <time>2015-04-12T11:47:52Z</time>
      </trkpt>
      <trkpt lat="46.09701" lon="3.81377">
        <ele>814</ele>
        <time>2015-04-12T11:47:53Z</time>
      </trkpt>
      <trkpt lat="46.09708" lon="3.81369">
        <ele>814</ele>
        <time>2015-04-12T11:47:54Z</time>
      </trkpt>
      <trkpt lat="46.09715" lon="3.81362">
        <ele>814</ele>
        <time>2015-04-12T11:47:55Z</time>
      </trkpt>
      <trkpt lat="46.09721" lon="3.81352">
        <ele>814</ele>
        <time>2015-04-12T11:47:56Z</time>
      </trkpt>
      <trkpt lat="46.09726" lon="3.81345">
        <ele>814</ele>
        <time>2015-04-12T11:47:57Z</time>
      </trkpt>
      <trkpt lat="46.0973" lon="3.81337">
        <ele>814</ele>
        <time>2015-04-12T11:47:58Z</time>
      </trkpt>
      <trkpt lat="46.09734" lon="3.81331">
        <ele>809</ele>
        <time>2015-04-12T11:47:59Z</time>
      </trkpt>
      <trkpt lat="46.09739" lon="3.81327">
        <ele>810</ele>
        <time>2015-04-12T11:48:00Z</time>
      </trkpt>
      <trkpt lat="46.09744" lon="3.81323">
        <ele>810</ele>
        <time>2015-04-12T11:48:01Z</time>
      </trkpt>
      <trkpt lat="46.09749" lon="3.8132">
        <ele>810</ele>
        <time>2015-04-12T11:48:02Z</time>
      </trkpt>
      <trkpt lat="46.09754" lon="3.81317">
        <ele>811</ele>
        <time>2015-04-12T11:48:03Z</time>
      </trkpt>
      <trkpt lat="46.09758" lon="3.81314">
        <ele>811</ele>
        <time>2015-04-12T11:48:04Z</time>
      </trkpt>
      <trkpt lat="46.09763" lon="3.81312">
        <ele>810</ele>
        <time>2015-04-12T11:48:05Z</time>
      </trkpt>
      <trkpt lat="46.09768" lon="3.81309">
        <ele>810</ele>
        <time>2015-04-12T11:48:06Z</time>
      </trkpt>
      <trkpt lat="46.09774" lon="3.81306">
        <ele>810</ele>
        <time>2015-04-12T11:48:07Z</time>
      </trkpt>
      <trkpt lat="46.09779" lon="3.81303">
        <ele>810</ele>
        <time>2015-04-12T11:48:08Z</time>
      </trkpt>
      <trkpt lat="46.09784" lon="3.81298">
        <ele>809</ele>
        <time>2015-04-12T11:48:09Z</time>
      </trkpt>
      <trkpt lat="46.09788" lon="3.81293">
        <ele>809</ele>
        <time>2015-04-12T11:48:10Z</time>
      </trkpt>
      <trkpt lat="46.09794" lon="3.81289">
        <ele>809</ele>
        <time>2015-04-12T11:48:11Z</time>
      </trkpt>
      <trkpt lat="46.09799" lon="3.81284">
        <ele>808</ele>
        <time>2015-04-12T11:48:12Z</time>
      </trkpt>
      <trkpt lat="46.09804" lon="3.8128">
        <ele>808</ele>
        <time>2015-04-12T11:48:13Z</time>
      </trkpt>
      <trkpt lat="46.09806" lon="3.81274">
        <ele>807</ele>
        <time>2015-04-12T11:48:14Z</time>
      </trkpt>
      <trkpt lat="46.09812" lon="3.81269">
        <ele>806</ele>
        <time>2015-04-12T11:48:16Z</time>
      </trkpt>
      <trkpt lat="46.09821" lon="3.8126">
        <ele>805</ele>
        <time>2015-04-12T11:48:47Z</time>
      </trkpt>
      <trkpt lat="46.09828" lon="3.81258">
        <ele>804</ele>
        <time>2015-04-12T11:48:49Z</time>
      </trkpt>
      <trkpt lat="46.09833" lon="3.81255">
        <ele>803</ele>
        <time>2015-04-12T11:48:51Z</time>
      </trkpt>
      <trkpt lat="46.09842" lon="3.81253">
        <ele>804</ele>
        <time>2015-04-12T11:48:53Z</time>
      </trkpt>
      <trkpt lat="46.09847" lon="3.81251">
        <ele>805</ele>
        <time>2015-04-12T11:48:54Z</time>
      </trkpt>
      <trkpt lat="46.09854" lon="3.81249">
        <ele>797</ele>
        <time>2015-04-12T11:48:56Z</time>
      </trkpt>
      <trkpt lat="46.09859" lon="3.81248">
        <ele>796</ele>
        <time>2015-04-12T11:48:57Z</time>
      </trkpt>
      <trkpt lat="46.09864" lon="3.81248">
        <ele>796</ele>
        <time>2015-04-12T11:48:58Z</time>
      </trkpt>
      <trkpt lat="46.09872" lon="3.81251">
        <ele>807</ele>
        <time>2015-04-12T11:49:00Z</time>
      </trkpt>
      <trkpt lat="46.0988" lon="3.81252">
        <ele>807</ele>
        <time>2015-04-12T11:49:02Z</time>
      </trkpt>
      <trkpt lat="46.09885" lon="3.81251">
        <ele>807</ele>
        <time>2015-04-12T11:49:03Z</time>
      </trkpt>
      <trkpt lat="46.0989" lon="3.81249">
        <ele>796</ele>
        <time>2015-04-12T11:49:04Z</time>
      </trkpt>
      <trkpt lat="46.09896" lon="3.81247">
        <ele>796</ele>
        <time>2015-04-12T11:49:05Z</time>
      </trkpt>
      <trkpt lat="46.09903" lon="3.81246">
        <ele>797</ele>
        <time>2015-04-12T11:49:06Z</time>
      </trkpt>
      <trkpt lat="46.0991" lon="3.81245">
        <ele>798</ele>
        <time>2015-04-12T11:49:07Z</time>
      </trkpt>
      <trkpt lat="46.09917" lon="3.81244">
        <ele>798</ele>
        <time>2015-04-12T11:49:08Z</time>
      </trkpt>
      <trkpt lat="46.09923" lon="3.81241">
        <ele>797</ele>
        <time>2015-04-12T11:49:09Z</time>
      </trkpt>
      <trkpt lat="46.09929" lon="3.81237">
        <ele>796</ele>
        <time>2015-04-12T11:49:10Z</time>
      </trkpt>
      <trkpt lat="46.09937" lon="3.81234">
        <ele>795</ele>
        <time>2015-04-12T11:49:11Z</time>
      </trkpt>
      <trkpt lat="46.09944" lon="3.81229">
        <ele>794</ele>
        <time>2015-04-12T11:49:12Z</time>
      </trkpt>
      <trkpt lat="46.09949" lon="3.81223">
        <ele>794</ele>
        <time>2015-04-12T11:49:13Z</time>
      </trkpt>
      <trkpt lat="46.09952" lon="3.81216">
        <ele>793</ele>
        <time>2015-04-12T11:49:14Z</time>
      </trkpt>
      <trkpt lat="46.09956" lon="3.8121">
        <ele>793</ele>
        <time>2015-04-12T11:49:15Z</time>
      </trkpt>
      <trkpt lat="46.09959" lon="3.81203">
        <ele>792</ele>
        <time>2015-04-12T11:49:16Z</time>
      </trkpt>
      <trkpt lat="46.09963" lon="3.81196">
        <ele>792</ele>
        <time>2015-04-12T11:49:17Z</time>
      </trkpt>
      <trkpt lat="46.09966" lon="3.8119">
        <ele>791</ele>
        <time>2015-04-12T11:49:18Z</time>
      </trkpt>
      <trkpt lat="46.09973" lon="3.81182">
        <ele>791</ele>
        <time>2015-04-12T11:49:20Z</time>
      </trkpt>
      <trkpt lat="46.09981" lon="3.8118">
        <ele>790</ele>
        <time>2015-04-12T11:49:22Z</time>
      </trkpt>
      <trkpt lat="46.09988" lon="3.81178">
        <ele>790</ele>
        <time>2015-04-12T11:49:24Z</time>
      </trkpt>
      <trkpt lat="46.09993" lon="3.81177">
        <ele>790</ele>
        <time>2015-04-12T11:49:25Z</time>
      </trkpt>
      <trkpt lat="46.10001" lon="3.81174">
        <ele>789</ele>
        <time>2015-04-12T11:49:27Z</time>
      </trkpt>
      <trkpt lat="46.10009" lon="3.81173">
        <ele>790</ele>
        <time>2015-04-12T11:49:29Z</time>
      </trkpt>
      <trkpt lat="46.10016" lon="3.81172">
        <ele>790</ele>
        <time>2015-04-12T11:49:31Z</time>
      </trkpt>
      <trkpt lat="46.10025" lon="3.8117">
        <ele>790</ele>
        <time>2015-04-12T11:49:33Z</time>
      </trkpt>
      <trkpt lat="46.1003" lon="3.81169">
        <ele>791</ele>
        <time>2015-04-12T11:49:34Z</time>
      </trkpt>
      <trkpt lat="46.10035" lon="3.8117">
        <ele>791</ele>
        <time>2015-04-12T11:49:35Z</time>
      </trkpt>
      <trkpt lat="46.10044" lon="3.8117">
        <ele>791</ele>
        <time>2015-04-12T11:49:37Z</time>
      </trkpt>
      <trkpt lat="46.10049" lon="3.81169">
        <ele>790</ele>
        <time>2015-04-12T11:49:38Z</time>
      </trkpt>
      <trkpt lat="46.10055" lon="3.81168">
        <ele>790</ele>
        <time>2015-04-12T11:49:39Z</time>
      </trkpt>
      <trkpt lat="46.10064" lon="3.81166">
        <ele>785</ele>
        <time>2015-04-12T11:49:41Z</time>
      </trkpt>
      <trkpt lat="46.10072" lon="3.81164">
        <ele>785</ele>
        <time>2015-04-12T11:49:43Z</time>
      </trkpt>
      <trkpt lat="46.1008" lon="3.81163">
        <ele>786</ele>
        <time>2015-04-12T11:49:45Z</time>
      </trkpt>
      <trkpt lat="46.10089" lon="3.8116">
        <ele>785</ele>
        <time>2015-04-12T11:49:47Z</time>
      </trkpt>
      <trkpt lat="46.10097" lon="3.81155">
        <ele>785</ele>
        <time>2015-04-12T11:49:49Z</time>
      </trkpt>
      <trkpt lat="46.10102" lon="3.81153">
        <ele>785</ele>
        <time>2015-04-12T11:49:50Z</time>
      </trkpt>
      <trkpt lat="46.10106" lon="3.8115">
        <ele>785</ele>
        <time>2015-04-12T11:49:51Z</time>
      </trkpt>
      <trkpt lat="46.10111" lon="3.81147">
        <ele>785</ele>
        <time>2015-04-12T11:49:52Z</time>
      </trkpt>
      <trkpt lat="46.10115" lon="3.81145">
        <ele>785</ele>
        <time>2015-04-12T11:49:53Z</time>
      </trkpt>
      <trkpt lat="46.10123" lon="3.81142">
        <ele>785</ele>
        <time>2015-04-12T11:49:55Z</time>
      </trkpt>
      <trkpt lat="46.10129" lon="3.81141">
        <ele>785</ele>
        <time>2015-04-12T11:49:57Z</time>
      </trkpt>
      <trkpt lat="46.10136" lon="3.81139">
        <ele>785</ele>
        <time>2015-04-12T11:49:59Z</time>
      </trkpt>
      <trkpt lat="46.10143" lon="3.81137">
        <ele>785</ele>
        <time>2015-04-12T11:50:01Z</time>
      </trkpt>
      <trkpt lat="46.10147" lon="3.81134">
        <ele>785</ele>
        <time>2015-04-12T11:50:02Z</time>
      </trkpt>
      <trkpt lat="46.10154" lon="3.81132">
        <ele>785</ele>
        <time>2015-04-12T11:50:04Z</time>
      </trkpt>
      <trkpt lat="46.10162" lon="3.81132">
        <ele>785</ele>
        <time>2015-04-12T11:50:06Z</time>
      </trkpt>
      <trkpt lat="46.1017" lon="3.81131">
        <ele>786</ele>
        <time>2015-04-12T11:50:08Z</time>
      </trkpt>
      <trkpt lat="46.10178" lon="3.81131">
        <ele>786</ele>
        <time>2015-04-12T11:50:10Z</time>
      </trkpt>
      <trkpt lat="46.10188" lon="3.81131">
        <ele>786</ele>
        <time>2015-04-12T11:50:12Z</time>
      </trkpt>
      <trkpt lat="46.10194" lon="3.81131">
        <ele>786</ele>
        <time>2015-04-12T11:50:13Z</time>
      </trkpt>
      <trkpt lat="46.10202" lon="3.81134">
        <ele>786</ele>
        <time>2015-04-12T11:50:15Z</time>
      </trkpt>
      <trkpt lat="46.10211" lon="3.81135">
        <ele>786</ele>
        <time>2015-04-12T11:50:17Z</time>
      </trkpt>
      <trkpt lat="46.10219" lon="3.81136">
        <ele>786</ele>
        <time>2015-04-12T11:50:19Z</time>
      </trkpt>
      <trkpt lat="46.10227" lon="3.81139">
        <ele>786</ele>
        <time>2015-04-12T11:50:21Z</time>
      </trkpt>
      <trkpt lat="46.10235" lon="3.81142">
        <ele>786</ele>
        <time>2015-04-12T11:50:23Z</time>
      </trkpt>
      <trkpt lat="46.10241" lon="3.81146">
        <ele>787</ele>
        <time>2015-04-12T11:50:25Z</time>
      </trkpt>
      <trkpt lat="46.10248" lon="3.81151">
        <ele>788</ele>
        <time>2015-04-12T11:50:27Z</time>
      </trkpt>
      <trkpt lat="46.10255" lon="3.81155">
        <ele>787</ele>
        <time>2015-04-12T11:50:29Z</time>
      </trkpt>
      <trkpt lat="46.10262" lon="3.81159">
        <ele>786</ele>
        <time>2015-04-12T11:50:31Z</time>
      </trkpt>
      <trkpt lat="46.10266" lon="3.81161">
        <ele>786</ele>
        <time>2015-04-12T11:50:32Z</time>
      </trkpt>
      <trkpt lat="46.10273" lon="3.81165">
        <ele>785</ele>
        <time>2015-04-12T11:50:34Z</time>
      </trkpt>
      <trkpt lat="46.10277" lon="3.81172">
        <ele>790</ele>
        <time>2015-04-12T11:50:36Z</time>
      </trkpt>
      <trkpt lat="46.10283" lon="3.8118">
        <ele>790</ele>
        <time>2015-04-12T11:50:38Z</time>
      </trkpt>
      <trkpt lat="46.10286" lon="3.81185">
        <ele>789</ele>
        <time>2015-04-12T11:50:39Z</time>
      </trkpt>
      <trkpt lat="46.1029" lon="3.81189">
        <ele>789</ele>
        <time>2015-04-12T11:50:40Z</time>
      </trkpt>
      <trkpt lat="46.10297" lon="3.81197">
        <ele>789</ele>
        <time>2015-04-12T11:50:42Z</time>
      </trkpt>
      <trkpt lat="46.10302" lon="3.81201">
        <ele>789</ele>
        <time>2015-04-12T11:50:43Z</time>
      </trkpt>
      <trkpt lat="46.10306" lon="3.81205">
        <ele>789</ele>
        <time>2015-04-12T11:50:44Z</time>
      </trkpt>
      <trkpt lat="46.10309" lon="3.81211">
        <ele>789</ele>
        <time>2015-04-12T11:50:45Z</time>
      </trkpt>
      <trkpt lat="46.10313" lon="3.81216">
        <ele>789</ele>
        <time>2015-04-12T11:50:46Z</time>
      </trkpt>
      <trkpt lat="46.10316" lon="3.81221">
        <ele>789</ele>
        <time>2015-04-12T11:50:47Z</time>
      </trkpt>
      <trkpt lat="46.10319" lon="3.81227">
        <ele>789</ele>
        <time>2015-04-12T11:50:48Z</time>
      </trkpt>
      <trkpt lat="46.10325" lon="3.81237">
        <ele>789</ele>
        <time>2015-04-12T11:50:50Z</time>
      </trkpt>
      <trkpt lat="46.10328" lon="3.81243">
        <ele>789</ele>
        <time>2015-04-12T11:50:51Z</time>
      </trkpt>
      <trkpt lat="46.10331" lon="3.81248">
        <ele>788</ele>
        <time>2015-04-12T11:50:52Z</time>
      </trkpt>
      <trkpt lat="46.10334" lon="3.81254">
        <ele>788</ele>
        <time>2015-04-12T11:50:53Z</time>
      </trkpt>
      <trkpt lat="46.10338" lon="3.8126">
        <ele>787</ele>
        <time>2015-04-12T11:50:54Z</time>
      </trkpt>
      <trkpt lat="46.1034" lon="3.81267">
        <ele>787</ele>
        <time>2015-04-12T11:50:55Z</time>
      </trkpt>
      <trkpt lat="46.10342" lon="3.81274">
        <ele>787</ele>
        <time>2015-04-12T11:50:56Z</time>
      </trkpt>
      <trkpt lat="46.10344" lon="3.81282">
        <ele>787</ele>
        <time>2015-04-12T11:50:57Z</time>
      </trkpt>
      <trkpt lat="46.10346" lon="3.8129">
        <ele>788</ele>
        <time>2015-04-12T11:50:58Z</time>
      </trkpt>
      <trkpt lat="46.10348" lon="3.81298">
        <ele>788</ele>
        <time>2015-04-12T11:50:59Z</time>
      </trkpt>
      <trkpt lat="46.10351" lon="3.81305">
        <ele>788</ele>
        <time>2015-04-12T11:51:00Z</time>
      </trkpt>
      <trkpt lat="46.10354" lon="3.81312">
        <ele>789</ele>
        <time>2015-04-12T11:51:01Z</time>
      </trkpt>
      <trkpt lat="46.10359" lon="3.81324">
        <ele>789</ele>
        <time>2015-04-12T11:51:03Z</time>
      </trkpt>
      <trkpt lat="46.10362" lon="3.8133">
        <ele>789</ele>
        <time>2015-04-12T11:51:04Z</time>
      </trkpt>
      <trkpt lat="46.10365" lon="3.81336">
        <ele>792</ele>
        <time>2015-04-12T11:51:05Z</time>
      </trkpt>
      <trkpt lat="46.10369" lon="3.81342">
        <ele>791</ele>
        <time>2015-04-12T11:51:06Z</time>
      </trkpt>
      <trkpt lat="46.10374" lon="3.81347">
        <ele>791</ele>
        <time>2015-04-12T11:51:07Z</time>
      </trkpt>
      <trkpt lat="46.10377" lon="3.81353">
        <ele>791</ele>
        <time>2015-04-12T11:51:08Z</time>
      </trkpt>
      <trkpt lat="46.10382" lon="3.81364">
        <ele>791</ele>
        <time>2015-04-12T11:51:10Z</time>
      </trkpt>
      <trkpt lat="46.10385" lon="3.81376">
        <ele>791</ele>
        <time>2015-04-12T11:51:12Z</time>
      </trkpt>
      <trkpt lat="46.10388" lon="3.81381">
        <ele>791</ele>
        <time>2015-04-12T11:51:13Z</time>
      </trkpt>
      <trkpt lat="46.10391" lon="3.81386">
        <ele>791</ele>
        <time>2015-04-12T11:51:14Z</time>
      </trkpt>
      <trkpt lat="46.10396" lon="3.8139">
        <ele>791</ele>
        <time>2015-04-12T11:51:15Z</time>
      </trkpt>
      <trkpt lat="46.10401" lon="3.81396">
        <ele>790</ele>
        <time>2015-04-12T11:51:16Z</time>
      </trkpt>
      <trkpt lat="46.10407" lon="3.81401">
        <ele>790</ele>
        <time>2015-04-12T11:51:17Z</time>
      </trkpt>
      <trkpt lat="46.10413" lon="3.81406">
        <ele>790</ele>
        <time>2015-04-12T11:51:18Z</time>
      </trkpt>
      <trkpt lat="46.10416" lon="3.8141">
        <ele>789</ele>
        <time>2015-04-12T11:51:19Z</time>
      </trkpt>
      <trkpt lat="46.1042" lon="3.81414">
        <ele>788</ele>
        <time>2015-04-12T11:51:20Z</time>
      </trkpt>
      <trkpt lat="46.10426" lon="3.81422">
        <ele>790</ele>
        <time>2015-04-12T11:51:22Z</time>
      </trkpt>
      <trkpt lat="46.1043" lon="3.81425">
        <ele>790</ele>
        <time>2015-04-12T11:51:23Z</time>
      </trkpt>
      <trkpt lat="46.10435" lon="3.81427">
        <ele>791</ele>
        <time>2015-04-12T11:51:24Z</time>
      </trkpt>
      <trkpt lat="46.10443" lon="3.8143">
        <ele>791</ele>
        <time>2015-04-12T11:51:26Z</time>
      </trkpt>
      <trkpt lat="46.10448" lon="3.8143">
        <ele>791</ele>
        <time>2015-04-12T11:51:27Z</time>
      </trkpt>
      <trkpt lat="46.10453" lon="3.8143">
        <ele>791</ele>
        <time>2015-04-12T11:51:28Z</time>
      </trkpt>
      <trkpt lat="46.10458" lon="3.81431">
        <ele>791</ele>
        <time>2015-04-12T11:51:29Z</time>
      </trkpt>
      <trkpt lat="46.10463" lon="3.81431">
        <ele>791</ele>
        <time>2015-04-12T11:51:30Z</time>
      </trkpt>
      <trkpt lat="46.10469" lon="3.81431">
        <ele>790</ele>
        <time>2015-04-12T11:51:31Z</time>
      </trkpt>
      <trkpt lat="46.10475" lon="3.81432">
        <ele>790</ele>
        <time>2015-04-12T11:51:32Z</time>
      </trkpt>
      <trkpt lat="46.1048" lon="3.81435">
        <ele>790</ele>
        <time>2015-04-12T11:51:33Z</time>
      </trkpt>
      <trkpt lat="46.10486" lon="3.81437">
        <ele>790</ele>
        <time>2015-04-12T11:51:34Z</time>
      </trkpt>
      <trkpt lat="46.10491" lon="3.81441">
        <ele>790</ele>
        <time>2015-04-12T11:51:35Z</time>
      </trkpt>
      <trkpt lat="46.10495" lon="3.81445">
        <ele>790</ele>
        <time>2015-04-12T11:51:36Z</time>
      </trkpt>
      <trkpt lat="46.105" lon="3.81449">
        <ele>786</ele>
        <time>2015-04-12T11:51:37Z</time>
      </trkpt>
      <trkpt lat="46.10504" lon="3.81453">
        <ele>787</ele>
        <time>2015-04-12T11:51:38Z</time>
      </trkpt>
      <trkpt lat="46.10508" lon="3.81457">
        <ele>787</ele>
        <time>2015-04-12T11:51:39Z</time>
      </trkpt>
      <trkpt lat="46.10513" lon="3.81462">
        <ele>787</ele>
        <time>2015-04-12T11:51:40Z</time>
      </trkpt>
      <trkpt lat="46.10517" lon="3.81466">
        <ele>787</ele>
        <time>2015-04-12T11:51:41Z</time>
      </trkpt>
      <trkpt lat="46.10521" lon="3.8147">
        <ele>787</ele>
        <time>2015-04-12T11:51:42Z</time>
      </trkpt>
      <trkpt lat="46.10525" lon="3.81474">
        <ele>787</ele>
        <time>2015-04-12T11:51:43Z</time>
      </trkpt>
      <trkpt lat="46.1053" lon="3.81478">
        <ele>787</ele>
        <time>2015-04-12T11:51:44Z</time>
      </trkpt>
      <trkpt lat="46.10534" lon="3.81482">
        <ele>787</ele>
        <time>2015-04-12T11:51:45Z</time>
      </trkpt>
      <trkpt lat="46.10539" lon="3.81485">
        <ele>787</ele>
        <time>2015-04-12T11:51:46Z</time>
      </trkpt>
      <trkpt lat="46.10544" lon="3.81489">
        <ele>786</ele>
        <time>2015-04-12T11:51:47Z</time>
      </trkpt>
      <trkpt lat="46.10548" lon="3.81492">
        <ele>786</ele>
        <time>2015-04-12T11:51:48Z</time>
      </trkpt>
      <trkpt lat="46.10552" lon="3.81496">
        <ele>786</ele>
        <time>2015-04-12T11:51:49Z</time>
      </trkpt>
      <trkpt lat="46.10557" lon="3.815">
        <ele>789</ele>
        <time>2015-04-12T11:51:50Z</time>
      </trkpt>
      <trkpt lat="46.10561" lon="3.81505">
        <ele>789</ele>
        <time>2015-04-12T11:51:51Z</time>
      </trkpt>
      <trkpt lat="46.10565" lon="3.81509">
        <ele>788</ele>
        <time>2015-04-12T11:51:52Z</time>
      </trkpt>
      <trkpt lat="46.10569" lon="3.81513">
        <ele>788</ele>
        <time>2015-04-12T11:51:53Z</time>
      </trkpt>
      <trkpt lat="46.10573" lon="3.81518">
        <ele>788</ele>
        <time>2015-04-12T11:51:54Z</time>
      </trkpt>
      <trkpt lat="46.10579" lon="3.81525">
        <ele>788</ele>
        <time>2015-04-12T11:51:56Z</time>
      </trkpt>
      <trkpt lat="46.10584" lon="3.81533">
        <ele>785</ele>
        <time>2015-04-12T11:51:58Z</time>
      </trkpt>
      <trkpt lat="46.10592" lon="3.81539">
        <ele>785</ele>
        <time>2015-04-12T11:52:00Z</time>
      </trkpt>
      <trkpt lat="46.10597" lon="3.81542">
        <ele>785</ele>
        <time>2015-04-12T11:52:01Z</time>
      </trkpt>
      <trkpt lat="46.10602" lon="3.81545">
        <ele>785</ele>
        <time>2015-04-12T11:52:02Z</time>
      </trkpt>
      <trkpt lat="46.10606" lon="3.81548">
        <ele>785</ele>
        <time>2015-04-12T11:52:03Z</time>
      </trkpt>
      <trkpt lat="46.10611" lon="3.81551">
        <ele>785</ele>
        <time>2015-04-12T11:52:04Z</time>
      </trkpt>
      <trkpt lat="46.10615" lon="3.81553">
        <ele>785</ele>
        <time>2015-04-12T11:52:05Z</time>
      </trkpt>
      <trkpt lat="46.10623" lon="3.81557">
        <ele>785</ele>
        <time>2015-04-12T11:52:07Z</time>
      </trkpt>
      <trkpt lat="46.1063" lon="3.81561">
        <ele>785</ele>
        <time>2015-04-12T11:52:09Z</time>
      </trkpt>
      <trkpt lat="46.10636" lon="3.81564">
        <ele>785</ele>
        <time>2015-04-12T11:52:11Z</time>
      </trkpt>
      <trkpt lat="46.10644" lon="3.81568">
        <ele>785</ele>
        <time>2015-04-12T11:52:13Z</time>
      </trkpt>
      <trkpt lat="46.10651" lon="3.81572">
        <ele>785</ele>
        <time>2015-04-12T11:52:15Z</time>
      </trkpt>
      <trkpt lat="46.10659" lon="3.81576">
        <ele>785</ele>
        <time>2015-04-12T11:52:17Z</time>
      </trkpt>
      <trkpt lat="46.10667" lon="3.81579">
        <ele>785</ele>
        <time>2015-04-12T11:52:19Z</time>
      </trkpt>
      <trkpt lat="46.10675" lon="3.81583">
        <ele>785</ele>
        <time>2015-04-12T11:52:21Z</time>
      </trkpt>
      <trkpt lat="46.10681" lon="3.81586">
        <ele>786</ele>
        <time>2015-04-12T11:52:23Z</time>
      </trkpt>
      <trkpt lat="46.10685" lon="3.81588">
        <ele>786</ele>
        <time>2015-04-12T11:52:25Z</time>
      </trkpt>
      <trkpt lat="46.10691" lon="3.81591">
        <ele>786</ele>
        <time>2015-04-12T11:52:28Z</time>
      </trkpt>
      <trkpt lat="46.10696" lon="3.81595">
        <ele>786</ele>
        <time>2015-04-12T11:52:31Z</time>
      </trkpt>
      <trkpt lat="46.10701" lon="3.81597">
        <ele>786</ele>
        <time>2015-04-12T11:53:37Z</time>
      </trkpt>
      <trkpt lat="46.10705" lon="3.816">
        <ele>786</ele>
        <time>2015-04-12T11:53:39Z</time>
      </trkpt>
      <trkpt lat="46.1071" lon="3.81606">
        <ele>787</ele>
        <time>2015-04-12T11:53:41Z</time>
      </trkpt>
      <trkpt lat="46.10712" lon="3.81613">
        <ele>787</ele>
        <time>2015-04-12T11:53:43Z</time>
      </trkpt>
      <trkpt lat="46.10711" lon="3.81622">
        <ele>787</ele>
        <time>2015-04-12T11:53:45Z</time>
      </trkpt>
      <trkpt lat="46.10712" lon="3.81628">
        <ele>787</ele>
        <time>2015-04-12T11:53:47Z</time>
      </trkpt>
      <trkpt lat="46.10714" lon="3.81634">
        <ele>787</ele>
        <time>2015-04-12T11:53:49Z</time>
      </trkpt>
      <trkpt lat="46.10716" lon="3.81642">
        <ele>786</ele>
        <time>2015-04-12T11:53:51Z</time>
      </trkpt>
      <trkpt lat="46.10716" lon="3.81649">
        <ele>786</ele>
        <time>2015-04-12T11:53:53Z</time>
      </trkpt>
      <trkpt lat="46.10716" lon="3.81641">
        <ele>786</ele>
        <time>2015-04-12T11:53:58Z</time>
      </trkpt>
      <trkpt lat="46.10713" lon="3.81634">
        <ele>787</ele>
        <time>2015-04-12T11:54:00Z</time>
      </trkpt>
      <trkpt lat="46.10712" lon="3.81625">
        <ele>787</ele>
        <time>2015-04-12T11:54:02Z</time>
      </trkpt>
      <trkpt lat="46.10711" lon="3.81616">
        <ele>787</ele>
        <time>2015-04-12T11:54:04Z</time>
      </trkpt>
      <trkpt lat="46.10712" lon="3.81606">
        <ele>787</ele>
        <time>2015-04-12T11:54:06Z</time>
      </trkpt>
      <trkpt lat="46.10716" lon="3.81595">
        <ele>787</ele>
        <time>2015-04-12T11:54:08Z</time>
      </trkpt>
      <trkpt lat="46.1072" lon="3.81585">
        <ele>787</ele>
        <time>2015-04-12T11:54:10Z</time>
      </trkpt>
      <trkpt lat="46.10723" lon="3.81574">
        <ele>786</ele>
        <time>2015-04-12T11:54:12Z</time>
      </trkpt>
      <trkpt lat="46.10726" lon="3.81563">
        <ele>786</ele>
        <time>2015-04-12T11:54:14Z</time>
      </trkpt>
      <trkpt lat="46.10729" lon="3.81553">
        <ele>786</ele>
        <time>2015-04-12T11:54:16Z</time>
      </trkpt>
      <trkpt lat="46.10732" lon="3.81548">
        <ele>786</ele>
        <time>2015-04-12T11:54:18Z</time>
      </trkpt>
    </trkseg>
  </trk>
</gpx>